[[{"header":{"parameterUnit":"m.s-1","parameterCategory":1,"la1":30.6,"la2":29.2853,"lo1":-89.7004,"lo2":-87.6739,"dy":0.0162,"dx":0.0183,"nx":112,"ny":82,"refTime":"2025-01-22T06:00:00:Z","depth":0,"parameterNumber":2,"parameterNumberName":"U-component_of_WINDS"},"data":[0.0,0.0,0.0,0.0,0.0,0.0,0.0,0.0,0.0,0.0,0.0,0.0,0.0,0.0,0.0,0.0,0.0,0.0,0.0,0.0,0.0,0.0,0.0,0.0,0.0,0.0,0.0,0.0,0.0,0.0,0.0,0.0,0.0,0.0,0.0,0.0,0.0,0.0,0.0,0.0,0.0,0.0,0.0,0.0,0.0,0.0,0.0,0.0,0.0,0.0,0.0,0.0,0.0,0.0,0.0,0.0,0.0,0.0,0.0,0.0,0.0,0.0,0.0,0.0,0.0,0.0,0.0,0.0,0.0,0.0,0.0,0.0,0.0,0.0,0.0,0.0,0.0,0.0,0.0,0.0,0.0,0.0,0.0,0.0,0.0,0.0,0.0,0.0,0.0,0.0,0.0,0.5503,0.6018,0.6318,0.6205,0.6454,0.6309,0.5564,0.0,0.0,0.0,0.0,0.0,0.0,0.0,0.0,0.0,0.0,0.0,0.0,0.0,0.0,0.0,0.0,0.0,0.0,0.0,0.0,0.0,0.0,0.0,0.0,0.0,0.0,0.0,0.0,0.0,0.0,0.0,0.0,0.0,0.0,0.0,0.0,0.0,0.0,0.0,0.0,0.0,0.0,0.0,0.0,0.0,0.0,0.0,0.0,0.0,0.0,0.0,0.0,0.0,0.0,0.0,0.0,0.0,0.0,0.0,0.0,0.0,0.0,0.0,0.0,0.0,0.0,0.0,0.0,0.0,0.0,0.0,0.0,0.0,0.0,0.0,0.0,0.0,0.0,0.0,0.0,0.0,0.0,0.0,0.0,0.0,0.0,0.0,0.0,0.0,0.0,0.0,0.0,0.0,0.0,0.0,0.0,0.0,0.0,0.0,0.0,0.0,0.0,0.0,0.0,0.5862,0.627,0.6258,0.6219,0.6205,0.6241,0.6332,0.6485,0.0,0.0,0.0,0.0,0.0,0.0,0.0,0.0,0.0,0.0,0.0,0.0,0.0,0.0,0.0,0.0,0.0,0.0,0.0,0.0,0.0,0.0,0.0,0.0,0.0,0.0,0.0,0.0,0.0,0.0,0.0,0.0,0.0,0.0,0.0,0.0,0.0,0.0,0.0,0.0,0.0,0.0,0.0,0.0,0.0,0.0,0.0,0.0,0.0,0.0,0.0,0.0,0.0,0.0,0.0,0.0,0.0,0.0,0.0,0.0,0.0,0.0,0.0,0.0,0.0,0.0,0.0,0.0,0.0,0.0,0.0,0.0,0.0,0.0,0.0,0.0,0.0,0.0,0.0,0.0,0.0,0.0,0.0,0.0,0.0,0.0,0.0,0.0,0.0,0.0,0.0,0.0,0.0,0.0,0.0,0.0,0.0,0.0,0.0,0.0,0.0,0.0,0.0,0.6239,0.6275,0.6617,0.6487,0.6412,0.6515,0.6417,0.643,0.6579,0.637,0.0,0.0,0.0,0.0,0.0,0.0,0.0,0.0,0.0,0.0,0.0,0.0,0.0,0.0,0.0,0.0,0.0,0.0,0.0,0.0,0.0,0.0,0.0,0.0,0.0,0.0,0.0,0.0,0.0,0.0,0.0,0.0,0.0,0.0,0.0,0.0,0.0,0.0,0.0,0.0,0.0,0.0,0.0,0.0,0.0,0.0,0.0,0.0,0.0,0.0,0.0,0.0,0.0,0.0,0.0,0.0,0.0,0.0,0.0,0.0,0.0,0.0,0.0,0.0,0.0,0.0,0.0,0.0,0.0,0.0,0.0,0.0,0.0,0.0,0.0,0.0,0.0,0.0,0.0,0.0,0.0,0.0,0.0,0.0,0.0,0.0,0.0,0.0,0.0,0.0,0.0,0.0,0.0,0.0,0.0,0.0,0.0,0.0,0.0,0.0,0.0,0.0,0.6723,0.6728,0.6878,0.6704,0.6633,0.6792,0.6609,0.6516,0.6573,0.6653,0.0,0.0,0.0,0.0,0.0,0.0,0.0,0.0,0.0,0.0,0.0,0.0,0.0,0.0,0.0,0.0,0.0,0.0,0.0,0.0,0.0,0.0,0.0,0.0,0.0,0.0,0.0,0.0,0.0,0.0,0.0,0.0,0.0,0.0,0.0,0.0,0.0,0.0,0.0,0.0,0.0,0.0,0.0,0.0,0.0,0.0,0.0,0.0,0.0,0.0,0.0,0.0,0.0,0.0,0.0,0.0,0.0,0.0,0.0,0.0,0.0,0.0,0.0,0.0,0.0,0.0,0.0,0.0,0.0,0.0,0.0,0.0,0.0,0.0,0.0,0.0,0.0,0.0,0.0,0.0,0.0,0.0,0.0,0.0,0.0,0.0,0.0,0.0,0.0,0.0,0.0,0.0,0.0,0.0,0.0,0.0,0.0,0.0,0.0,0.0,0.0,0.0,0.7007,0.7152,0.7166,0.6935,0.6792,0.6806,0.6609,0.6587,0.6768,0.6554,0.0,0.0,0.0,0.0,0.0,0.0,0.0,0.0,0.0,0.0,0.0,0.0,0.0,0.0,0.0,0.0,0.0,0.0,0.0,0.0,0.0,0.0,0.0,0.0,0.0,0.0,0.0,0.0,0.0,0.0,0.0,0.0,0.0,0.0,0.0,0.0,0.0,0.0,0.0,0.0,0.0,0.0,0.0,0.0,0.0,0.0,0.0,0.0,0.0,0.0,0.0,0.0,0.0,0.0,0.0,0.0,0.0,0.0,0.0,0.0,0.0,0.0,0.0,0.0,0.0,0.0,0.0,0.0,0.0,0.0,0.0,0.0,0.0,0.0,0.0,0.0,0.0,0.0,0.0,0.0,0.0,0.0,0.0,0.0,0.0,0.0,0.0,0.0,0.0,0.0,0.0,0.0,0.0,0.0,0.0,0.0,0.0,0.0,0.0,0.0,0.0,0.0,0.7527,0.7704,0.0,0.7179,0.7092,0.722,0.7056,0.6895,0.6812,0.0,0.0,0.0,0.0,0.0,0.0,0.0,0.0,0.0,0.0,0.0,0.0,0.0,0.0,0.0,0.0,0.0,0.0,0.0,0.0,0.0,0.0,0.0,0.0,0.0,0.0,0.0,0.0,0.0,0.0,0.0,0.0,0.0,0.0,0.0,0.0,0.0,0.0,0.0,0.0,0.0,0.0,0.0,0.0,0.0,0.0,0.0,0.0,0.0,0.0,0.0,0.0,0.0,0.0,0.0,0.0,0.0,0.0,0.0,0.0,0.0,0.0,0.0,0.0,0.0,0.0,0.0,0.0,0.0,0.0,0.0,0.0,0.0,0.0,0.0,0.0,0.0,0.0,0.0,0.0,0.0,0.0,0.0,0.0,0.0,0.0,0.0,0.0,0.0,0.0,0.0,0.0,0.0,0.0,0.0,0.0,0.0,0.0,0.0,0.0,0.0,0.0,0.789,0.8405,0.8655,0.0,0.8173,0.8019,0.7837,0.7569,0.7326,0.7101,0.0,0.0,0.0,0.0,0.0,0.0,0.0,0.0,0.0,0.0,0.0,0.0,0.0,0.0,0.0,0.0,0.0,0.0,0.0,0.0,0.0,0.0,0.0,0.0,0.0,0.0,0.0,0.0,0.0,0.0,0.0,0.0,0.0,0.0,0.0,0.0,0.0,0.0,0.0,0.0,0.0,0.0,0.0,0.0,0.0,0.0,0.0,0.0,0.0,0.0,0.0,0.0,0.0,0.0,0.0,0.0,0.0,0.0,0.0,0.0,0.0,0.0,0.0,0.0,0.0,0.0,0.0,0.0,0.0,0.0,0.0,0.0,0.0,0.0,0.0,0.0,0.0,0.0,0.0,0.0,0.0,0.0,0.0,0.0,0.0,0.0,0.0,0.0,0.0,0.0,0.0,0.0,0.0,0.0,0.0,0.0,0.0,0.0,0.0,0.0,0.0,0.0,0.9132,0.9681,1.0006,0.9999,0.9999,0.9593,0.8592,0.8138,0.7859,0.0,0.0,0.0,0.0,0.0,0.0,0.0,0.0,0.0,0.0,0.0,0.0,0.0,0.0,0.0,0.0,0.0,0.0,0.0,0.0,0.0,0.0,0.0,0.0,0.0,0.0,0.0,0.0,0.0,0.0,0.0,0.0,0.0,0.0,0.0,0.0,0.0,0.0,0.0,0.0,0.0,0.0,0.0,0.0,0.0,0.0,0.0,0.0,0.0,0.0,0.0,0.0,0.0,0.0,0.0,0.0,0.0,0.0,0.0,0.0,0.0,0.0,0.0,0.0,0.0,0.0,0.0,0.0,0.0,0.0,0.0,0.0,0.0,0.0,0.0,0.0,0.0,0.0,0.0,0.0,0.0,0.0,0.0,0.0,0.0,0.0,0.0,0.0,0.0,0.0,0.0,0.0,0.0,0.0,0.0,0.0,0.0,0.0,0.0,0.0,0.0,0.0,0.0,0.0,1.0203,1.0524,1.0049,0.9999,0.9775,0.9247,0.8881,0.8605,0.8425,0.0,0.0,0.0,0.0,0.0,0.0,0.0,0.0,0.0,0.0,0.0,0.0,0.0,0.0,0.0,0.0,0.0,0.0,0.0,0.0,0.0,0.0,0.0,0.0,0.0,0.0,0.0,0.0,0.0,0.0,0.0,0.0,0.0,0.0,0.0,0.0,0.0,0.0,0.0,0.0,0.0,0.0,0.0,0.0,0.0,0.0,0.0,0.0,0.0,0.0,0.0,0.0,0.0,0.0,0.0,0.0,0.0,0.0,0.0,0.0,0.0,0.0,0.0,0.0,0.0,0.0,0.0,0.0,0.0,0.0,0.0,0.0,0.0,0.0,0.0,0.0,0.0,0.0,0.0,0.0,0.0,0.0,0.0,0.0,0.0,0.0,0.0,0.0,0.0,0.0,0.0,0.0,0.0,0.0,0.0,0.0,0.0,0.0,0.0,0.0,0.0,0.0,1.0519,1.129,1.1586,1.1052,1.1005,1.0708,0.9954,0.955,0.924,0.907,0.0,0.0,0.0,0.0,0.0,0.0,0.0,0.0,0.0,0.0,0.0,0.0,0.0,0.0,0.0,0.0,0.0,0.0,0.0,0.0,0.0,0.0,0.0,0.0,0.0,0.0,0.0,0.0,0.0,0.0,0.0,0.0,0.0,0.0,0.0,0.0,0.0,0.0,0.0,0.0,0.0,0.0,0.0,0.0,0.0,0.0,0.0,0.0,0.0,0.0,0.0,0.0,0.0,0.0,0.0,0.0,0.0,0.0,0.0,0.0,0.0,0.0,0.0,0.0,0.0,0.0,0.0,0.0,0.0,0.0,0.0,0.0,0.0,0.0,0.0,0.0,0.0,0.0,0.0,0.0,0.0,0.0,0.0,0.0,0.0,0.0,0.0,0.0,0.0,0.0,0.0,0.0,0.0,0.0,0.0,0.0,0.0,0.0,0.0,0.0,0.0,0.0,1.1891,1.2589,1.2867,1.2538,1.2502,1.1973,1.0712,1.0184,0.9862,0.9701,0.0,0.0,0.0,0.0,0.0,0.0,0.0,0.0,0.0,0.0,0.0,0.0,0.0,0.0,0.0,0.0,0.0,0.0,0.0,0.0,0.0,0.0,0.0,0.0,0.0,0.0,0.0,0.0,0.0,0.0,0.0,0.0,0.0,0.0,0.0,0.0,0.0,0.0,0.0,0.0,0.0,0.0,0.0,0.0,0.0,0.0,0.0,0.0,0.0,0.0,0.0,0.0,0.0,0.0,0.0,0.0,0.0,0.0,0.0,0.0,0.4455,0.0,0.0,0.0,0.0,0.0,0.0,0.0,0.0,0.0,0.0,0.0,0.0,0.0,0.0,0.0,0.0,0.0,0.0,0.0,0.0,0.0,0.0,0.0,0.0,0.0,0.0,0.0,0.0,0.0,0.0,0.0,0.0,0.0,0.0,0.0,0.0,0.0,0.0,0.0,0.0,0.0,1.1952,1.2589,1.2867,1.2538,1.2502,1.2196,1.1423,1.1025,1.0709,1.0408,0.0,0.0,0.0,0.0,0.0,0.0,0.0,0.0,0.0,0.0,0.0,0.0,0.0,0.0,0.0,0.0,0.0,0.0,0.0,0.0,0.0,0.0,0.0,0.0,0.0,0.0,0.0,0.0,0.0,0.0,0.0,0.0,0.0,0.0,0.0,0.0,0.0,0.0,0.0,0.0,0.0,0.0,0.0,0.0,0.0,0.0,0.0,0.0,0.0,0.0,0.0,0.0,0.0,0.0,0.0,0.0,0.0,0.0,0.0,0.0,0.0,0.556,0.0,0.0,0.0,0.0,0.0,0.0,0.0,0.0,0.0,0.0,0.0,0.0,0.0,0.0,0.0,0.0,0.0,0.0,0.0,0.0,0.0,0.0,0.0,0.0,0.0,0.0,0.0,0.0,0.0,0.0,0.0,0.0,0.0,0.0,0.0,0.0,0.0,0.0,0.0,0.0,1.2193,1.284,1.306,1.256,1.2502,1.2262,1.165,1.1291,1.1034,1.0843,1.0235,0.0,0.0,0.0,0.0,0.0,0.0,0.0,0.0,0.0,0.0,0.0,0.0,0.0,0.0,0.0,0.0,0.0,0.0,0.0,0.0,0.0,0.0,0.0,0.0,0.0,0.0,0.0,0.0,0.0,0.0,0.0,0.0,0.0,0.0,0.0,0.0,0.0,0.0,0.0,0.0,0.0,0.0,0.0,0.0,0.0,0.0,0.0,0.0,0.0,0.0,0.0,0.0,0.0,0.6221,0.6397,0.6763,0.6298,0.6515,0.7248,0.6797,0.6549,0.6453,0.0,0.0,0.0,0.0,0.0,0.0,0.0,0.0,0.0,0.0,0.0,0.0,0.0,0.0,0.0,0.0,0.0,0.0,0.0,0.0,0.0,0.0,0.0,0.0,0.0,0.8497,0.8559,0.0,0.0,0.0,0.0,0.0,0.0,0.0,0.0,0.0,0.0,0.0,0.0,1.2546,1.3126,1.3265,1.2655,1.2538,1.2301,1.1802,1.1455,1.1271,1.1271,1.0964,1.0754,0.0,0.0,0.0,0.0,0.0,0.0,0.0,0.0,0.0,0.0,0.0,0.0,0.0,0.0,0.0,0.0,0.0,0.0,0.0,0.0,0.0,0.0,0.0,0.0,0.0,0.0,0.0,0.0,0.0,0.0,0.0,0.0,0.2648,0.2217,0.0,0.0,0.0,0.0,0.0,0.0,0.0,0.0,0.0,0.0,0.0,0.0,0.0,0.0,0.5828,0.6495,0.6852,0.6894,0.7512,0.7838,0.7884,0.7987,0.8291,0.8725,0.8643,0.0,0.7925,0.6783,0.0,0.0,0.0,0.0,0.0,0.0,0.0,0.0,0.0,0.0,0.0,0.0,0.0,0.0,0.0,0.0,0.0,0.0,0.0,0.0,0.0,0.0,0.8602,0.9806,1.0093,1.0348,0.0,1.0632,0.9903,0.9736,0.0,0.0,0.0,0.0,0.0,0.0,0.0,0.0,1.2889,1.3265,1.3353,1.2969,1.2677,1.2472,1.2394,1.2125,1.1974,1.1977,1.1919,1.1863,1.1792,1.1461,0.0,0.0,0.0,0.0,0.0,0.0,0.0,0.0,0.0,0.0,0.0,0.0,0.0,0.0,0.0,0.0,0.0,0.0,0.0,0.0,0.0,0.0,0.0,0.0,0.0,0.0,0.0,0.0,0.0,0.2784,0.2818,0.2511,0.265,0.2782,0.0,0.0,0.0,0.0,0.0,0.0,0.0,0.0,0.0,0.5682,0.6467,0.7112,0.7646,0.8077,0.8287,0.8287,0.851,0.8614,0.8609,0.8581,0.867,0.8826,0.8826,0.878,0.8648,0.8093,0.8065,0.8347,0.0,0.0,0.0,0.0,0.0,0.7823,0.8056,0.788,0.0,0.0,0.0,0.0,0.0,0.0,0.0,0.0,0.0,0.0,0.0,0.0,0.0,1.1121,1.1296,1.1546,1.2441,1.2226,1.1655,0.0,1.1313,1.1469,1.1017,0.0,0.0,0.0,0.0,0.0,1.2628,1.3053,1.3205,1.2862,1.279,1.2692,1.2519,1.2386,1.2326,1.2313,1.2317,1.2306,1.228,1.2078,1.1844,0.0,0.0,0.0,0.0,0.0,0.0,0.0,0.0,0.0,0.0,0.0,0.0,0.0,0.0,0.0,0.0,0.0,0.0,0.0,0.0,0.0,0.0,0.0,0.0,0.0,0.0,0.0,0.0,0.2646,0.2749,0.2503,0.2599,0.2674,0.0,0.0,0.0,0.0,0.0,0.0,0.4076,0.4938,0.5823,0.6738,0.76,0.835,0.9,0.9151,0.9255,0.9302,0.9151,0.9109,0.9156,0.8939,0.8916,0.904,0.8963,0.9043,0.9247,0.901,0.8859,0.8779,0.8708,0.867,0.8675,0.8669,0.8481,0.8242,0.8392,0.8222,0.7893,0.7647,0.0,0.7351,0.7068,0.0,0.0,0.0,0.0,1.1054,1.0926,0.0,1.1733,1.2198,1.2307,1.2492,1.316,1.3247,1.2993,0.0,1.2218,1.2102,1.1563,0.0,0.0,0.0,0.0,1.2572,1.2615,1.2981,1.3119,1.286,1.2894,1.2871,1.2767,1.2775,1.2814,1.2895,1.2909,1.2912,1.2912,1.2677,1.2415,0.0,0.0,0.0,0.0,0.0,0.0,0.0,0.0,0.0,0.0,0.0,0.0,0.0,0.0,0.0,0.0,0.0,0.0,0.0,0.0,0.0,0.0,0.0,0.0,0.0,0.0,0.0,0.0,0.0,0.0,0.219,0.2576,0.0,0.0,0.0,0.0,0.3517,0.4205,0.5018,0.6005,0.7176,0.8063,0.8556,0.88,0.8951,0.9005,0.9014,0.9113,0.9302,0.9293,0.9396,0.9564,0.9368,0.9511,0.9923,0.966,0.9693,0.9885,0.9048,0.8812,0.8967,0.8697,0.8603,0.8607,0.8602,0.8592,0.8583,0.8594,0.8459,0.8304,0.8476,0.828,0.7939,0.778,0.8285,0.0,0.0,0.9775,1.0743,1.1673,1.1944,1.2169,1.2942,1.3134,1.3227,1.352,1.3387,1.3113,0.0,1.2763,1.2643,1.231,0.0,1.2437,1.2857,1.2956,1.3034,1.323,1.3282,1.3271,1.3189,1.2899,1.2906,1.3406,1.3514,1.3677,1.3999,1.4016,1.4026,1.4026,1.3339,1.2952,1.2934,1.2059,0.0,0.0,0.0,0.0,0.0,0.0,0.0,0.0,0.0,0.0,0.0,0.0,0.0,0.0,0.0,0.0,0.0,0.0,0.0,0.0,0.0,0.0,0.0,0.0,0.0,0.0,0.0,0.0,0.2585,0.2869,0.0,0.0,0.398,0.4404,0.5391,0.563,0.6009,0.6616,0.7513,0.8162,0.8495,0.9071,0.9467,0.9641,0.9641,0.9679,0.975,0.975,0.9788,0.9864,0.9908,1.0039,1.0186,1.0041,1.0039,1.008,0.9614,0.9409,0.9384,0.9289,0.9157,0.9046,0.905,0.895,0.8789,0.8794,0.867,0.8494,0.8432,0.8225,0.8102,0.8662,0.9505,1.0398,1.1031,1.1995,1.2904,1.326,1.3348,1.341,1.3712,1.3774,1.3801,1.3908,1.3848,1.3741,1.3654,1.332,1.2965,1.2677,1.2752,1.2872,1.2874,1.3029,1.3157,1.3241,1.3155,1.3098,1.3069,1.2932,1.3003,1.346,1.3532,1.3712,1.4079,1.4098,1.4036,1.3903,1.3642,1.3347,1.3003,1.2464,1.1958,0.0,0.0,0.0,0.0,0.0,0.0,0.0,0.0,0.0,0.0,0.0,0.0,0.0,0.0,0.0,0.0,0.0,0.0,0.0,0.0,0.0,0.0,0.0,0.0,0.0,0.0,0.3081,0.3366,0.3665,0.4205,0.5158,0.5327,0.5755,0.6704,0.699,0.7275,0.7666,0.845,0.8964,0.913,0.9668,1.0022,1.0203,1.0203,1.0203,1.0203,1.0203,1.0203,1.0208,1.0242,1.0263,1.0267,1.0122,1.0065,1.0042,0.9879,0.9702,0.954,0.954,0.9451,0.9312,0.9181,0.9022,0.8863,0.8805,0.8718,0.857,0.8448,0.8593,0.8916,0.9545,1.0746,1.2009,1.2635,1.3568,1.4404,1.4404,1.4404,1.4404,1.4404,1.4404,1.4377,1.4255,1.4229,1.4202,1.4129,1.3774,1.344,1.3273,1.3394,1.3434,1.3273,1.3394,1.3467,1.3347,1.3252,1.3201,1.3169,1.3137,1.3241,1.3605,1.3763,1.3958,1.4247,1.429,1.4239,1.4105,1.3918,1.3627,1.3282,1.2864,1.2396,1.1853,0.0,0.0,0.0,0.0,0.0,0.0,0.0,0.0,0.0,0.0,0.0,0.0,0.0,0.0,0.0,0.0,0.0,0.0,0.0,0.0,0.0,0.0,0.0,0.2819,0.2929,0.3406,0.4555,0.496,0.5542,0.649,0.6812,0.7082,0.7369,0.8238,0.8908,0.9235,1.0107,1.0598,1.0598,1.0598,1.0598,1.0598,1.0598,1.0598,1.0598,1.0598,1.0598,1.0598,1.0348,1.0213,1.0213,0.9939,0.9827,0.9827,0.9827,0.9664,0.9408,0.9399,0.9395,0.9347,0.8962,0.8805,0.8781,0.8663,0.8629,0.8668,0.8668,0.9469,1.0465,1.0492,1.1962,1.3609,1.3631,1.4298,1.5008,1.5008,1.5008,1.5008,1.5008,1.5008,1.4905,1.4596,1.4514,1.4449,1.4155,1.4102,1.4116,1.4109,1.4109,1.4109,1.4109,1.4109,0.0,1.3653,1.3613,1.3588,1.3504,1.3502,1.3613,1.3898,1.428,1.4545,1.4609,1.4672,1.4701,1.4693,1.4122,1.3825,1.3809,1.3286,1.2704,1.2051,0.0,0.0,0.0,0.0,0.0,0.0,0.0,0.0,0.0,0.0,0.0,0.0,0.0,0.0,0.0,0.0,0.0,0.0,0.0,0.0,0.0,0.0,0.3453,0.3842,0.4445,0.527,0.6421,0.651,0.6988,0.8336,0.8181,0.8459,0.9598,0.9929,1.0113,1.0218,1.0454,1.0598,1.0598,1.0598,1.0598,1.0598,1.0598,1.0598,1.0598,1.0598,1.0598,1.0602,1.0665,1.0712,1.0697,1.0578,1.0516,1.0516,1.0323,1.0085,0.9817,0.9519,0.9302,0.9162,0.9062,0.9019,0.9015,0.8966,0.9446,1.0049,1.0049,1.0788,1.1839,1.2502,1.3141,1.3744,1.4411,1.48,1.5008,1.5008,1.5008,1.5008,1.5008,1.5008,1.4966,1.4885,1.4865,1.4778,1.4462,1.4381,1.4335,1.4122,1.4109,1.4109,1.4109,0.0,0.0,1.3975,1.3754,1.3587,1.3568,1.3699,1.3926,1.4229,1.446,1.4698,0.0,1.4768,1.458,1.4486,1.4308,1.4163,1.4023,1.3596,1.3294,0.0,0.0,0.0,0.0,0.0,0.0,0.0,0.0,0.0,0.0,0.0,0.0,0.0,0.0,0.0,0.0,0.0,0.0,0.0,0.0,0.0,0.0,0.3131,0.4102,0.5336,0.5586,0.6176,0.7588,0.7537,0.7868,0.9123,0.9235,0.9589,1.0455,1.0716,1.0858,1.0858,1.0858,1.0858,1.0858,1.074,1.0692,1.0692,1.0574,1.0574,1.0692,1.0692,1.074,1.0839,1.0866,1.085,0.0,1.0707,1.063,1.063,1.0458,1.0314,0.0,0.0,0.0,0.0,0.0,0.9279,0.9096,0.9096,0.9484,0.9963,0.9963,1.103,1.2427,1.2957,1.3852,1.4811,1.5354,1.5491,1.5537,1.5645,1.5583,1.5491,1.5491,1.5491,1.5435,1.5216,1.5166,1.5079,1.4763,0.0,0.0,1.4504,1.427,1.415,1.4249,1.4168,1.4109,0.0,1.3935,1.3807,1.3807,1.392,1.4147,1.4571,1.4682,0.0,0.0,0.0,1.4721,1.4408,0.0,0.0,0.0,0.0,0.0,0.0,0.0,0.0,0.0,0.969,0.9261,0.0,0.0,0.0,0.0,0.0,0.0,0.0,0.0,0.0,0.0,0.0,0.0,0.0,0.0,0.0,0.0,0.3815,0.4823,0.69,0.6482,0.6601,0.8339,0.8208,0.8346,0.9236,0.9869,1.0261,1.0388,1.0777,1.1047,1.112,0.0,0.0,0.0,0.0,1.0777,1.0826,1.0609,1.058,1.0801,1.0801,1.09,1.1096,1.085,1.0752,1.0728,1.0507,1.0413,1.0413,1.0413,1.0413,1.0413,1.0413,1.024,1.0026,0.9901,0.9597,0.0,0.9251,0.0,0.0,0.9552,1.106,1.281,1.2927,1.4494,1.6248,1.6248,1.6248,1.6289,1.6541,1.643,1.6248,1.6201,1.6201,1.6055,1.5544,1.5444,1.5357,1.5093,1.5062,1.5062,1.5062,1.4578,1.4275,1.4507,1.4322,1.4156,1.4156,1.4129,1.4109,1.4109,0.0,0.0,1.4838,1.4881,1.5128,1.5664,1.5427,1.5032,1.4568,1.4833,1.4553,1.3638,1.3601,1.3412,1.3035,1.2201,1.1832,1.1792,1.0124,0.9712,0.0,0.0,0.0,0.0,0.0,0.0,0.0,0.0,0.0,0.0,0.0,0.0,0.0,0.0,0.0,0.4286,0.5251,0.6211,0.7073,0.7396,0.8014,0.9221,0.8934,0.8879,0.9477,0.9279,0.9468,1.0335,1.0093,1.0093,1.0536,1.0142,0.0,1.0531,1.0507,1.0683,1.112,1.1071,1.0949,1.0801,0.0,0.0,1.0556,1.0507,1.0487,1.0462,1.0408,1.0413,1.0413,1.0413,1.0413,1.0413,1.0413,1.0364,1.031,1.0295,1.0236,1.0157,1.0157,1.0712,1.1559,1.2387,1.354,1.4749,1.556,1.6132,0.0,1.6518,1.6518,1.6541,1.6588,1.6565,1.6471,1.6241,1.6201,1.6109,1.5782,1.5721,1.5635,1.5364,1.5311,1.5311,1.5311,1.5046,1.4839,1.4892,1.4623,1.4414,1.4414,1.4229,1.4109,1.4109,1.4391,1.4636,1.474,1.4842,1.5112,1.5584,1.5603,1.5561,1.5455,1.5519,1.5182,1.4403,1.4223,1.3837,1.3239,1.2261,1.1922,1.2093,1.089,1.0413,0.0,0.0,0.0,0.0,0.0,0.0,0.0,0.0,0.0,0.0,0.0,0.2904,0.0,0.0,0.4466,0.5387,0.6025,0.6689,0.7475,0.7839,0.8287,0.9101,0.873,0.8506,0.8783,0.8804,0.9023,0.9567,0.9599,0.9727,0.9994,0.9747,0.9727,0.9994,0.9994,1.0117,1.0413,1.0413,1.0413,1.0413,1.0413,1.0413,1.0413,1.0413,1.0413,1.0413,1.0413,1.0413,1.0413,1.0413,1.0487,1.0609,1.0609,1.0437,1.0191,1.0191,1.0117,0.9994,0.9994,1.0364,1.0998,1.2179,1.324,1.4304,1.5449,1.6275,1.6807,1.6807,1.6807,1.6824,1.6911,1.6871,1.676,1.6619,1.6508,1.6336,1.6052,1.5879,1.5761,1.5621,1.5588,1.5588,1.5588,1.5491,1.5344,1.5227,1.493,1.4743,1.4743,1.4638,1.4544,1.4544,1.4733,1.4921,1.5131,1.5493,1.5668,1.5606,1.5975,1.6047,1.5709,1.5868,1.536,1.4072,1.4079,1.3568,1.2493,1.2106,1.1985,1.2122,1.1327,1.0892,0.0,0.0,0.0,0.0,0.0,0.0,0.0,0.0,0.2226,0.2342,0.3051,0.3711,0.3951,0.4549,0.541,0.6534,0.67,0.7024,0.7937,0.8057,0.8217,0.8693,0.8297,0.7988,0.7988,0.8382,0.8676,0.88,0.9101,0.9331,0.9426,0.9352,0.9331,0.9451,0.9451,0.9541,0.9726,0.9726,0.9851,1.0049,1.0049,1.0131,1.024,1.024,1.024,1.024,1.024,1.024,1.024,1.024,1.0364,1.056,1.056,1.0339,1.0019,1.0191,1.0093,0.9895,0.985,0.9821,1.0043,1.1248,1.2217,1.3095,1.4316,1.5646,1.6683,1.6683,1.6878,1.709,1.7263,1.7176,1.705,1.7003,1.6831,1.6588,1.6272,1.6028,1.5855,1.5808,1.5808,1.5808,1.5808,1.5808,1.5728,1.5518,1.526,1.5073,1.5073,1.5019,1.5008,1.5008,1.5008,1.5136,1.5457,1.6002,1.6128,1.5638,1.6324,1.6511,1.5964,1.6317,1.5741,1.4103,1.4069,1.3402,1.1987,1.1964,1.195,1.1928,1.1492,1.1189,0.208,0.1948,0.0,0.1797,0.1883,0.1897,0.0,0.0,0.319,0.3038,0.3828,0.4866,0.588,0.6144,0.6557,0.7636,0.7826,0.7919,0.8221,0.827,0.834,0.8519,0.8226,0.7988,0.7988,0.8063,0.8283,0.8775,0.8407,0.8382,0.8874,0.8432,0.8407,0.8874,0.8899,0.9316,1.0205,1.0209,1.0239,1.0277,1.0277,1.0062,0.9677,0.9677,0.9677,0.9677,0.9677,0.9677,0.9677,0.9677,0.9702,0.9727,0.9727,0.9846,1.0093,1.0801,1.1047,1.0998,1.0752,1.0679,1.0801,1.1609,1.1945,1.2237,1.3343,1.4567,1.5579,1.5579,1.6396,1.7263,1.7279,1.7279,1.7216,1.7043,1.6979,1.6815,1.6319,1.6177,1.6076,1.5855,1.5808,1.5808,1.5808,1.5808,1.5795,1.5761,1.5531,1.5351,1.5351,1.5146,1.5008,1.5008,1.5008,1.5031,1.5053,1.5452,1.5662,1.5592,1.6469,1.6933,1.6857,1.7357,1.7127,1.6111,1.5233,1.4203,1.304,1.216,1.1604,1.14,1.1331,1.127,0.2026,0.0,0.0,0.0,0.1606,0.181,0.2244,0.2832,0.3418,0.3923,0.4905,0.584,0.6309,0.7017,0.7648,0.0,0.8241,0.8319,0.841,0.842,0.844,0.8502,0.8374,0.8296,0.8296,0.8296,0.8373,0.86,0.8424,0.8398,0.8626,0.8424,0.8398,0.8626,0.8783,0.905,0.9478,0.9633,0.9715,0.9719,0.9719,0.9602,0.943,0.943,0.9372,0.9297,0.9197,0.9126,0.9126,0.9126,0.9229,0.9356,0.9356,0.9529,0.9821,1.0314,1.0609,1.0728,1.0609,1.056,1.0752,1.178,1.2145,1.2358,1.359,1.4334,1.4764,1.4764,1.5555,1.6419,1.6419,1.685,1.7279,1.72,1.709,1.6932,1.672,1.6548,1.64,1.6282,1.6282,1.6282,1.6282,1.614,1.6028,1.6028,1.5802,1.5628,1.5628,1.5538,1.5471,1.5471,1.5471,1.5398,1.5253,1.5636,1.5802,1.562,1.6212,1.6595,1.6595,1.6815,1.65,1.5563,1.4805,1.3942,1.2962,1.223,1.1812,1.1697,1.1388,1.1244,0.1728,0.0,0.0,0.131,0.1607,0.2128,0.2867,0.357,0.4294,0.5076,0.6142,0.6924,0.6962,0.7721,0.0,0.8355,0.844,0.8522,0.8537,0.8547,0.856,0.8604,0.8608,0.8608,0.8608,0.853,0.8509,0.8509,0.8509,0.8509,0.8509,0.8509,0.8509,0.8509,0.8699,0.8855,0.8977,0.9184,0.929,0.9365,0.9365,0.9343,0.9302,0.9302,0.9239,0.9142,0.899,0.8938,0.8938,0.8938,0.9042,0.9226,0.9226,0.9402,0.9649,0.9921,1.0182,1.0413,1.0487,1.0507,1.0654,1.1497,1.1751,1.1938,1.2918,1.3448,1.3706,1.3733,1.4549,1.5436,1.5721,1.6349,1.6967,1.7232,1.72,1.7066,1.7003,1.6855,1.6683,1.6612,1.6612,1.6612,1.6612,1.6447,1.6312,1.6312,1.6076,1.5879,1.5808,1.5808,1.5808,1.5808,1.5808,1.5721,1.5531,1.5813,1.5902,1.5674,1.6104,1.6382,1.6382,1.651,1.63,1.5669,1.4754,1.3959,1.329,1.2353,1.1848,1.1761,1.1389,1.1194,0.0,0.0,0.1353,0.1158,0.2077,0.3065,0.3086,0.4768,0.636,0.6517,0.7462,0.828,0.8409,0.8469,0.8502,0.8502,0.8505,0.8533,0.8682,0.8703,0.873,0.8879,0.8896,0.8896,0.0,0.8655,0.8509,0.8509,0.8509,0.8509,0.8509,0.8509,0.8509,0.8509,0.8509,0.8739,0.9187,0.9187,0.9291,0.9502,0.9502,0.942,0.9302,0.9302,0.9302,0.9294,0.9291,0.9287,0.9287,0.9287,0.9287,0.9287,0.9287,0.947,0.9727,0.9988,1.0226,1.0437,1.0708,1.0777,1.0752,1.0531,1.042,1.039,1.0495,1.1326,1.2283,1.2328,1.3325,1.4579,1.5555,1.5822,1.6082,1.7068,1.7302,1.7239,1.7043,1.6979,1.6902,1.6659,1.6612,1.6612,1.6612,1.6581,1.6588,1.6588,1.6359,1.6099,1.5832,1.5808,1.5808,1.5808,1.5808,1.5801,1.5795,1.5795,1.5812,1.5781,1.6294,1.6584,1.6584,1.7023,1.7374,1.7598,1.5684,1.4638,1.4543,1.2562,1.1482,1.1218,1.1218,1.1194,0.0,0.0,0.2544,0.2668,0.3456,0.4424,0.5122,0.5975,0.6805,0.7566,0.81,0.8451,0.8498,0.8564,0.8632,0.8632,0.872,0.8777,0.8828,0.8835,0.8852,0.8906,0.8912,0.0,0.0,0.0,0.0,0.8757,0.89,0.8954,0.8954,0.9053,0.9107,0.9107,0.9009,0.9033,0.9196,0.9075,0.9027,0.9105,0.9105,0.9077,0.9029,0.8951,0.8902,0.8898,0.882,0.8774,0.8774,0.8774,0.8774,0.8774,0.8774,0.8823,0.8954,0.9403,0.9621,0.9751,1.0387,1.053,1.0469,1.0471,1.0583,1.0698,1.071,1.1014,1.1327,1.136,1.2218,1.339,1.4669,1.5536,1.6333,1.738,1.7631,1.7541,1.7267,1.72,1.7169,1.7075,1.7052,1.7052,1.7052,1.6941,1.6807,1.6636,1.6383,1.6099,1.5832,1.5808,1.5808,1.5808,1.5808,1.5808,1.5808,1.5808,1.5808,1.5808,1.5974,1.6069,1.6069,1.6228,1.6109,1.5713,1.4519,1.3655,1.313,1.1922,1.1292,1.1194,1.1194,1.1194,0.0,0.2602,0.3209,0.3704,0.4596,0.557,0.6341,0.6905,0.749,0.8274,0.8485,0.8543,0.8625,0.8679,0.8726,0.8754,0.8845,0.8912,0.8912,0.8912,0.8912,0.8912,0.8956,0.0,0.0,0.0,0.0,0.9018,0.9128,0.9234,0.926,0.9356,0.941,0.941,0.9315,0.9264,0.9264,0.9144,0.9041,0.9015,0.9015,0.896,0.8906,0.8808,0.8764,0.8757,0.8686,0.8645,0.8645,0.8645,0.8645,0.8645,0.8645,0.8645,0.8699,0.9156,0.9227,0.9195,1.0046,1.0311,1.0228,1.0323,1.0593,1.0871,1.0902,1.1037,1.1185,1.1214,1.1653,1.2391,1.3662,1.4425,1.5237,1.671,1.7061,1.7134,1.7457,1.7517,1.7504,1.7476,1.7477,1.7441,1.7324,1.72,1.7019,1.6777,1.6501,1.6241,1.5974,1.5855,1.5808,1.5808,1.5808,1.5808,1.5808,1.5808,1.5808,1.5808,1.5808,1.5808,1.5808,1.5547,1.5231,1.4849,1.3691,1.2912,1.2506,1.1634,1.1194,1.1194,1.1194,1.0998,0.2508,0.3003,0.3467,0.4315,0.5509,0.6542,0.6734,0.7568,0.8379,0.8648,0.8594,0.8584,0.0,0.0,0.875,0.8889,0.8916,0.8919,0.8912,0.8919,0.8923,0.0,0.0,0.0,0.0,0.0,0.0,0.9245,0.0,0.9267,0.9413,0.943,0.9434,0.9434,0.9427,0.9424,0.9424,0.9413,0.9335,0.9221,0.9221,0.9121,0.8933,0.8933,0.8929,0.8923,0.8923,0.8919,0.8912,0.8912,0.8912,0.8912,0.8912,0.8912,0.8937,0.9268,0.9091,0.8834,0.9719,1.005,1.0068,1.005,1.0381,1.0759,1.081,1.123,1.1659,1.1725,1.1591,1.1638,1.2679,1.2751,1.31,1.5172,1.5651,1.6054,1.7481,1.7793,1.7799,1.7783,1.7775,1.7697,1.7404,1.7324,1.7246,1.7071,1.6791,1.6518,1.6248,1.5981,1.5808,1.5808,1.5808,1.5808,1.5808,1.5808,1.5808,1.5808,1.5808,1.5808,1.5832,1.5142,1.4855,1.5027,1.3353,1.253,1.2611,1.1673,1.1194,1.1194,1.1194,1.063,0.3344,0.4524,0.5654,0.6081,0.6885,0.765,0.7846,0.8112,0.8379,0.8648,0.8679,0.871,0.0,0.0,0.0,0.8923,0.9028,0.0,0.8926,0.9032,0.0,0.0,0.0,0.9352,0.9352,0.9386,0.0,0.0,0.9493,0.951,0.9551,0.9652,0.9707,0.9707,0.9605,0.9551,0.9551,0.9439,0.939,0.9352,0.9352,0.9332,0.9269,0.9269,0.9205,0.9124,0.9124,0.9035,0.8912,0.8912,0.8912,0.8912,0.8912,0.8912,0.8912,0.8992,0.8941,0.8876,0.9135,0.9314,0.9445,0.9544,0.9801,1.0073,1.0081,1.0478,1.0969,1.0977,1.1257,1.185,1.315,1.3443,1.3683,1.4821,1.511,1.5314,1.6086,1.6273,1.6529,1.7418,1.7546,1.7633,1.7979,1.7624,1.7366,1.7567,1.7194,1.6737,1.6272,1.5981,1.5808,1.5808,1.5808,1.5808,1.5808,1.5808,1.5808,1.5808,1.5808,1.5879,1.6099,1.591,1.5309,1.4238,1.3763,1.2888,1.158,1.134,1.1194,1.1194,1.1194,1.0548,0.4159,0.5396,0.6547,0.7164,0.7735,0.8147,0.8167,0.8319,0.8476,0.8509,0.8621,0.0,0.0,0.0,0.0,0.0,0.0,0.0,0.9035,0.9131,0.9234,0.0,0.9417,0.0,0.9483,0.9537,0.9608,0.0,0.9646,0.9635,0.97,0.9748,0.9792,0.9792,0.9714,0.9703,0.9703,0.9615,0.9544,0.9483,0.9483,0.9445,0.941,0.941,0.9362,0.9281,0.0,0.9199,0.9032,0.9032,0.8967,0.8912,0.8912,0.8912,0.8912,0.8912,0.8912,0.8912,0.8912,0.8965,0.907,0.9158,0.9461,0.9789,0.9789,1.0252,1.0766,1.0716,1.0887,1.1343,1.2314,1.2481,1.2692,1.3917,1.4203,1.4455,1.5361,1.5564,1.5894,1.6933,1.7307,1.7555,1.7899,1.7626,1.7435,1.7599,1.7263,1.6892,1.6593,1.6312,1.6116,1.6004,1.5981,1.5927,1.5808,1.5808,1.5808,1.5808,1.5808,1.5927,1.6201,1.5452,1.4651,1.3908,1.313,1.2214,1.1194,1.1194,1.1194,1.1198,1.0632,0.972,0.4888,0.592,0.6836,0.7764,0.814,0.8204,0.8044,0.8301,0.8523,0.8315,0.0,0.0,0.8526,0.0,0.8716,0.8737,0.0,0.896,0.9162,0.9228,0.9271,0.9424,0.9544,0.9639,0.9639,0.9717,0.9792,0.9792,0.9707,0.969,0.9785,0.9792,0.9792,0.9792,0.9792,0.9792,0.9792,0.9792,0.9727,0.9639,0.9639,0.9568,0.9439,0.9439,0.9429,0.9441,0.0,0.0,0.9238,0.9217,0.9107,0.8936,0.8919,0.8912,0.8912,0.8912,0.8912,0.8912,0.8912,0.8912,0.8912,0.8912,0.9268,0.9678,0.9678,1.0195,1.0727,1.0599,1.0556,1.0615,1.0953,1.0884,1.1072,1.2558,1.2965,1.3371,1.4718,1.5146,1.5562,1.6509,1.7056,1.7394,1.7649,1.7636,1.7577,1.7529,1.7294,1.709,1.7049,1.6782,1.6494,1.6224,1.6201,1.6099,1.5825,1.5808,1.5808,1.5808,1.5659,1.5808,1.6218,1.4478,1.3631,1.395,1.2282,1.134,1.1194,1.1194,1.1194,1.1174,0.9883,0.8729,0.5272,0.6566,0.7764,0.7963,0.8033,0.8047,0.802,0.7976,0.0,0.0,0.0,0.8199,0.8442,0.0,0.0,0.8852,0.0,0.0,0.0,0.0,0.0,0.0,0.0,0.0,0.0,0.0,0.0,0.0,0.0,0.0,0.9788,0.9792,0.9792,0.9792,0.9792,0.9792,0.9792,0.9792,0.9778,0.9754,0.9754,0.9741,0.9744,0.9744,0.968,0.9568,0.0,0.0,0.9362,0.9233,0.9165,0.9131,0.8956,0.8912,0.8912,0.8912,0.8912,0.8912,0.8912,0.8912,0.8912,0.8912,0.8964,0.9047,0.9047,0.9507,0.9992,0.9961,1.0304,1.0678,1.0755,1.0719,1.0719,1.0802,1.1154,1.1751,1.2716,1.3873,1.5129,1.6449,1.6548,1.6916,1.8389,1.8387,1.818,1.8221,1.7897,1.7585,1.7373,1.6892,1.6494,1.6224,1.6201,1.6099,1.5825,1.5808,1.5808,1.5808,1.5016,1.5159,1.6471,1.4567,1.3728,1.4226,1.3047,1.2033,1.1194,1.1194,1.1194,1.1174,0.9883,0.8761,0.5219,0.6638,0.7988,0.7988,0.8074,0.8119,0.7932,0.0,0.0,0.0,0.0,0.0,0.8024,0.0,0.0,0.0,0.0,0.0,0.0,0.0,0.0,0.0,0.0,0.0,0.0,0.0,0.0,0.0,0.0,0.0,0.9792,0.9792,0.9792,0.9792,0.9792,0.9792,0.9792,0.9792,0.9792,0.9792,0.9792,0.9792,0.9792,0.9792,0.9754,0.9687,0.9642,0.0,0.9396,0.9243,0.9138,0.9035,0.8936,0.8912,0.8912,0.8912,0.8912,0.8912,0.8912,0.8912,0.8912,0.8912,0.8912,0.8912,0.8912,0.9186,0.9478,0.9372,0.9626,0.9976,1.0166,1.0225,1.028,1.0445,1.0692,1.1044,1.161,1.309,1.4594,1.5435,1.6313,1.7245,1.8258,1.8269,1.8193,1.8371,1.8125,1.7842,1.7685,1.7288,1.6866,1.6444,1.6407,1.6234,1.5832,1.5808,1.5588,1.504,1.4705,1.4658,1.498,1.3661,1.3106,1.3451,1.2441,1.1673,1.1194,1.1312,1.0956,1.02,0.9186,0.7868,0.5102,0.6581,0.7988,0.7988,0.813,0.815,0.7872,0.7977,0.0,0.0,0.0,0.0,0.0,0.0,0.0,0.0,0.0,0.0,0.0,0.0,0.0,0.0,0.0,0.0,0.0,0.0,0.0,0.0,0.0,0.0,0.9792,0.9792,0.9792,0.9792,0.9792,0.9792,0.9792,0.9792,0.9792,0.9792,0.9792,0.9792,0.9788,0.9758,0.9744,0.9737,0.9625,0.0,0.0,0.9243,0.9114,0.8953,0.8923,0.8912,0.8912,0.8912,0.8912,0.8912,0.8912,0.8912,0.8912,0.8912,0.8912,0.8912,0.8912,0.9018,0.9111,0.8943,0.9022,0.922,0.9518,0.9596,0.9761,1.0363,1.05,1.061,1.0939,1.22,1.3464,1.4116,1.5648,1.7041,1.7687,1.8016,1.8255,1.8488,1.833,1.8137,1.8028,1.7763,1.7375,1.684,1.6725,1.64,1.5706,1.5659,1.5207,1.4196,1.413,1.3956,1.3613,1.2603,1.2262,1.2678,1.1697,1.1194,1.1194,1.1411,1.0748,0.9336,0.8444,0.6991,0.5102,0.6581,0.7988,0.7988,0.8027,0.7993,0.7824,0.0,0.0,0.0,0.7437,0.7529,0.7746,0.0,0.0,0.0,0.0,0.0,0.0,0.0,0.0,0.0,0.0,0.0,0.0,0.0,0.0,0.0,0.0,0.0,0.0,0.9792,0.9792,0.9792,0.9792,0.9792,0.9792,0.9792,0.9792,0.9792,0.9792,0.9792,0.9788,0.9686,0.9629,0.9618,0.0,0.0,0.0,0.9243,0.9204,0.9148,0.8963,0.8912,0.8912,0.8912,0.8912,0.8912,0.8912,0.8912,0.8912,0.8912,0.8912,0.8912,0.8912,0.8919,0.8926,0.8916,0.8919,0.8926,0.8968,0.8992,0.913,0.9734,0.9871,1.0036,1.061,1.0692,1.1122,1.2748,1.3792,1.5016,1.6869,1.8088,1.8836,1.8859,1.8781,1.8629,1.8379,1.8267,1.7991,1.7382,1.7104,1.6471,1.5272,1.5146,1.4717,1.3631,1.2748,1.2724,1.383,1.1995,1.1507,1.2684,1.1697,1.1194,1.1194,1.1411,1.0836,0.9545,0.8079,0.6789,0.4901,0.6456,0.7988,0.7988,0.7988,0.7973,0.782,0.0,0.0,0.7427,0.7295,0.7295,0.7509,0.7621,0.0,0.0,0.0,0.0,0.0,0.0,0.0,0.0,0.0,0.0,0.0,0.0,0.0,0.0,0.0,0.0,0.0,0.9792,0.9792,0.9792,0.9792,0.9792,0.9792,0.9792,0.9792,0.9792,0.9792,0.9748,0.9693,0.9635,0.9557,0.9462,0.0,0.0,0.0,0.9086,0.9025,0.9018,0.8933,0.8912,0.8912,0.8912,0.8912,0.8912,0.8912,0.8912,0.8912,0.8912,0.8912,0.8912,0.8912,0.8912,0.8912,0.8912,0.8912,0.8912,0.8912,0.8912,0.8968,0.9213,0.9268,0.9375,0.9816,1.0359,1.1032,1.1896,1.2891,1.4051,1.537,1.5829,1.6201,1.6711,1.7219,1.7486,1.7388,1.7179,1.6945,1.6705,1.6464,1.5995,1.5159,1.4519,1.3703,1.2651,1.2365,1.217,1.2038,1.1385,1.1349,1.1974,1.1481,1.1321,1.1572,1.0954,0.9896,0.8425,0.7426,0.5948,0.4769,0.6354,0.7988,0.7988,0.7988,0.7973,0.0,0.0,0.7556,0.7427,0.7248,0.7164,0.7365,0.7519,0.7662,0.0,0.802,0.8213,0.0,0.0,0.0,0.0,0.0,0.0,0.0,0.0,0.0,0.0,0.0,0.0,0.0,0.9792,0.9792,0.9792,0.9792,0.9792,0.9792,0.9792,0.9768,0.9727,0.9727,0.9683,0.954,0.9496,0.9415,0.9335,0.0,0.0,0.0,0.8953,0.8912,0.8912,0.8912,0.8912,0.8912,0.8912,0.8912,0.8912,0.8912,0.8912,0.8912,0.8912,0.8912,0.8912,0.8912,0.8912,0.8912,0.8912,0.8912,0.8912,0.8912,0.8912,0.8912,0.8912,0.8912,0.8968,0.9213,0.9891,1.0566,1.0918,1.1892,1.2918,1.3814,1.397,1.4234,1.4898,1.5544,1.597,1.605,1.5832,1.5712,1.571,1.5311,1.4887,1.4395,1.3696,1.2834,1.1829,1.1927,1.1707,1.0949,1.11,1.1298,1.149,1.1368,1.1207,1.1027,1.0371,0.9006,0.7014,0.6434,0.4918,0.4726,0.6354,0.7988,0.7988,0.7988,0.7973,0.0,0.7702,0.7556,0.7427,0.7248,0.7164,0.7365,0.7519,0.7695,0.7966,0.8286,0.0,0.0,0.0,0.0,0.0,0.0,0.0,0.0,0.0,0.0,0.0,0.0,0.0,0.0,0.9792,0.9792,0.9792,0.9792,0.9792,0.9792,0.9792,0.9721,0.9612,0.9612,0.9534,0.9407,0.9254,0.9214,0.0,0.0,0.0,0.0,0.8912,0.8912,0.8912,0.8912,0.8912,0.8912,0.8912,0.8912,0.8912,0.8912,0.8912,0.8912,0.8912,0.8912,0.8912,0.8912,0.8912,0.8912,0.8912,0.8912,0.8912,0.8912,0.8912,0.8912,0.8912,0.8912,0.8912,0.8912,0.8912,0.9103,0.9706,1.0515,1.1401,1.2258,1.3141,1.3809,1.4083,1.4132,1.4218,1.4486,1.4512,1.4525,1.4526,1.3675,1.299,1.2659,1.2671,1.2276,1.1267,1.1218,1.1218,1.1194,1.1194,1.1298,1.149,1.149,1.0761,0.9239,0.9693,0.8355,0.5413,0.5082,0.3801,0.4415,0.5686,0.6927,0.7568,0.774,0.7699,0.7546,0.7498,0.7423,0.7222,0.7151,0.7164,0.7365,0.7326,0.7462,0.8099,0.8187,0.0,0.0,0.0,0.0,0.0,0.0,0.0,0.0,0.0,0.0,0.0,0.0,0.0,0.0,0.9792,0.9792,0.9792,0.9697,0.9676,0.9676,0.9574,0.9496,0.9452,0.9452,0.9403,0.925,0.9231,0.0,0.0,0.0,0.0,0.0,0.8912,0.8912,0.8912,0.8912,0.866,0.8325,0.8743,0.8633,0.8353,0.8743,0.8912,0.8912,0.8912,0.8912,0.8912,0.8912,0.8912,0.8912,0.8912,0.8912,0.8912,0.8912,0.8912,0.8912,0.8912,0.8912,0.8912,0.8912,0.8912,0.8968,0.9158,0.9403,0.9805,1.0488,1.0699,1.0918,1.1437,1.2181,1.2709,1.279,1.2795,1.2852,1.3039,1.2033,1.1667,1.254,1.2018,1.1531,1.1218,1.1194,1.1194,1.1194,1.1194,1.112,1.0972,1.0091,0.9492,0.912,0.7633,0.6058,0.4435,0.41,0.3045,0.0,0.5389,0.6434,0.7358,0.76,0.756,0.743,0.7393,0.7348,0.7151,0.7095,0.7148,0.7265,0.7251,0.7417,0.8001,0.8014,0.0,0.0,0.0,0.0,0.0,0.0,0.0,0.0,0.0,0.0,0.0,0.0,0.0,0.0,0.0,0.9656,0.9656,0.9625,0.9581,0.9523,0.9429,0.9379,0.9325,0.9325,0.9247,0.91,0.91,0.0,0.0,0.0,0.0,0.0,0.8885,0.8879,0.8804,0.8637,0.8325,0.8045,0.8436,0.8186,0.7795,0.8353,0.8549,0.8549,0.8549,0.8716,0.8912,0.8912,0.8912,0.8912,0.8912,0.8912,0.8912,0.8912,0.8912,0.8912,0.8912,0.8912,0.8912,0.8912,0.8912,0.8912,0.8912,0.8912,0.902,0.9406,0.9323,0.9351,0.971,1.0378,1.0882,1.0996,1.1019,1.1133,1.1387,1.0682,1.0548,1.142,1.1131,1.0904,1.0904,1.0703,1.0609,1.0609,1.0609,1.0343,0.9817,0.9125,0.8347,0.7473,0.5524,0.4239,0.3603,0.2964,0.2121,0.0,0.5273,0.6297,0.7309,0.7567,0.7529,0.741,0.7379,0.0,0.7148,0.7095,0.7102,0.7125,0.7275,0.7485,0.779,0.7834,0.0,0.0,0.0,0.0,0.0,0.0,0.0,0.0,0.0,0.0,0.0,0.0,0.0,0.0,0.0,0.9403,0.9393,0.9503,0.951,0.9396,0.9383,0.9308,0.9165,0.9165,0.9066,0.8912,0.8912,0.0,0.0,0.0,0.0,0.0,0.8797,0.874,0.8575,0.8115,0.7891,0.7867,0.7931,0.7598,0.721,0.7768,0.7934,0.7934,0.7934,0.8353,0.8826,0.8826,0.8854,0.8912,0.8912,0.8912,0.8912,0.8912,0.8912,0.8912,0.8912,0.8912,0.8912,0.8912,0.8912,0.8912,0.8912,0.8912,0.8912,0.8912,0.8912,0.8912,0.8912,0.8912,0.9023,0.9323,0.9351,0.9461,0.9734,0.9709,0.9668,0.969,1.0108,1.0339,1.0339,0.9871,0.9603,0.9603,0.9525,0.9095,0.8243,0.8315,0.7147,0.4663,0.356,0.2981,0.2878,0.1835,0.1117,0.3407,0.0,0.4942,0.6776,0.7225,0.7215,0.0,0.0,0.0,0.0,0.0,0.7169,0.7425,0.7306,0.7384,0.8083,0.0,0.0,0.0,0.0,0.0,0.0,0.0,0.0,0.0,0.0,0.0,0.0,0.0,0.0,0.0,0.0,0.9356,0.924,0.9271,0.9271,0.9237,0.91,0.8997,0.896,0.896,0.8943,0.8912,0.8912,0.0,0.0,0.0,0.0,0.8649,0.8194,0.7954,0.7885,0.7429,0.6964,0.6622,0.7177,0.7015,0.6596,0.7182,0.7376,0.7376,0.7376,0.7768,0.8214,0.8214,0.8546,0.8912,0.8912,0.8912,0.8912,0.8912,0.8912,0.8912,0.8912,0.8912,0.8912,0.8912,0.8912,0.8912,0.8912,0.8912,0.8912,0.8912,0.8912,0.8912,0.8912,0.8912,0.8937,0.8992,0.9023,0.913,0.9461,0.9445,0.9485,0.969,0.9755,0.9797,0.9797,0.9677,0.9603,0.9603,0.8814,0.8081,0.7466,0.5968,0.459,0.3433,0.3284,0.284,0.2077,0.1759,0.0657,0.3119,0.3923,0.4593,0.6719,0.7248,0.7248,0.0,0.0,0.0,0.0,0.0,0.0,0.7334,0.0,0.0,0.0,0.0,0.0,0.0,0.0,0.0,0.0,0.0,0.0,0.0,0.0,0.0,0.0,0.0,0.0,0.0,0.0,0.914,0.9055,0.9055,0.9055,0.9055,0.895,0.8912,0.8912,0.8912,0.8875,0.8804,0.8804,0.0,0.0,0.0,0.0,0.8111,0.7569,0.729,0.7194,0.6714,0.6334,0.6107,0.654,0.6306,0.5897,0.6553,0.6793,0.6818,0.7099,0.7404,0.7629,0.7629,0.8045,0.8546,0.8826,0.8912,0.8912,0.8912,0.8912,0.8912,0.8912,0.8912,0.8912,0.8912,0.8912,0.8912,0.8912,0.8912,0.8912,0.8912,0.8912,0.8912,0.8912,0.8912,0.8885,0.8814,0.8804,0.8862,0.898,0.8895,0.8906,0.9035,0.8931,0.8981,0.9225,0.9006,0.8634,0.8155,0.7574,0.6772,0.5754,0.4269,0.3369,0.3095,0.2702,0.2239,0.1688,0.0668,-0.0463,0.3011,0.4009,0.4878,0.6859,0.7359,0.7359,0.0,0.0,0.0,0.0,0.0,0.0,0.0,0.0,0.0,0.0,0.0,0.0,0.0,0.0,0.0,0.0,0.0,0.0,0.0,0.0,0.0,0.0,0.0,0.0,0.0,0.0,0.0,0.8912,0.8889,0.8875,0.8875,0.8899,0.8912,0.8912,0.8889,0.8808,0.871,0.8686,0.8551,0.0,0.0,0.0,0.7349,0.6896,0.6635,0.6477,0.602,0.5853,0.5838,0.5728,0.5504,0.5282,0.5907,0.6128,0.6211,0.674,0.6961,0.7047,0.7066,0.7432,0.7989,0.8494,0.8771,0.8912,0.8912,0.8912,0.8912,0.8912,0.8912,0.8912,0.8912,0.8912,0.8912,0.8912,0.8912,0.8912,0.8912,0.8912,0.8912,0.8912,0.8837,0.8777,0.8699,0.8635,0.8571,0.8496,0.8383,0.8243,0.8061,0.7875,0.7885,0.8173,0.7907,0.7213,0.6009,0.5984,0.5284,0.3857,0.3152,0.2851,0.2952,0.2043,0.1437,0.1058,-0.0831,-0.1814,0.332,0.4563,0.5666,0.6847,0.7154,0.7154,0.0,0.0,0.0,0.0,0.0,0.0,0.0,0.0,0.0,0.0,0.0,0.0,0.0,0.0,0.0,0.0,0.0,0.0,0.0,0.0,0.0,0.0,0.0,0.0,0.0,0.0,0.0,0.8912,0.8784,0.872,0.872,0.8845,0.8912,0.8909,0.8781,0.8733,0.8706,0.8577,0.8266,0.0,0.0,0.7259,0.6767,0.6073,0.5775,0.5723,0.5317,0.5147,0.5056,0.4219,0.445,0.522,0.5341,0.5372,0.5372,0.5482,0.5864,0.629,0.6405,0.6849,0.7349,0.7432,0.8159,0.8912,0.8912,0.8912,0.8912,0.8912,0.8912,0.8912,0.8912,0.8912,0.8912,0.8912,0.8912,0.8912,0.8912,0.8912,0.8912,0.8912,0.8613,0.847,0.8686,0.8415,0.8272,0.8486,0.8383,0.7929,0.7021,0.6757,0.6282,0.5475,0.6182,0.5859,0.4105,0.4029,0.3704,0.3001,0.285,0.2497,0.184,0.1689,0.0655,-0.1134,-0.1913,-0.2771,0.3228,0.4444,0.5621,0.6807,0.73,0.0,0.0,0.0,0.0,0.0,0.0,0.0,0.0,0.0,0.0,0.0,0.0,0.0,0.0,0.0,0.0,0.0,0.0,0.0,0.0,0.0,0.0,0.0,0.0,0.0,0.0,0.0,0.0,0.0,0.872,0.8669,0.8587,0.8655,0.8693,0.8693,0.8706,0.8465,0.802,0.7342,0.7016,0.6904,0.0,0.4936,0.5141,0.3939,0.3448,0.3426,0.3229,0.352,0.3989,0.3594,0.3447,0.3498,0.4092,0.4282,0.4288,0.4244,0.4858,0.5505,0.5008,0.5731,0.6707,0.6707,0.7543,0.8408,0.8408,0.866,0.8912,0.8912,0.8912,0.8912,0.8912,0.9047,0.9158,0.9158,0.9158,0.9158,0.9158,0.9023,0.8882,0.8801,0.8649,0.8521,0.8492,0.831,0.8001,0.7428,0.7319,0.6847,0.5774,0.558,0.5327,0.4824,0.4728,0.4354,0.3629,0.3175,0.29,0.2801,0.2371,0.1967,0.1588,0.0151,-0.1058,-0.2065,-0.3172,-0.3952,0.3461,0.4641,0.5794,0.0,0.0,0.0,0.0,0.0,0.0,0.0,0.0,0.0,0.0,0.0,0.0,0.0,0.0,0.0,0.0,0.0,0.0,0.0,0.0,0.0,0.0,0.0,0.0,0.0,0.0,0.0,0.0,0.0,0.0,0.0,0.8625,0.8362,0.7874,0.8141,0.8157,0.7951,0.8001,0.7501,0.6505,0.5595,0.5415,0.5707,0.3391,0.2941,0.3698,0.2217,0.1588,0.1588,0.1588,0.194,0.2498,0.2854,0.235,0.1638,0.2695,0.3066,0.3072,0.303,0.3637,0.4224,0.3427,0.4141,0.5252,0.5252,0.5987,0.6952,0.7792,0.8436,0.8912,0.8912,0.8968,0.9023,0.9023,0.9268,0.9489,0.9406,0.9406,0.9313,0.8996,0.8742,0.8473,0.8138,0.7954,0.7804,0.765,0.7492,0.7047,0.6117,0.6032,0.5579,0.4524,0.42,0.4074,0.415,0.3374,0.3049,0.33,0.2798,0.2497,0.2522,0.1789,0.1159,0.0655,-0.1535,-0.2717,-0.2995,-0.4354,-0.4985,0.4618,0.5855,0.6872,0.0,0.0,0.0,0.0,0.0,0.0,0.0,0.0,0.0,0.0,0.0,0.0,0.0,0.0,0.0,0.0,0.0,0.0,0.0,0.0,0.0,0.0,0.0,0.0,0.0,0.0,0.0,0.0,0.0,0.0,0.0,0.0,0.759,0.6015,0.7035,0.7125,0.6276,0.6098,0.5193,0.3686,0.347,0.367,0.4099,0.2914,0.2715,0.3173,0.2066,0.1588,0.1588,0.1588,0.1033,0.0353,0.1439,0.114,0.0389,0.1452,0.184,0.184,0.1817,0.1869,0.196,0.1921,0.2022,0.2131,0.2131,0.2596,0.3854,0.7149,0.8436,0.8912,0.8912,0.913,0.9351,0.9351,0.9568,0.9706,0.9461,0.9406,0.9027,0.7843,0.7603,0.729,0.6423,0.5768,0.5442,0.5665,0.5097,0.4736,0.4901,0.4924,0.4475,0.3398,0.2396,0.1944,0.2197,0.2122,0.2197,0.2472,0.2674,0.2422,0.1689,0.1133,-0.0126,-0.2114,-0.2816,-0.3646,-0.4634,-0.5258,-0.5536,0.453,0.5853,0.0,0.0,0.0,0.0,0.0,0.0,0.0,0.0,0.0,0.0,0.0,0.0,0.0,0.0,0.0,0.0,0.0,0.0,0.0,0.0,0.0,0.0,0.0,0.0,0.0,0.0,0.0,0.0,0.0,0.0,0.0,0.0,0.0,0.6437,0.5679,0.5122,0.4146,0.2819,0.4501,0.4769,0.3731,0.2343,0.2011,0.2417,0.068,0.0403,0.1134,0.005,-0.0379,-0.0328,0.0353,-0.005,-0.0858,0.0229,-0.0025,-0.0816,0.028,0.0636,0.0637,0.0645,0.1113,0.1585,0.0933,0.1396,0.2121,0.2121,0.2663,0.3606,0.5172,0.5985,0.6558,0.7152,0.7376,0.7401,0.7204,0.7499,0.7744,0.7468,0.7513,0.7446,0.6967,0.6749,0.6473,0.605,0.5766,0.5588,0.5576,0.5308,0.4855,0.4128,0.3299,0.2647,0.2245,0.1995,0.1895,0.1996,0.1996,0.2197,0.2623,0.1788,0.1233,0.1107,-0.0729,-0.2086,-0.2892,-0.4098,-0.4903,-0.5311,-0.5837,-0.6087,0.4975,0.6061,0.0,0.0,0.0,0.0,0.0,0.0,0.0,0.0,0.0,0.0,0.0,0.0,0.0,0.0,0.0,0.0,0.0,0.0,0.0,0.0,0.0,0.0,0.0,0.0,0.0,0.0,0.0,0.0,0.0,0.0,0.0,0.0,0.0,0.4903,0.4091,0.3336,0.2134,0.0579,0.2493,0.3001,0.2189,0.0705,0.0428,0.0983,-0.0808,-0.0984,-0.0076,-0.1161,-0.1592,-0.1516,-0.0782,-0.0959,-0.1515,-0.0782,-0.0959,-0.149,-0.0656,-0.0378,-0.0354,-0.0282,0.0283,0.0773,0.0026,0.0502,0.1292,0.1292,0.171,0.2297,0.2822,0.3859,0.4942,0.5588,0.5929,0.6045,0.5819,0.6285,0.6639,0.6339,0.6412,0.6377,0.6003,0.5789,0.5524,0.5122,0.4979,0.4878,0.474,0.4632,0.423,0.3325,0.2246,0.1592,0.1592,0.1617,0.1515,0.1262,0.1237,0.1489,0.2016,0.0578,-0.0302,-0.0452,-0.2435,-0.3618,-0.3971,-0.5229,-0.5862,-0.5862,-0.6237,-0.6412,0.6207,0.0,0.0,0.0,0.0,0.0,0.0,0.0,0.0,0.0,0.0,0.0,0.0,0.0,0.0,0.0,0.0,0.0,0.0,0.0,0.0,0.0,0.0,0.0,0.0,0.0,0.0,0.0,0.0,0.0,0.0,0.0,0.0,0.0,0.0,0.0,0.083,0.1834,0.1558,-0.0025,-0.0025,-0.0555,-0.1592,-0.1592,-0.1009,-0.0076,-0.1136,-0.1009,-0.0101,-0.1161,-0.1592,-0.1592,-0.1592,-0.1592,-0.1592,-0.1592,-0.1592,-0.1566,-0.1288,-0.1187,-0.1162,-0.0884,-0.0808,-0.0811,-0.0878,-0.0909,-0.0883,-0.0883,-0.0894,-0.069,0.026,0.2475,0.4468,0.4468,0.5072,0.5662,0.5662,0.6335,0.684,0.6519,0.6463,0.6063,0.4878,0.4658,0.4323,0.334,0.2952,0.2801,0.2801,0.2548,0.2396,0.2396,0.1894,0.1566,0.1566,0.1086,0.0429,-0.0353,-0.0428,-0.0201,0.0352,-0.0904,-0.2134,-0.3192,-0.374,-0.4547,-0.5611,-0.6134,-0.6412,-0.6412,-0.6412,-0.6412,0.6094,0.0,0.0,0.0,0.0,0.0,0.0,0.0,0.0,0.0,0.0,0.0,0.0,0.0,0.0,0.0,0.0,0.0,0.0,0.0,0.0,0.0,0.0,0.0,0.0,0.0,0.0,0.0,0.0,0.0,0.0,0.0,0.0,0.0,0.0,0.0,0.0805,0.0,-0.0656,-0.1136,-0.1136,-0.0908,-0.0504,-0.1262,-0.1414,-0.1136,-0.1465,-0.1414,-0.1161,-0.1465,-0.1592,-0.1592,-0.139,-0.1314,-0.1288,-0.1111,-0.1035,-0.1035,-0.0934,-0.0909,-0.0909,-0.0833,-0.0808,-0.0809,-0.0814,-0.0688,-0.056,-0.056,-0.0413,-0.0209,0.0078,0.0742,0.1541,0.2404,0.2771,0.2894,0.2652,0.2958,0.3182,0.2894,0.2966,0.2937,0.2593,0.2515,0.2408,0.2119,0.2017,0.1967,0.1967,0.1716,0.1565,0.1565,0.058,-0.0076,-0.0076,-0.0755,-0.1282,-0.1508,-0.2411,-0.236,-0.1054,-0.2485,-0.3438,-0.3765,-0.5022,-0.5857,-0.6162,-0.6312,-0.6412,-0.6412,-0.7179,-0.7528,0.0,0.0,0.0,0.0,0.0,0.0,0.0,0.0,0.0,0.0,0.0,0.0,0.0,0.0,0.0,0.0,0.0,0.0,0.0,0.0,0.0,0.0,0.0,0.0,0.0,0.0,0.0,0.0,0.0,0.0,0.0,0.0,0.0,0.0,0.0,0.0,-0.0151,-0.111,-0.1592,-0.1592,-0.1592,-0.1262,-0.0656,-0.1313,-0.1592,-0.1592,-0.1592,-0.1592,-0.1592,-0.1592,-0.1541,-0.1415,-0.1263,-0.1136,-0.101,-0.0859,-0.0808,-0.0783,-0.0682,-0.0631,-0.0631,-0.0505,-0.048,-0.048,-0.048,-0.0379,-0.0253,-0.0253,-0.0127,0.0,0.0,0.0,0.0183,0.0903,0.1246,0.1344,0.1134,0.1403,0.1615,0.1461,0.1524,0.1588,0.1588,0.1588,0.1588,0.1588,0.1588,0.1588,0.1588,0.1084,0.0731,0.0731,-0.0579,-0.1434,-0.1434,-0.2087,-0.2665,-0.309,-0.3869,-0.4069,-0.3538,-0.4443,-0.4947,-0.4947,-0.5807,-0.6239,-0.6239,-0.6562,-0.6711,-0.6736,-0.7826,-0.8372,0.0,0.0,0.0,0.0,0.0,0.0,0.0,0.0,0.0,0.0,0.0,0.0,0.0,0.0,0.0,0.0,0.0,0.0,0.0,0.0,0.0,0.0,0.0,0.0,0.0,0.0,0.0,0.0,0.0,0.0,0.0,0.0,0.0,0.0,0.0,0.0,-0.1592,-0.1592,-0.1592,0.0,-0.1592,-0.1592,-0.1566,-0.1592,-0.1592,-0.1592,-0.1566,-0.1566,-0.1566,-0.1541,-0.139,-0.1162,-0.1136,-0.0985,-0.0758,-0.0732,-0.0732,-0.0682,-0.0455,-0.0354,-0.0328,-0.0076,0.0,0.0,0.0,0.0,0.0,0.0,0.0,-0.0025,-0.0126,-0.0151,-0.0153,-0.0158,0.0288,0.0725,0.0725,0.1098,0.1462,0.1462,0.1462,0.1462,0.1462,0.1462,0.1412,0.131,0.131,0.1285,0.1184,0.0302,-0.0302,-0.0302,-0.1683,-0.2612,-0.2612,-0.3144,-0.3902,-0.4885,-0.4935,-0.5386,-0.6362,-0.6412,-0.6412,-0.6412,-0.6139,-0.6042,-0.6142,-0.6864,-0.7263,-0.7363,-0.8453,-0.9069,0.0,0.0,0.0,0.0,0.0,0.0,0.0,0.0,0.0,0.0,0.0,0.0,0.0,0.0,0.0,0.0,0.0,0.0,0.0,0.0,0.0,0.0,0.0,0.0,0.0,0.0,0.0,0.0,0.0,0.0,0.0,0.0,0.0,0.0,0.0,-0.1491,-0.1592,-0.1592,-0.1592,0.0,-0.1592,-0.1491,-0.1288,-0.1516,-0.1592,-0.1592,-0.139,-0.1288,-0.1263,-0.1061,-0.0934,-0.0859,-0.0657,-0.053,-0.0455,-0.0253,-0.0177,-0.0152,-0.0101,-0.0076,-0.0076,-0.0025,0.0,0.0,0.0,0.0,0.0,0.0,0.0,-0.0202,-0.1034,-0.1261,-0.1263,-0.1248,-0.0535,0.0178,0.0178,0.0253,0.0353,0.0353,0.0353,0.0353,0.0353,0.0353,0.005,-0.0781,-0.0907,-0.1209,-0.2064,-0.2366,-0.2517,-0.2517,-0.3572,-0.4277,-0.4277,-0.5156,-0.5809,-0.6034,-0.6059,-0.6162,-0.6387,-0.6412,-0.6412,-0.6412,-0.6139,-0.6414,-0.7257,-0.721,-0.7633,-0.8478,-0.9567,-1.0088,0.0,0.0,0.0,0.0,0.0,0.0,0.0,0.0,0.0,0.0,0.0,0.0,0.0,0.0,0.0,0.0,0.0,0.0,0.0,0.0,0.0,0.0,0.0,0.0,0.0,0.0,0.0,0.0,0.0,0.0,0.0,0.0,0.0,0.0,-0.1465,-0.1592,-0.1592,-0.212,-0.2371,-0.2371,-0.2748,-0.2798,-0.2497,-0.1615,-0.1212,-0.1212,-0.1061,-0.1162,-0.139,-0.1237,-0.1262,-0.1363,-0.1211,-0.1412,-0.1637,-0.0707,-0.1034,-0.1812,-0.1034,-0.111,-0.1538,-0.1538,-0.1538,-0.1538,-0.1538,-0.1538,-0.1538,-0.1538,-0.1538,-0.1664,-0.2217,-0.2368,-0.2368,-0.2368,-0.194,-0.1387,-0.0883,-0.116,-0.1538,-0.1538,-0.1538,-0.1538,-0.1538,-0.1538,-0.1714,-0.2293,-0.2368,-0.2569,-0.3123,-0.3651,-0.3977,-0.3977,-0.4933,-0.5559,-0.5559,-0.6087,-0.6412,-0.6412,-0.6412,-0.6412,-0.6412,-0.6412,-0.6337,-0.6214,-0.6439,-0.6786,-0.7229,-0.7975,-0.8768,-0.9583,-1.0674,-1.1365,0.0,0.0,0.0,0.0,0.0,0.0,0.0,0.0,0.0,0.0,0.0,0.0,0.0,0.0,0.0,0.0,0.0,0.0,0.0,0.0,0.0,0.0,0.0,0.0,0.0,0.0,0.0,0.0,0.0,0.0,0.0,0.0,-0.1237,-0.1869,-0.1869,-0.1969,-0.2145,-0.3022,-0.3473,-0.3473,-0.4051,-0.418,-0.3882,-0.2142,-0.1362,-0.1363,-0.1413,-0.1665,-0.2094,-0.2144,-0.2294,-0.2493,-0.2493,-0.2893,-0.3317,-0.199,-0.2616,-0.3941,-0.2616,-0.2668,-0.3348,-0.3348,-0.3272,-0.3198,-0.3198,-0.3198,-0.3198,-0.3198,-0.3198,-0.3249,-0.3425,-0.3475,-0.3475,-0.3475,-0.3626,-0.3398,-0.2142,-0.2569,-0.3198,-0.3198,-0.3198,-0.3198,-0.3198,-0.3198,-0.3274,-0.345,-0.3475,-0.355,-0.3725,-0.4531,-0.5085,-0.5085,-0.5862,-0.6412,-0.6412,-0.6412,-0.6412,-0.6412,-0.6412,-0.6412,-0.6412,-0.6537,-0.6487,-0.6214,-0.6864,-0.7307,-0.7496,-0.9011,-1.0096,-1.0832,-1.1727,-1.2467,0.0,0.0,0.0,0.0,0.0,0.0,0.0,0.0,0.0,0.0,0.0,0.0,0.0,0.0,0.0,0.0,0.0,0.0,0.0,0.0,0.0,0.0,0.0,0.0,0.0,0.0,0.0,0.0,0.0,0.0,0.0,-0.1212,-0.1943,-0.2948,-0.2998,-0.3423,-0.4373,-0.4524,-0.4574,-0.4574,-0.4225,-0.3902,-0.3654,-0.3594,-0.3571,-0.3578,-0.3822,-0.3969,-0.4046,-0.4268,-0.4391,-0.4414,-0.4414,-0.4489,-0.4564,-0.4341,-0.4439,-0.4664,-0.4439,-0.4166,-0.3892,-0.3892,-0.3571,-0.3198,-0.3198,-0.3198,-0.3198,-0.3198,-0.3198,-0.3425,-0.4356,-0.4582,-0.4582,-0.4582,-0.5309,-0.5432,-0.3423,-0.3098,-0.3198,-0.3198,-0.3198,-0.3198,-0.3198,-0.3198,-0.3525,-0.4456,-0.4582,-0.4933,-0.5859,-0.6109,-0.6187,-0.6187,-0.6312,-0.6412,-0.6412,-0.6412,-0.6412,-0.6412,-0.6412,-0.6412,-0.6412,-0.7058,-0.731,-0.7039,-0.7138,-0.8223,-1.0264,-1.0288,-1.1057,-1.2492,-1.2638,-1.2764,0.0,0.0,0.0,0.0,0.0,0.0,0.0,0.0,0.0,0.0,0.0,0.0,0.0,0.0,0.0,0.0,0.0,0.0,0.0,0.0,0.0,0.0,0.0,0.0,0.0,0.0,0.0,0.0,0.0,0.0,-0.0808,-0.1867,-0.2722,-0.3173,-0.3626,-0.4176,-0.4799,-0.525,-0.5854,-0.6581,-0.6501,-0.6329,-0.6057,-0.6176,-0.5425,-0.4022,-0.4445,-0.4793,-0.507,-0.5195,-0.5418,-0.5692,-0.5692,-0.6066,-0.6492,-0.5592,-0.6016,-0.6915,-0.6016,-0.5947,-0.6249,-0.6249,-0.6077,-0.5879,-0.5879,-0.5879,-0.5879,-0.5879,-0.5879,-0.6004,-0.6459,-0.6484,-0.6359,-0.6359,-0.6609,-0.6587,-0.5657,-0.5206,-0.5004,-0.5004,-0.5004,-0.5004,-0.5004,-0.5004,-0.5156,-0.5634,-0.5687,-0.5862,-0.6337,-0.6412,-0.6412,-0.6412,-0.6412,-0.6412,-0.6412,-0.6412,-0.6412,-0.6412,-0.6955,-0.7353,-0.7524,-0.8442,-0.918,-0.9645,-0.9378,-0.9674,-1.0587,-1.1351,-1.2238,-1.3201,-1.3201,-1.334,0.0,0.0,0.0,0.0,0.0,0.0,0.0,0.0,0.0,0.0,0.0,0.0,0.0,0.0,0.0,0.0,0.0,0.0,0.0,0.0,0.0,0.0,0.0,0.0,0.0,0.0,0.0,0.0,0.0,0.0,-0.1287,-0.237,-0.3249,-0.3802,-0.4404,-0.4929,-0.5402,-0.6129,-0.7015,-0.8054,-0.829,-0.8262,-0.8013,-0.8137,-0.7098,-0.5241,-0.564,-0.6041,-0.6423,-0.6573,-0.6847,-0.7223,-0.7223,-0.7698,-0.8273,-0.7049,-0.7624,-0.8825,-0.7624,-0.7652,-0.8212,-0.8212,-0.8113,-0.7988,-0.7988,-0.7988,-0.7988,-0.7988,-0.7963,-0.7885,-0.7885,-0.7708,-0.7509,-0.7509,-0.7335,-0.7213,-0.7285,-0.6986,-0.6736,-0.6786,-0.6811,-0.6811,-0.6811,-0.6811,-0.6811,-0.6811,-0.6811,-0.6811,-0.6811,-0.6811,-0.6811,-0.6811,-0.6811,-0.6908,-0.7201,-0.7226,-0.7297,-0.7496,-0.8262,-0.8782,-0.8901,-0.987,-1.0779,-1.1585,-1.1541,-1.1395,-1.1199,-1.2389,-1.3225,-1.3702,-1.3702,-1.3919,0.0,0.0,0.0,0.0,0.0,0.0,0.0,0.0,0.0,0.0,0.0,0.0,0.0,0.0,0.0,0.0,0.0,0.0,0.0,0.0,0.0,0.0,0.0,0.0,0.0,0.0,0.0,0.0,0.0,0.0,-0.2649,-0.2522,-0.3376,-0.5409,-0.5509,-0.6034,-0.7061,-0.7612,-0.7988,-0.8184,-0.8336,-0.8262,-0.8017,-0.8531,-0.8676,-0.8549,-0.8574,-0.8598,-0.8676,-0.9175,-0.9402,-0.9426,-0.9426,-0.9476,-0.9501,-0.9426,-0.9451,-0.9554,-0.9451,-0.9126,-0.8751,-0.8751,-0.8407,-0.7988,-0.7988,-0.7988,-0.7988,-0.7988,-0.7811,-0.763,-0.763,-0.7434,-0.721,-0.721,-0.7213,-0.726,-0.7531,-0.7556,-0.7609,-0.7864,-0.7914,-0.7914,-0.7914,-0.7914,-0.7914,-0.7914,-0.7914,-0.7914,-0.7914,-0.7914,-0.7914,-0.7914,-0.7914,-0.8326,-0.9341,-0.944,-0.976,-1.0511,-1.0609,-1.0536,-1.032,-1.1087,-1.1536,-1.1609,-1.2748,-1.334,-1.3346,-1.3418,-1.3727,-1.425,-1.425,-1.4274,0.0,0.0,0.0,0.0,0.0,0.0,0.0,0.0,0.0,0.0,0.0,0.0,0.0,0.0,0.0,0.0,0.0,0.0,0.0,0.0,0.0,0.0,0.0,0.0,0.0,0.0,0.0,0.0,0.0,0.0,-0.2522,-0.3753,-0.4805,-0.5584,-0.6089,-0.6677,-0.7333,-0.8209,-0.867,-0.8707,-0.9024,-0.913,-0.9034,-0.9229,-0.9303,-0.9303,-0.9303,-0.9303,-0.9327,-0.9529,-0.9603,-0.9603,-0.9603,-0.9603,-0.9603,-0.9603,-0.9603,-0.9603,-0.9603,-0.948,-0.9278,-0.9105,-0.8931,-0.8762,-0.8762,-0.8762,-0.8762,-0.8762,-0.8708,-0.8581,-0.8428,-0.818,-0.796,-0.796,-0.8106,-0.8304,-0.856,-0.8209,-0.7885,-0.7988,-0.7988,-0.7988,-0.7988,-0.7988,-0.7988,-0.7988,-0.7988,-0.8258,-0.8937,-0.9032,-0.9275,-0.9932,-0.9887,-0.996,-1.0344,-1.0222,-1.0246,-1.054,-1.118,-1.1599,-1.1624,-1.2568,-1.316,-1.3318,-1.3793,-1.3847,-1.3491,-1.3847,-1.4106,-1.4298,-1.4298,-1.4298,0.0,0.0,0.0,0.0,0.0,0.0,0.0,0.0,0.0,0.0,0.0,0.0,0.0,0.0,0.0,0.0,0.0,0.0,0.0,0.0,0.0,0.0,0.0,0.0,0.0,0.0,0.0,0.0,0.0,0.0,-0.3327,-0.4607,-0.5484,-0.5862,-0.6526,-0.7039,-0.7431,-0.8313,-0.8862,-0.9033,-0.9377,-0.9543,-0.9603,-0.9603,-0.9603,-0.9603,-0.9603,-0.9603,-0.9603,-0.9603,-0.9603,-0.9603,-0.9603,-0.9603,-0.9603,-0.9603,-0.9554,-0.9455,-0.9455,-0.9402,-0.9303,-0.913,-0.9055,-0.9055,-0.9055,-0.9055,-0.9055,-0.9055,-0.901,-0.8907,-0.8825,-0.8676,-0.8531,-0.8531,-0.873,-0.8981,-0.9158,-0.8786,-0.8439,-0.851,-0.8535,-0.8535,-0.8535,-0.8829,-0.9069,-0.9069,-0.9361,-0.9821,-1.0545,-1.0569,-1.076,-1.1419,-1.1327,-1.1331,-1.1692,-1.1546,-1.157,-1.1838,-1.2509,-1.2931,-1.2974,-1.3673,-1.4112,-1.4298,-1.4298,-1.4106,-1.3775,-1.4136,-1.4298,-1.4298,-1.4298,-1.4298,0.0,0.0,0.0,0.0,0.0,0.0,0.0,0.0,0.0,0.0,0.0,0.0,0.0,0.0,0.0,0.0,0.0,0.0,0.0,0.0,0.0,0.0,0.0,0.0,0.0,0.0,0.0,0.0,0.0,-0.4106,-0.514,-0.4962,-0.5334,-0.6381,-0.6813,-0.7167,-0.752,-0.8056,-0.8574,-0.91,-0.9303,-0.9478,-0.9603,-0.9603,-0.9603,-0.9603,-0.9603,-0.9603,-0.9603,-0.9603,-0.9603,-0.9603,-0.9603,-0.9603,-0.9603,-0.9603,-0.943,-0.9212,-0.9187,-0.9031,-0.88,-0.88,-0.88,-0.88,-0.88,-0.88,-0.88,-0.88,-0.8602,-0.8457,-0.8726,-0.88,-0.88,-0.88,-0.9006,-0.9212,-0.9212,-0.9212,-0.9286,-0.9554,-0.9603,-0.9603,-0.9653,-1.0498,-1.1219,-1.1243,-1.2072,-1.2708,-1.2727,-1.2509,-1.2363,-1.2387,-1.2209,-1.2481,-1.3438,-1.3535,-1.3854,-1.464,-1.4688,-1.4568,-1.4322,-1.4298,-1.4298,-1.4298,-1.4298,-1.4298,-1.4298,-1.4298,-1.4298,-1.4298,-1.4298,-1.4298,0.6144,0.0,0.0,0.0,0.0,0.0,0.0,0.0,0.0,0.0,0.0,0.0,0.0,0.0,0.0,0.0,0.0,0.0,0.0,0.0,0.0,0.0,0.0,0.0,0.0,0.0,0.0,0.0,-0.4234,-0.4811,-0.4912,-0.5586,-0.6225,-0.6807,-0.7185,-0.7517,-0.7851,-0.854,-0.8956,-0.91,-0.9405,-0.9555,-0.9603,-0.9603,-0.9603,-0.9603,-0.9603,-0.9603,-0.9603,-0.9603,-0.9603,-0.9603,-0.9603,-0.9603,-0.9579,-0.9381,-0.9257,-0.9158,-0.8977,-0.885,-0.8775,-0.8581,-0.8503,-0.8503,-0.8503,-0.8503,-0.8503,-0.8503,-0.8457,-0.8407,-0.8482,-0.8808,-0.9084,-0.9084,-0.9307,-0.948,-0.948,-0.948,-0.9505,-0.9579,-0.9603,-0.9846,-1.0616,-1.1003,-1.1439,-1.2169,-1.2509,-1.2901,-1.3487,-1.3487,-1.3685,-1.4274,-1.4106,-1.4058,-1.4346,-1.4202,-1.4172,-1.4394,-1.4418,-1.437,-1.4298,-1.4298,-1.4298,-1.4298,-1.4298,-1.4298,-1.4298,-1.4298,-1.4298,-1.4298,-1.4298,-1.4298,0.0,0.0,0.0,0.0,0.0,0.0,0.0,0.0,0.0,0.0,0.0,0.0,0.0,0.0,0.0,0.0,0.0,0.0,0.0,0.0,0.0,0.0,0.0,0.0,0.0,0.0,0.0,0.0,-0.516,-0.5639,-0.5486,-0.6262,-0.6829,-0.7079,-0.7559,-0.7959,-0.826,-0.8681,-0.901,-0.9229,-0.934,-0.9458,-0.9603,-0.9603,-0.9529,-0.943,-0.943,-0.9377,-0.9274,-0.9274,-0.9327,-0.943,-0.943,-0.9352,-0.9253,-0.908,-0.8956,-0.8832,-0.868,-0.8552,-0.8432,-0.8283,-0.8233,-0.8233,-0.8233,-0.8233,-0.8262,-0.8357,-0.8556,-0.8733,-0.8733,-0.9059,-0.9356,-0.9356,-0.948,-0.9603,-0.9603,-0.9603,-0.9603,-0.9603,-0.9965,-1.0473,-1.1097,-1.1926,-1.2684,-1.327,-1.3655,-1.404,-1.4508,-1.4364,-1.4418,-1.4885,-1.4688,-1.4544,-1.4544,-1.4394,-1.4298,-1.4298,-1.4298,-1.4298,-1.4298,-1.4298,-1.4298,-1.4298,-1.4298,-1.4298,-1.4298,-1.4298,-1.4298,-1.4298,-1.4298,-1.4298,0.0,0.0,0.0,0.0,0.0,0.0,0.0,0.6147,0.0,0.0,0.0,0.0,0.0,0.0,0.0,0.0,0.0,0.0,0.0,0.0,0.0,0.0,0.0,0.0,0.0,0.0,-0.4207,-0.5265,-0.5989,-0.6437,-0.6487,-0.6936,-0.7248,-0.7319,-0.7965,-0.8393,-0.8604,-0.864,-0.8883,-0.9324,-0.9186,-0.9324,-0.9677,-0.9677,-0.9628,-0.955,-0.955,-0.9422,-0.9242,-0.9192,-0.9171,-0.9158,-0.9158,-0.9006,-0.88,-0.8775,-0.8602,-0.8407,-0.8357,-0.8212,-0.7988,-0.7988,-0.7988,-0.8013,-0.8038,-0.8038,-0.8113,-0.8357,-0.8808,-0.9212,-0.9212,-0.9406,-0.9603,-0.9603,-0.9603,-0.9628,-0.9747,-0.9772,-0.9821,-0.992,-1.0616,-1.1268,-1.1487,-1.3076,-1.4346,-1.4442,-1.5064,-1.5493,-1.5445,-1.5022,-1.4688,-1.4664,-1.4442,-1.4298,-1.4298,-1.4298,-1.4298,-1.4298,-1.4298,-1.4298,-1.4298,-1.4298,-1.4298,-1.4298,-1.4298,-1.4298,-1.4298,-1.4298,-1.4298,-1.4298,-1.4298,-1.4298,0.0,0.0,0.6457,0.0,0.0,0.0,0.0,0.4813,0.0,0.0,0.0,0.0,0.0,0.0,0.0,0.0,0.0,0.0,0.0,0.0,0.0,0.0,0.0,0.0,0.0,0.0,-0.5238,-0.6112,-0.6312,-0.6587,-0.7011,-0.7138,-0.7481,-0.8062,-0.8229,-0.8394,-0.8588,-0.8856,-0.895,-0.8832,-0.9063,-0.9559,-1.024,-1.024,-1.0772,-1.1712,-1.1712,-1.178,-1.1926,-1.1702,-1.0534,-0.8878,-0.8878,-0.885,-0.8775,-0.8552,-0.8457,-0.8357,-0.8162,-0.8038,-0.7988,-0.7988,-0.7988,-0.8038,-0.8262,-0.8333,-0.8382,-0.8651,-0.8956,-0.9212,-0.9212,-0.9406,-0.9603,-0.9603,-0.9603,-0.9846,-1.069,-1.0886,-1.1126,-1.1931,-1.1614,-1.1731,-1.3414,-1.4028,-1.4562,-1.5397,-1.5493,-1.5428,-1.5202,-1.4909,-1.4616,-1.4394,-1.4322,-1.4298,-1.4298,-1.4298,-1.4298,-1.4298,-1.4298,-1.4298,-1.4298,-1.4298,-1.4298,-1.4298,-1.4298,-1.4298,-1.4298,-1.4298,-1.4298,-1.4298,-1.4298,-1.4298,0.0,0.0,0.5108,0.4911,0.0,0.0,0.0,0.0,0.0,0.0,0.0,0.0,0.0,0.0,0.0,0.0,0.0,0.0,0.0,0.0,0.0,0.0,0.0,0.0,0.0,0.0,-0.5386,-0.6337,-0.6412,-0.6637,-0.716,-0.7462,-0.7807,-0.8226,-0.8507,-0.8835,-0.919,-0.9502,-0.9896,-1.0336,-1.0551,-1.0891,-1.1351,-1.1351,-1.1639,-1.2169,-1.2266,-1.229,-1.229,-1.2169,-1.1341,-1.0194,-1.0194,-1.0121,-0.9973,-0.9854,-0.9801,-0.978,-0.9632,-0.9682,-0.9706,-0.9167,-0.9435,-0.9875,-0.9509,-0.978,-1.0243,-1.0485,-1.0636,-1.0788,-1.091,-1.1057,-1.1155,-1.1155,-1.1155,-1.1302,-1.1828,-1.195,-1.2266,-1.3294,-1.31,-1.3076,-1.4124,-1.4729,-1.5231,-1.5713,-1.5499,-1.5244,-1.5131,-1.4742,-1.4442,-1.4322,-1.4298,-1.4298,-1.4298,-1.4298,-1.4298,-1.4298,-1.4298,-1.4298,-1.4298,-1.4298,-1.4298,-1.4298,-1.4298,-1.4298,-1.4298,-1.4298,-1.4298,-1.4298,-1.4298,-1.4298,0.0,0.0,0.0,0.0,0.0,0.3574,0.0,0.0,0.0,0.0,0.0,0.0,0.0,0.0,0.0,0.0,0.0,0.0,0.0,0.0,0.0,0.0,0.0,0.0,0.0,0.0,-0.549,-0.6484,-0.6539,-0.681,-0.7484,-0.7861,-0.8262,-0.8627,-0.896,-0.9447,-1.0107,-1.0306,-1.0893,-1.1868,-1.1962,-1.2119,-1.2387,-1.2387,-1.2465,-1.2611,-1.278,-1.2775,-1.2649,-1.26,-1.246,-1.2223,-1.178,-1.1439,-1.1219,-1.1272,-1.1268,-1.1268,-1.1317,-1.1487,-1.1512,-1.0656,-1.1097,-1.1823,-1.0999,-1.1414,-1.2174,-1.2339,-1.2387,-1.2436,-1.263,-1.2702,-1.2702,-1.2702,-1.2654,-1.2678,-1.295,-1.2926,-1.3191,-1.4316,-1.449,-1.4466,-1.4514,-1.5207,-1.5713,-1.5666,-1.5291,-1.5011,-1.5011,-1.4592,-1.4298,-1.4298,-1.4298,-1.4298,-1.4298,-1.4298,-1.4298,-1.4298,-1.4298,-1.4298,-1.4298,-1.4298,-1.4298,-1.4298,-1.4298,-1.4298,-1.4298,-1.4298,-1.4298,-1.4298,-1.4298,-1.4298,0.0,0.0,0.0,0.0,0.3322,0.0,0.0,0.0,0.0,0.0,0.0,0.0,0.0,0.0,0.0,0.0,0.0,0.0,0.0,0.0,0.0,0.0,0.0,0.0,0.0,0.0,0.0,-0.7055,-0.7051,-0.7501,-0.8566,-0.8453,-0.8943,-1.021,-0.9829,-1.012,-1.1201,-1.1183,-1.1252,-1.1376,-1.1559,-1.2003,-1.2654,-1.2654,-1.3414,-1.4742,-1.4766,-1.4992,-1.5343,-1.5153,-1.4944,-1.4496,-1.2417,-1.1439,-1.1219,-1.1463,-1.156,-1.1585,-1.1755,-1.1853,-1.1853,-1.1731,-1.1945,-1.2242,-1.212,-1.2339,-1.263,-1.2654,-1.2654,-1.2654,-1.2678,-1.2702,-1.2702,-1.2702,-1.2509,-1.2684,-1.3854,-1.3733,-1.38,-1.5105,-1.5166,-1.5077,-1.5326,-1.5469,-1.5452,-1.5226,-1.4933,-1.4742,-1.4742,-1.449,-1.4298,-1.4298,-1.4298,-1.4298,-1.4298,-1.4298,-1.4298,-1.4298,-1.4298,-1.4298,-1.4298,-1.4298,-1.4298,-1.4298,-1.4298,-1.4298,-1.4298,-1.4298,-1.4298,-1.4298,-1.4298,-1.4298,0.0,0.0,0.0,0.0,0.0,0.0,0.0,0.0,0.0998,0.0,0.0,0.0,0.0,0.0,0.0,0.0,0.0,0.0,0.0,0.0,0.0,0.0,0.0,0.0,0.0,0.0,0.0,0.0,0.0,-0.7531,-0.852,-0.8457,-0.8922,-1.0047,-0.9798,-1.0351,-1.1793,-1.2005,-1.2407,-1.3034,-1.3277,-1.3565,-1.3854,-1.3854,-1.4226,-1.4885,-1.5035,-1.5202,-1.5387,-1.5291,-1.5196,-1.5011,-1.4028,-1.3366,-1.3028,-1.3294,-1.3396,-1.342,-1.3661,-1.3872,-1.3986,-1.3986,-1.365,-1.3318,-1.3781,-1.3878,-1.3878,-1.4052,-1.398,-1.3902,-1.4052,-1.41,-1.41,-1.41,-1.4004,-1.4076,-1.464,-1.4592,-1.4592,-1.5172,-1.5172,-1.5077,-1.5046,-1.5166,-1.522,-1.5131,-1.4861,-1.4688,-1.4688,-1.4472,-1.4298,-1.4298,-1.4298,-1.4298,-1.4298,-1.4298,-1.4298,-1.4298,-1.4298,-1.4298,-1.4298,-1.4298,-1.4298,-1.4298,-1.4298,-1.4298,-1.4298,-1.4298,-1.4298,-1.4298,-1.4298,-1.4298,0.0,0.0,0.0,0.0,0.0,0.0,0.0,0.0,0.0,0.0,0.0,0.0,0.0,0.0,0.0,0.0,0.0,0.0,0.0,0.0,0.0,0.0,0.0,0.0,0.0,0.0,0.0,0.0,0.0,0.0,-0.8574,-0.8751,-0.9285,-1.027,-1.0323,-1.1099,-1.2685,-1.2919,-1.3461,-1.4303,-1.45,-1.4592,-1.4592,-1.4592,-1.464,-1.4718,-1.4909,-1.5035,-1.5107,-1.5107,-1.5059,-1.4987,-1.4987,-1.4718,-1.4346,-1.4688,-1.476,-1.4742,-1.5011,-1.522,-1.538,-1.538,-1.4849,-1.4346,-1.4909,-1.4957,-1.4861,-1.5059,-1.4963,-1.4861,-1.5059,-1.5107,-1.5107,-1.5107,-1.5035,-1.5011,-1.5083,-1.4987,-1.4909,-1.4987,-1.4933,-1.4814,-1.4616,-1.4814,-1.4957,-1.4885,-1.4718,-1.4592,-1.4592,-1.4418,-1.4298,-1.4298,-1.4298,-1.4298,-1.4298,-1.4298,-1.4298,-1.4298,-1.4298,-1.4298,-1.4298,-1.4298,-1.4298,-1.4298,-1.4298,-1.4298,-1.4298,-1.4298,-1.4298,-1.4298,-1.4298,-1.4298,0.0,0.0,0.0,0.0,0.0,0.0,0.0,0.0,0.0793,0.0,0.0,0.0,0.0,0.0,0.0,0.0,0.0,0.0,0.0,0.0,0.0,0.0,0.0,0.0,0.0,0.0,0.0,0.0,0.0,0.0,-0.9143,-0.9665,-1.0435,-1.1502,-1.1971,-1.2869,-1.422,-1.3979,-1.4009,-1.431,-1.4316,-1.4322,-1.4322,-1.4322,-1.4442,-1.4688,-1.4718,-1.4861,-1.5107,-1.5107,-1.4963,-1.4718,-1.4718,-1.4544,-1.437,-1.4885,-1.4909,-1.4742,-1.5011,-1.5107,-1.5107,-1.5107,-1.5083,-1.5059,-1.5083,-1.5083,-1.5083,-1.5107,-1.5083,-1.5083,-1.5107,-1.5107,-1.5107,-1.5107,-1.4909,-1.479,-1.5035,-1.4688,-1.4394,-1.4664,-1.4496,-1.4322,-1.4322,-1.4544,-1.4616,-1.437,-1.4322,-1.4322,-1.4322,-1.4322,-1.4298,-1.4298,-1.4298,-1.4298,-1.4298,-1.4298,-1.4298,-1.4298,-1.4298,-1.4298,-1.4298,-1.4298,-1.4298,-1.4298,-1.4298,-1.4298,-1.4298,-1.4298,-1.4298,-1.4298,-1.4298,-1.4298,0.0,0.0,0.2396,0.1875,0.0,0.0,0.0,0.0,0.0,0.0,0.0,0.0,0.0,0.0,0.0,0.0,0.0,0.0,0.0,0.0,0.0,0.0,0.0,0.0,0.0,0.0,0.0,0.0,0.0,0.0,0.0,-0.9903,-1.073,-1.229,-1.2316,-1.2952,-1.4292,-1.4039,-1.4039,-1.4298,-1.4298,-1.4298,-1.4298,-1.4298,-1.4346,-1.4448,-1.4448,-1.449,-1.4568,-1.4568,-1.4616,-1.4688,-1.4496,-1.437,-1.4346,-1.4688,-1.4664,-1.4472,-1.4742,-1.4963,-1.5059,-1.4885,-1.4838,-1.4814,-1.4616,-1.4568,-1.4568,-1.4568,-1.4568,-1.4568,-1.4568,-1.4568,-1.4568,-1.4568,-1.4496,-1.4466,-1.4544,-1.4418,-1.4322,-1.4418,-1.437,-1.4298,-1.4298,-1.437,-1.4394,-1.4322,-1.4298,-1.4298,-1.4298,-1.4298,-1.4298,-1.4298,-1.4298,-1.4298,-1.4298,-1.4298,-1.4298,-1.4298,-1.4298,-1.4298,-1.4298,-1.4298,-1.4298,-1.4298,-1.4298,-1.4298,-1.4298,-1.4298,-1.4298,-1.4298,-1.4298,-1.4298,0.2255,0.2373,0.0,0.1886,0.1861,0.0,0.0,0.0,0.0,0.0,0.0,0.0,0.0,0.0,0.0,0.0,0.0,0.0,0.0,0.0,0.0,0.0,0.0,0.0,0.0,0.0,-0.6741,-0.7528,0.0,0.0,0.0,0.0,-1.1482,-1.2654,-1.2898,-1.3422,-1.4298,-1.4129,-1.4129,-1.4298,-1.4298,-1.4298,-1.4298,-1.4298,-1.4298,-1.4298,-1.4298,-1.4298,-1.4298,-1.4298,-1.4394,-1.4544,-1.437,-1.4298,-1.4322,-1.4394,-1.4298,-1.4208,-1.4472,-1.4664,-1.479,-1.4616,-1.4568,-1.4544,-1.4346,-1.4298,-1.4298,-1.4298,-1.4298,-1.4298,-1.4298,-1.4298,-1.4298,-1.4298,-1.4298,-1.4298,-1.4298,-1.4298,-1.4298,-1.4298,-1.4298,-1.4298,-1.4298,-1.4298,-1.4298,-1.4298,-1.4298,-1.4298,-1.4298,-1.4298,-1.4298,-1.4298,-1.4298,-1.4298,-1.4298,-1.4298,-1.4298,-1.4298,-1.4298,-1.4298,-1.4298,-1.4298,-1.4298,-1.4298,-1.4298,-1.4298,-1.4298,-1.4298,-1.4298,-1.4298,-1.4298,-1.4298]},{"header":{"parameterUnit":"m.s-1","parameterCategory":1,"la1":30.6,"la2":29.2853,"lo1":-89.7004,"lo2":-87.6739,"dy":0.0162,"dx":0.0183,"nx":112,"ny":82,"refTime":"2025-01-22T06:00:00:Z","depth":0,"parameterNumber":3,"parameterNumberName":"V-component_of_WINDS"},"data":[0.0,0.0,0.0,0.0,0.0,0.0,0.0,0.0,0.0,0.0,0.0,0.0,0.0,0.0,0.0,0.0,0.0,0.0,0.0,0.0,0.0,0.0,0.0,0.0,0.0,0.0,0.0,0.0,0.0,0.0,0.0,0.0,0.0,0.0,0.0,0.0,0.0,0.0,0.0,0.0,0.0,0.0,0.0,0.0,0.0,0.0,0.0,0.0,0.0,0.0,0.0,0.0,0.0,0.0,0.0,0.0,0.0,0.0,0.0,0.0,0.0,0.0,0.0,0.0,0.0,0.0,0.0,0.0,0.0,0.0,0.0,0.0,0.0,0.0,0.0,0.0,0.0,0.0,0.0,0.0,0.0,0.0,0.0,0.0,0.0,0.0,0.0,0.0,0.0,0.0,0.0,2.5347,2.5069,2.4935,2.5003,2.49,2.4897,2.5034,0.0,0.0,0.0,0.0,0.0,0.0,0.0,0.0,0.0,0.0,0.0,0.0,0.0,0.0,0.0,0.0,0.0,0.0,0.0,0.0,0.0,0.0,0.0,0.0,0.0,0.0,0.0,0.0,0.0,0.0,0.0,0.0,0.0,0.0,0.0,0.0,0.0,0.0,0.0,0.0,0.0,0.0,0.0,0.0,0.0,0.0,0.0,0.0,0.0,0.0,0.0,0.0,0.0,0.0,0.0,0.0,0.0,0.0,0.0,0.0,0.0,0.0,0.0,0.0,0.0,0.0,0.0,0.0,0.0,0.0,0.0,0.0,0.0,0.0,0.0,0.0,0.0,0.0,0.0,0.0,0.0,0.0,0.0,0.0,0.0,0.0,0.0,0.0,0.0,0.0,0.0,0.0,0.0,0.0,0.0,0.0,0.0,0.0,0.0,0.0,0.0,0.0,0.0,0.0,2.6308,2.6053,2.5393,2.5,2.5003,2.4974,2.4931,2.4851,0.0,0.0,0.0,0.0,0.0,0.0,0.0,0.0,0.0,0.0,0.0,0.0,0.0,0.0,0.0,0.0,0.0,0.0,0.0,0.0,0.0,0.0,0.0,0.0,0.0,0.0,0.0,0.0,0.0,0.0,0.0,0.0,0.0,0.0,0.0,0.0,0.0,0.0,0.0,0.0,0.0,0.0,0.0,0.0,0.0,0.0,0.0,0.0,0.0,0.0,0.0,0.0,0.0,0.0,0.0,0.0,0.0,0.0,0.0,0.0,0.0,0.0,0.0,0.0,0.0,0.0,0.0,0.0,0.0,0.0,0.0,0.0,0.0,0.0,0.0,0.0,0.0,0.0,0.0,0.0,0.0,0.0,0.0,0.0,0.0,0.0,0.0,0.0,0.0,0.0,0.0,0.0,0.0,0.0,0.0,0.0,0.0,0.0,0.0,0.0,0.0,0.0,0.0,2.6562,2.6453,2.6853,2.6141,2.5837,2.6315,2.5917,2.5611,2.5553,2.5606,0.0,0.0,0.0,0.0,0.0,0.0,0.0,0.0,0.0,0.0,0.0,0.0,0.0,0.0,0.0,0.0,0.0,0.0,0.0,0.0,0.0,0.0,0.0,0.0,0.0,0.0,0.0,0.0,0.0,0.0,0.0,0.0,0.0,0.0,0.0,0.0,0.0,0.0,0.0,0.0,0.0,0.0,0.0,0.0,0.0,0.0,0.0,0.0,0.0,0.0,0.0,0.0,0.0,0.0,0.0,0.0,0.0,0.0,0.0,0.0,0.0,0.0,0.0,0.0,0.0,0.0,0.0,0.0,0.0,0.0,0.0,0.0,0.0,0.0,0.0,0.0,0.0,0.0,0.0,0.0,0.0,0.0,0.0,0.0,0.0,0.0,0.0,0.0,0.0,0.0,0.0,0.0,0.0,0.0,0.0,0.0,0.0,0.0,0.0,0.0,0.0,0.0,2.7088,2.7047,2.7714,2.7013,2.6789,2.7433,2.6694,2.6194,2.618,2.5958,0.0,0.0,0.0,0.0,0.0,0.0,0.0,0.0,0.0,0.0,0.0,0.0,0.0,0.0,0.0,0.0,0.0,0.0,0.0,0.0,0.0,0.0,0.0,0.0,0.0,0.0,0.0,0.0,0.0,0.0,0.0,0.0,0.0,0.0,0.0,0.0,0.0,0.0,0.0,0.0,0.0,0.0,0.0,0.0,0.0,0.0,0.0,0.0,0.0,0.0,0.0,0.0,0.0,0.0,0.0,0.0,0.0,0.0,0.0,0.0,0.0,0.0,0.0,0.0,0.0,0.0,0.0,0.0,0.0,0.0,0.0,0.0,0.0,0.0,0.0,0.0,0.0,0.0,0.0,0.0,0.0,0.0,0.0,0.0,0.0,0.0,0.0,0.0,0.0,0.0,0.0,0.0,0.0,0.0,0.0,0.0,0.0,0.0,0.0,0.0,0.0,0.0,2.8104,2.8551,2.8608,2.7881,2.7433,2.749,2.6694,2.6176,2.611,2.5398,0.0,0.0,0.0,0.0,0.0,0.0,0.0,0.0,0.0,0.0,0.0,0.0,0.0,0.0,0.0,0.0,0.0,0.0,0.0,0.0,0.0,0.0,0.0,0.0,0.0,0.0,0.0,0.0,0.0,0.0,0.0,0.0,0.0,0.0,0.0,0.0,0.0,0.0,0.0,0.0,0.0,0.0,0.0,0.0,0.0,0.0,0.0,0.0,0.0,0.0,0.0,0.0,0.0,0.0,0.0,0.0,0.0,0.0,0.0,0.0,0.0,0.0,0.0,0.0,0.0,0.0,0.0,0.0,0.0,0.0,0.0,0.0,0.0,0.0,0.0,0.0,0.0,0.0,0.0,0.0,0.0,0.0,0.0,0.0,0.0,0.0,0.0,0.0,0.0,0.0,0.0,0.0,0.0,0.0,0.0,0.0,0.0,0.0,0.0,0.0,0.0,0.0,2.803,2.8751,0.0,2.8726,2.8446,2.8957,2.8233,2.7528,2.7006,0.0,0.0,0.0,0.0,0.0,0.0,0.0,0.0,0.0,0.0,0.0,0.0,0.0,0.0,0.0,0.0,0.0,0.0,0.0,0.0,0.0,0.0,0.0,0.0,0.0,0.0,0.0,0.0,0.0,0.0,0.0,0.0,0.0,0.0,0.0,0.0,0.0,0.0,0.0,0.0,0.0,0.0,0.0,0.0,0.0,0.0,0.0,0.0,0.0,0.0,0.0,0.0,0.0,0.0,0.0,0.0,0.0,0.0,0.0,0.0,0.0,0.0,0.0,0.0,0.0,0.0,0.0,0.0,0.0,0.0,0.0,0.0,0.0,0.0,0.0,0.0,0.0,0.0,0.0,0.0,0.0,0.0,0.0,0.0,0.0,0.0,0.0,0.0,0.0,0.0,0.0,0.0,0.0,0.0,0.0,0.0,0.0,0.0,0.0,0.0,0.0,0.0,2.7402,2.8432,2.9336,0.0,2.9595,2.9415,2.9767,2.907,2.8265,2.7456,0.0,0.0,0.0,0.0,0.0,0.0,0.0,0.0,0.0,0.0,0.0,0.0,0.0,0.0,0.0,0.0,0.0,0.0,0.0,0.0,0.0,0.0,0.0,0.0,0.0,0.0,0.0,0.0,0.0,0.0,0.0,0.0,0.0,0.0,0.0,0.0,0.0,0.0,0.0,0.0,0.0,0.0,0.0,0.0,0.0,0.0,0.0,0.0,0.0,0.0,0.0,0.0,0.0,0.0,0.0,0.0,0.0,0.0,0.0,0.0,0.0,0.0,0.0,0.0,0.0,0.0,0.0,0.0,0.0,0.0,0.0,0.0,0.0,0.0,0.0,0.0,0.0,0.0,0.0,0.0,0.0,0.0,0.0,0.0,0.0,0.0,0.0,0.0,0.0,0.0,0.0,0.0,0.0,0.0,0.0,0.0,0.0,0.0,0.0,0.0,0.0,0.0,2.7899,2.9466,3.0511,3.0492,3.0492,3.0254,2.9659,2.8855,2.8041,0.0,0.0,0.0,0.0,0.0,0.0,0.0,0.0,0.0,0.0,0.0,0.0,0.0,0.0,0.0,0.0,0.0,0.0,0.0,0.0,0.0,0.0,0.0,0.0,0.0,0.0,0.0,0.0,0.0,0.0,0.0,0.0,0.0,0.0,0.0,0.0,0.0,0.0,0.0,0.0,0.0,0.0,0.0,0.0,0.0,0.0,0.0,0.0,0.0,0.0,0.0,0.0,0.0,0.0,0.0,0.0,0.0,0.0,0.0,0.0,0.0,0.0,0.0,0.0,0.0,0.0,0.0,0.0,0.0,0.0,0.0,0.0,0.0,0.0,0.0,0.0,0.0,0.0,0.0,0.0,0.0,0.0,0.0,0.0,0.0,0.0,0.0,0.0,0.0,0.0,0.0,0.0,0.0,0.0,0.0,0.0,0.0,0.0,0.0,0.0,0.0,0.0,0.0,0.0,2.9269,3.0294,3.0476,3.0492,3.0196,2.9441,2.8655,2.7821,2.6977,0.0,0.0,0.0,0.0,0.0,0.0,0.0,0.0,0.0,0.0,0.0,0.0,0.0,0.0,0.0,0.0,0.0,0.0,0.0,0.0,0.0,0.0,0.0,0.0,0.0,0.0,0.0,0.0,0.0,0.0,0.0,0.0,0.0,0.0,0.0,0.0,0.0,0.0,0.0,0.0,0.0,0.0,0.0,0.0,0.0,0.0,0.0,0.0,0.0,0.0,0.0,0.0,0.0,0.0,0.0,0.0,0.0,0.0,0.0,0.0,0.0,0.0,0.0,0.0,0.0,0.0,0.0,0.0,0.0,0.0,0.0,0.0,0.0,0.0,0.0,0.0,0.0,0.0,0.0,0.0,0.0,0.0,0.0,0.0,0.0,0.0,0.0,0.0,0.0,0.0,0.0,0.0,0.0,0.0,0.0,0.0,0.0,0.0,0.0,0.0,0.0,0.0,2.8512,2.9996,3.0887,3.0729,3.0704,3.0292,2.9272,2.8439,2.7616,2.6767,0.0,0.0,0.0,0.0,0.0,0.0,0.0,0.0,0.0,0.0,0.0,0.0,0.0,0.0,0.0,0.0,0.0,0.0,0.0,0.0,0.0,0.0,0.0,0.0,0.0,0.0,0.0,0.0,0.0,0.0,0.0,0.0,0.0,0.0,0.0,0.0,0.0,0.0,0.0,0.0,0.0,0.0,0.0,0.0,0.0,0.0,0.0,0.0,0.0,0.0,0.0,0.0,0.0,0.0,0.0,0.0,0.0,0.0,0.0,0.0,0.0,0.0,0.0,0.0,0.0,0.0,0.0,0.0,0.0,0.0,0.0,0.0,0.0,0.0,0.0,0.0,0.0,0.0,0.0,0.0,0.0,0.0,0.0,0.0,0.0,0.0,0.0,0.0,0.0,0.0,0.0,0.0,0.0,0.0,0.0,0.0,0.0,0.0,0.0,0.0,0.0,0.0,2.9616,3.1209,3.1897,3.1082,3.0991,3.0445,2.9086,2.8219,2.7421,2.6607,0.0,0.0,0.0,0.0,0.0,0.0,0.0,0.0,0.0,0.0,0.0,0.0,0.0,0.0,0.0,0.0,0.0,0.0,0.0,0.0,0.0,0.0,0.0,0.0,0.0,0.0,0.0,0.0,0.0,0.0,0.0,0.0,0.0,0.0,0.0,0.0,0.0,0.0,0.0,0.0,0.0,0.0,0.0,0.0,0.0,0.0,0.0,0.0,0.0,0.0,0.0,0.0,0.0,0.0,0.0,0.0,0.0,0.0,0.0,0.0,2.7354,0.0,0.0,0.0,0.0,0.0,0.0,0.0,0.0,0.0,0.0,0.0,0.0,0.0,0.0,0.0,0.0,0.0,0.0,0.0,0.0,0.0,0.0,0.0,0.0,0.0,0.0,0.0,0.0,0.0,0.0,0.0,0.0,0.0,0.0,0.0,0.0,0.0,0.0,0.0,0.0,0.0,2.9676,3.1209,3.1897,3.1082,3.0991,3.0377,2.8814,2.7943,2.7143,2.6338,0.0,0.0,0.0,0.0,0.0,0.0,0.0,0.0,0.0,0.0,0.0,0.0,0.0,0.0,0.0,0.0,0.0,0.0,0.0,0.0,0.0,0.0,0.0,0.0,0.0,0.0,0.0,0.0,0.0,0.0,0.0,0.0,0.0,0.0,0.0,0.0,0.0,0.0,0.0,0.0,0.0,0.0,0.0,0.0,0.0,0.0,0.0,0.0,0.0,0.0,0.0,0.0,0.0,0.0,0.0,0.0,0.0,0.0,0.0,0.0,0.0,2.8685,0.0,0.0,0.0,0.0,0.0,0.0,0.0,0.0,0.0,0.0,0.0,0.0,0.0,0.0,0.0,0.0,0.0,0.0,0.0,0.0,0.0,0.0,0.0,0.0,0.0,0.0,0.0,0.0,0.0,0.0,0.0,0.0,0.0,0.0,0.0,0.0,0.0,0.0,0.0,0.0,3.0273,3.1781,3.2325,3.1136,3.0991,3.0351,2.8744,2.7857,2.7224,2.6795,2.5735,0.0,0.0,0.0,0.0,0.0,0.0,0.0,0.0,0.0,0.0,0.0,0.0,0.0,0.0,0.0,0.0,0.0,0.0,0.0,0.0,0.0,0.0,0.0,0.0,0.0,0.0,0.0,0.0,0.0,0.0,0.0,0.0,0.0,0.0,0.0,0.0,0.0,0.0,0.0,0.0,0.0,0.0,0.0,0.0,0.0,0.0,0.0,0.0,0.0,0.0,0.0,0.0,0.0,3.0923,3.1007,3.1649,3.1127,3.0983,3.116,3.1222,3.0895,3.0277,0.0,0.0,0.0,0.0,0.0,0.0,0.0,0.0,0.0,0.0,0.0,0.0,0.0,0.0,0.0,0.0,0.0,0.0,0.0,0.0,0.0,0.0,0.0,0.0,0.0,3.064,3.0603,0.0,0.0,0.0,0.0,0.0,0.0,0.0,0.0,0.0,0.0,0.0,0.0,3.11,3.2488,3.2832,3.1372,3.1082,3.0398,2.8893,2.8044,2.7507,2.7338,2.6027,2.4843,0.0,0.0,0.0,0.0,0.0,0.0,0.0,0.0,0.0,0.0,0.0,0.0,0.0,0.0,0.0,0.0,0.0,0.0,0.0,0.0,0.0,0.0,0.0,0.0,0.0,0.0,0.0,0.0,0.0,0.0,0.0,0.0,2.6293,2.6685,0.0,0.0,0.0,0.0,0.0,0.0,0.0,0.0,0.0,0.0,0.0,0.0,0.0,0.0,3.1159,3.1226,3.131,3.142,3.1901,3.2184,3.2294,3.2952,3.4044,3.5406,3.5406,0.0,3.0854,3.0205,0.0,0.0,0.0,0.0,0.0,0.0,0.0,0.0,0.0,0.0,0.0,0.0,0.0,0.0,0.0,0.0,0.0,0.0,0.0,0.0,0.0,0.0,3.2817,3.1702,3.1529,3.1673,0.0,3.0339,2.8711,2.788,0.0,0.0,0.0,0.0,0.0,0.0,0.0,0.0,3.1951,3.2832,3.3049,3.2151,3.1426,3.0582,2.9557,2.8738,2.7911,2.71,2.6848,2.6296,2.5361,2.4718,0.0,0.0,0.0,0.0,0.0,0.0,0.0,0.0,0.0,0.0,0.0,0.0,0.0,0.0,0.0,0.0,0.0,0.0,0.0,0.0,0.0,0.0,0.0,0.0,0.0,0.0,0.0,0.0,0.0,2.6907,2.8297,2.8346,2.8667,2.889,0.0,0.0,0.0,0.0,0.0,0.0,0.0,0.0,0.0,3.1821,3.2607,3.3372,3.4135,3.4557,3.4768,3.4768,3.4614,3.4548,3.4529,3.4415,3.4775,3.5481,3.5481,3.4889,3.3895,3.363,3.3194,3.2641,0.0,0.0,0.0,0.0,0.0,3.2429,3.3638,3.3881,0.0,0.0,0.0,0.0,0.0,0.0,0.0,0.0,0.0,0.0,0.0,0.0,0.0,3.4481,3.4445,3.4506,3.4651,3.3877,3.2629,0.0,3.0717,3.0472,2.9223,0.0,0.0,0.0,0.0,0.0,3.2265,3.2979,3.315,3.2341,3.1907,3.1315,3.0457,2.9582,2.8907,2.8488,2.7462,2.6694,2.6297,2.5464,2.4624,0.0,0.0,0.0,0.0,0.0,0.0,0.0,0.0,0.0,0.0,0.0,0.0,0.0,0.0,0.0,0.0,0.0,0.0,0.0,0.0,0.0,0.0,0.0,0.0,0.0,0.0,0.0,0.0,2.8451,2.9913,2.9542,3.0083,3.0371,0.0,0.0,0.0,0.0,0.0,0.0,3.2755,3.232,3.2708,3.4266,3.5005,3.5636,3.6182,3.6789,3.7206,3.7395,3.6789,3.6618,3.6808,3.5936,3.5761,3.6173,3.595,3.6353,3.7087,3.622,3.5614,3.5211,3.5007,3.4936,3.4955,3.5178,3.5324,3.5521,3.6348,3.6708,3.664,3.5594,0.0,3.4679,3.3161,0.0,0.0,0.0,0.0,3.4728,3.5669,0.0,3.5843,3.6389,3.6517,3.6537,3.6592,3.6457,3.5697,0.0,3.3173,3.2695,3.1291,0.0,0.0,0.0,0.0,3.302,3.3024,3.349,3.352,3.2699,3.237,3.1958,3.1305,3.0372,2.9825,2.979,2.8244,2.7339,2.7339,2.6282,2.5454,0.0,0.0,0.0,0.0,0.0,0.0,0.0,0.0,0.0,0.0,0.0,0.0,0.0,0.0,0.0,0.0,0.0,0.0,0.0,0.0,0.0,0.0,0.0,0.0,0.0,0.0,0.0,0.0,0.0,0.0,2.9685,3.1633,0.0,0.0,0.0,0.0,3.4175,3.4097,3.4342,3.5175,3.5772,3.5722,3.4884,3.5709,3.6154,3.6201,3.6239,3.6637,3.7395,3.7358,3.7775,3.8538,3.7661,3.8148,3.9616,3.8836,3.8969,3.9464,3.6291,3.5424,3.605,3.5292,3.4993,3.5093,3.5918,3.6221,3.6364,3.7224,3.7575,3.775,3.8432,3.8135,3.7349,3.6504,3.5531,0.0,0.0,3.5778,3.5765,3.6397,3.6555,3.6501,3.6359,3.6332,3.6526,3.7272,3.6842,3.6028,0.0,3.4887,3.4619,3.3763,0.0,3.3883,3.4561,3.4711,3.4745,3.4692,3.4714,3.4404,3.3535,3.2746,3.2197,3.1971,3.1033,3.0405,3.028,2.9344,2.8797,2.8797,2.735,2.6518,2.6483,2.5106,0.0,0.0,0.0,0.0,0.0,0.0,0.0,0.0,0.0,0.0,0.0,0.0,0.0,0.0,0.0,0.0,0.0,0.0,0.0,0.0,0.0,0.0,0.0,0.0,0.0,0.0,0.0,0.0,3.2848,3.4079,0.0,0.0,3.4596,3.5076,3.5807,3.5296,3.555,3.6932,3.662,3.6721,3.7447,3.7693,3.8059,3.8579,3.8579,3.8731,3.9015,3.9015,3.9166,3.947,3.974,4.0171,4.0758,4.1035,4.1317,4.1488,4.0335,3.938,3.8622,3.8324,3.8235,3.8322,3.8622,3.8765,3.8842,3.9161,3.9309,3.9327,3.9041,3.8386,3.7614,3.7148,3.7002,3.7024,3.7167,3.7401,3.7676,3.7904,3.7956,3.7934,3.7867,3.7845,3.7918,3.8212,3.8046,3.7753,3.7452,3.6534,3.5562,3.4711,3.5037,3.5305,3.5013,3.5435,3.5783,3.5772,3.5242,3.4742,3.4439,3.3635,3.3062,3.29,3.2024,3.1394,3.1209,3.032,2.9551,2.8986,2.844,2.7672,2.6623,2.6168,2.5283,0.0,0.0,0.0,0.0,0.0,0.0,0.0,0.0,0.0,0.0,0.0,0.0,0.0,0.0,0.0,0.0,0.0,0.0,0.0,0.0,0.0,0.0,0.0,0.0,0.0,0.0,3.5001,3.4955,3.6202,3.691,3.6414,3.6883,3.753,3.8265,3.7717,3.7981,3.9438,3.8817,3.8923,4.0046,3.998,4.0195,4.0734,4.0734,4.0734,4.0734,4.0734,4.0734,4.0753,4.1368,4.1645,4.1664,4.2262,4.2536,4.2542,4.258,4.1919,4.0914,4.0914,4.0935,4.0947,4.0676,4.0591,4.0606,4.0339,4.0258,4.021,3.9637,3.9166,3.8813,3.8643,3.8914,3.9279,3.9103,3.9265,3.9507,3.9507,3.9507,3.9507,3.9507,3.9507,3.9433,3.9166,3.9093,3.9019,3.8755,3.7845,3.6927,3.6343,3.6736,3.6909,3.6343,3.6736,3.7,3.6732,3.6164,3.5662,3.5341,3.479,3.4269,3.3832,3.3176,3.2586,3.214,3.1221,3.0448,2.9864,2.9304,2.8491,2.7421,2.7275,2.6545,2.5203,0.0,0.0,0.0,0.0,0.0,0.0,0.0,0.0,0.0,0.0,0.0,0.0,0.0,0.0,0.0,0.0,0.0,0.0,0.0,0.0,0.0,0.0,0.0,3.4847,3.5485,3.5991,3.5805,3.7998,3.9121,3.8143,3.9515,4.0816,4.1658,4.1535,4.1796,4.2644,4.2506,4.2407,4.2407,4.2407,4.2407,4.2407,4.2407,4.2407,4.2407,4.2407,4.2407,4.2407,4.2488,4.2541,4.2541,4.2626,4.2672,4.2672,4.2672,4.2709,4.2766,4.2728,4.2709,4.26,4.1824,4.1538,4.1423,4.0649,4.0377,4.0349,4.0349,4.071,4.1111,4.1124,4.129,4.1497,4.149,4.1306,4.1095,4.1095,4.1095,4.1095,4.1095,4.1095,4.0883,4.0102,3.9945,3.9698,3.8891,3.8744,3.8718,3.8699,3.8699,3.8699,3.8699,3.8699,0.0,3.7639,3.7529,3.7143,3.6238,3.6113,3.5695,3.4724,3.4421,3.3906,3.3005,3.2056,3.1526,3.1508,2.9942,2.9067,2.9032,2.8371,2.7715,2.7067,0.0,0.0,0.0,0.0,0.0,0.0,0.0,0.0,0.0,0.0,0.0,0.0,0.0,0.0,0.0,0.0,0.0,0.0,0.0,0.0,0.0,0.0,3.8262,3.7342,3.8455,3.9533,3.9976,4.1247,4.1902,4.1435,4.1844,4.2168,4.2203,4.2167,4.2224,4.246,4.2422,4.2407,4.2407,4.2407,4.2407,4.2407,4.2407,4.2407,4.2407,4.2407,4.2407,4.2426,4.3074,4.3365,4.3408,4.406,4.4336,4.4336,4.4382,4.4456,4.4396,4.3162,4.273,4.276,4.2521,4.2431,4.2412,4.2183,4.1958,4.1757,4.1757,4.1713,4.163,4.1457,4.1443,4.1453,4.1267,4.115,4.1095,4.1095,4.1095,4.1095,4.1095,4.1095,4.1048,4.0828,4.0773,4.0534,3.9735,3.9578,3.9386,3.8799,3.8699,3.8699,3.8699,0.0,0.0,3.8395,3.7852,3.7393,3.7151,3.6457,3.5868,3.5496,3.4748,3.4159,0.0,3.2977,3.2226,3.1604,3.1127,3.0591,2.9945,2.924,2.8755,0.0,0.0,0.0,0.0,0.0,0.0,0.0,0.0,0.0,0.0,0.0,0.0,0.0,0.0,0.0,0.0,0.0,0.0,0.0,0.0,0.0,0.0,3.9231,4.0299,4.0706,4.1047,4.1476,4.2095,4.3017,4.3513,4.3267,4.3563,4.3706,4.3548,4.3484,4.3449,4.3449,4.3449,4.3449,4.3449,4.3478,4.349,4.349,4.3519,4.3519,4.349,4.349,4.3478,4.3474,4.399,4.4236,0.0,4.4813,4.5032,4.5032,4.5072,4.5125,0.0,0.0,0.0,0.0,0.0,4.3074,4.2794,4.2794,4.267,4.252,4.252,4.2458,4.2376,4.2216,4.224,4.2265,4.2113,4.2062,4.2045,4.1984,4.2028,4.2062,4.2062,4.2062,4.1979,4.1664,4.1599,4.136,4.0561,0.0,0.0,3.9782,3.914,3.881,3.9148,3.8927,3.8699,0.0,3.8285,3.7999,3.7999,3.7479,3.6913,3.6348,3.5776,0.0,0.0,0.0,3.287,3.1661,0.0,0.0,0.0,0.0,0.0,0.0,0.0,0.0,0.0,3.188,3.2231,0.0,0.0,0.0,0.0,0.0,0.0,0.0,0.0,0.0,0.0,0.0,0.0,0.0,0.0,0.0,0.0,4.1269,4.2127,4.4033,4.3208,4.2577,4.3027,4.3887,4.4358,4.4162,4.4745,4.5117,4.5108,4.4997,4.4931,4.4913,0.0,0.0,0.0,0.0,4.4997,4.4985,4.5057,4.5043,4.4991,4.4991,4.4967,4.4919,4.4979,4.5003,4.5009,4.5061,4.5103,4.5103,4.5103,4.5103,4.5103,4.5103,4.5142,4.511,4.4318,4.3625,0.0,4.306,0.0,0.0,4.2975,4.3055,4.3159,4.3123,4.3241,4.3385,4.3385,4.3385,4.3349,4.3233,4.3296,4.3385,4.3403,4.3403,4.3228,4.2563,4.2433,4.2194,4.1397,4.1242,4.1242,4.1242,3.9984,3.9221,3.9926,3.935,3.8828,3.8828,3.8755,3.8699,3.8699,0.0,0.0,3.7251,3.7065,3.6522,3.5443,3.465,3.3565,3.206,3.269,3.3222,3.3544,3.3559,3.4433,3.6181,3.6532,3.6756,3.6769,3.3973,3.3869,0.0,0.0,0.0,0.0,0.0,0.0,0.0,0.0,0.0,0.0,0.0,0.0,0.0,0.0,0.0,4.1655,4.3552,4.4727,4.4342,4.4645,4.4876,4.4823,4.504,4.5151,4.5069,4.523,4.527,4.5101,4.5175,4.5175,4.5074,4.5164,0.0,4.5055,4.5061,4.5039,4.4913,4.4925,4.4955,4.4991,0.0,0.0,4.5049,4.5061,4.5085,4.5091,4.5084,4.5103,4.5103,4.5103,4.5103,4.5103,4.5103,4.5114,4.5106,4.4929,4.4782,4.466,4.466,4.451,4.4298,4.4013,4.3774,4.3526,4.3263,4.322,0.0,4.3242,4.3242,4.3233,4.3214,4.3224,4.326,4.3367,4.3403,4.3375,4.3287,4.3267,4.3029,4.2213,4.2066,4.2066,4.2066,4.1268,4.07,4.0846,4.0175,3.9669,3.9669,3.9093,3.8699,3.8699,3.8554,3.8378,3.815,3.7439,3.6824,3.6436,3.5513,3.4848,3.451,3.4652,3.4865,3.5152,3.5204,3.5525,3.6127,3.6512,3.7035,3.7636,3.6618,3.6391,0.0,0.0,0.0,0.0,0.0,0.0,0.0,0.0,0.0,0.0,0.0,3.8798,0.0,0.0,4.2049,4.3673,4.4634,4.5092,4.4969,4.5323,4.5541,4.5366,4.5438,4.5481,4.5448,4.5424,4.5361,4.525,4.5283,4.5275,4.5197,4.5251,4.5275,4.5197,4.5197,4.517,4.5103,4.5103,4.5103,4.5103,4.5103,4.5103,4.5103,4.5103,4.5103,4.5103,4.5103,4.5103,4.5103,4.5103,4.5085,4.5057,4.5057,4.5097,4.5153,4.5153,4.517,4.5197,4.5197,4.5114,4.4943,4.4577,4.4253,4.3941,4.3552,4.3313,4.3151,4.3151,4.3151,4.3123,4.3068,4.3105,4.3169,4.3224,4.3287,4.3331,4.3437,4.348,4.3378,4.2992,4.29,4.29,4.29,4.2561,4.2158,4.1764,4.102,4.0506,4.0506,4.0149,3.9892,3.9892,3.9802,3.9711,3.9611,3.8651,3.7651,3.6766,3.6522,3.6042,3.5231,3.5587,3.6022,3.6481,3.65,3.7151,3.8451,3.8616,3.9123,3.996,3.9746,3.9442,0.0,0.0,0.0,0.0,0.0,0.0,0.0,0.0,3.8823,3.8288,3.9883,4.1632,4.2492,4.2609,4.3276,4.5411,4.517,4.4982,4.5742,4.584,4.5871,4.5923,4.5738,4.5594,4.5594,4.5504,4.5429,4.5405,4.5366,4.5359,4.5319,4.5334,4.5359,4.5314,4.5314,4.5375,4.5515,4.5515,4.5489,4.5445,4.5445,4.5347,4.5142,4.5142,4.5142,4.5142,4.5142,4.5142,4.5142,4.5142,4.5114,4.5068,4.5068,4.512,4.5192,4.5153,4.5175,4.5219,4.5249,4.5235,4.5186,4.4801,4.4526,4.4296,4.3896,4.3502,4.3178,4.3178,4.3123,4.304,4.2929,4.2984,4.3077,4.3095,4.3142,4.3214,4.3376,4.3446,4.3489,4.3506,4.3506,4.3506,4.3506,4.3506,4.3286,4.2635,4.1856,4.1342,4.1342,4.1195,4.1095,4.1095,4.1095,4.1027,4.0866,3.9983,3.8877,3.7579,3.7882,3.7524,3.6228,3.6756,3.7367,3.7973,3.8007,3.8991,4.0958,4.0964,4.1334,4.2031,4.2153,4.185,3.3118,3.43,0.0,3.6577,3.7492,3.8606,0.0,0.0,4.0813,4.149,4.2425,4.3341,4.4102,4.4243,4.4539,4.5477,4.5543,4.5785,4.6624,4.6755,4.7,4.7702,4.6504,4.5594,4.5594,4.5581,4.5522,4.541,4.5499,4.5504,4.539,4.5495,4.5499,4.539,4.5386,4.5661,4.6271,4.629,4.6303,4.6355,4.6355,4.5982,4.5286,4.5286,4.5286,4.5286,4.5286,4.5286,4.5286,4.5286,4.5281,4.5275,4.5275,4.523,4.5175,4.4991,4.4931,4.4943,4.5003,4.502,4.4991,4.4688,4.458,4.4501,4.4161,4.3773,4.3464,4.3464,4.3204,4.2929,4.2901,4.2901,4.2947,4.3058,4.3104,4.3169,4.3359,4.3412,4.3429,4.3489,4.3506,4.3506,4.3506,4.3506,4.3469,4.3378,4.2671,4.2176,4.2176,4.1544,4.1095,4.1095,4.1095,4.1087,4.1079,4.0784,4.0536,4.0354,4.0068,3.9831,3.9652,3.9563,3.9685,4.0065,4.0407,4.0885,4.1516,4.1802,4.2021,4.2178,4.2196,4.2152,3.5333,0.0,0.0,0.0,3.9772,4.1445,4.1111,4.2151,4.3126,4.2946,4.3906,4.4737,4.4536,4.526,4.6009,0.0,4.674,4.7182,4.7543,4.7601,4.7716,4.8062,4.749,4.7048,4.7048,4.7048,4.7034,4.6973,4.7025,4.7029,4.6968,4.7025,4.7029,4.6968,4.6959,4.7107,4.7381,4.735,4.7353,4.7373,4.7373,4.7197,4.6873,4.6873,4.6586,4.6083,4.5585,4.5361,4.5361,4.5361,4.536,4.5353,4.5353,4.5317,4.5235,4.5125,4.5057,4.5009,4.5057,4.5068,4.5003,4.4644,4.4546,4.4467,4.4106,4.387,4.3727,4.3727,4.3473,4.3195,4.3195,4.305,4.2901,4.2975,4.304,4.3123,4.3205,4.3251,4.3286,4.3331,4.3331,4.3331,4.3331,4.3384,4.3446,4.3446,4.3196,4.301,4.301,4.269,4.2506,4.2506,4.2506,4.2304,4.1837,4.1612,4.1299,4.0825,4.0572,4.0438,4.0438,4.0347,4.0456,4.0742,4.1024,4.1593,4.248,4.2738,4.3139,4.3655,4.3737,4.3774,3.6815,0.0,0.0,3.9373,4.1473,4.3307,4.1992,4.3251,4.4598,4.4123,4.5131,4.5985,4.5565,4.6452,0.0,4.7235,4.7716,4.8178,4.8413,4.8471,4.8548,4.8798,4.8817,4.8817,4.8817,4.8375,4.8101,4.8101,4.8101,4.8101,4.8101,4.8101,4.8101,4.8101,4.8106,4.8217,4.8433,4.8374,4.8354,4.8319,4.8319,4.8204,4.7994,4.7994,4.7668,4.703,4.6383,4.6114,4.6114,4.6114,4.6114,4.6117,4.6117,4.6082,4.6011,4.5933,4.5576,4.5103,4.5085,4.5061,4.5026,4.4758,4.4833,4.4945,4.4409,4.4333,4.4397,4.4143,4.3799,4.3515,4.3413,4.3222,4.3004,4.292,4.2975,4.3049,4.3095,4.3132,4.3178,4.3205,4.3205,4.3205,4.3205,4.3269,4.334,4.334,4.3429,4.348,4.3506,4.3506,4.3506,4.3506,4.3506,4.3267,4.2671,4.2505,4.218,4.1577,4.1412,4.1324,4.1324,4.1252,4.1315,4.1495,4.1809,4.241,4.3299,4.3617,4.412,4.477,4.4846,4.4895,0.0,0.0,3.9997,4.0823,4.2273,4.3486,4.3445,4.398,4.4726,4.5473,4.6297,4.711,4.7841,4.8029,4.8062,4.8062,4.8082,4.8394,4.924,4.9356,4.9668,5.0515,5.0611,5.0611,0.0,4.9086,4.8101,4.8101,4.8101,4.8101,4.8101,4.8101,4.8101,4.8101,4.8101,4.8476,4.9268,4.9268,4.9229,4.9168,4.9168,4.8746,4.7994,4.7994,4.7994,4.7955,4.7936,4.7917,4.7917,4.7917,4.7917,4.7917,4.7917,4.7881,4.7809,4.7756,4.6606,4.5097,4.5033,4.4997,4.5003,4.5055,4.5702,4.627,4.5344,4.5426,4.5642,4.4739,4.4187,4.381,4.3473,4.3397,4.3301,4.2985,4.2892,4.2938,4.3058,4.3104,4.3114,4.3187,4.3205,4.3205,4.3205,4.3196,4.3214,4.3214,4.3323,4.342,4.3497,4.3506,4.3506,4.3506,4.3506,4.3488,4.3469,4.3469,4.3442,4.3433,4.3222,4.3132,4.3132,4.294,4.2799,4.275,4.3385,4.3749,4.3781,4.445,4.4802,4.4889,4.4889,4.4895,0.0,0.0,4.1602,4.2475,4.3907,4.4919,4.4314,4.5193,4.622,4.6458,4.7141,4.7774,4.8043,4.8567,4.8952,4.8952,4.9452,4.9938,5.0226,5.0265,5.0361,5.0668,5.0707,0.0,0.0,0.0,0.0,4.9822,5.0313,5.062,5.062,5.1178,5.1486,5.1486,5.0928,5.0745,5.1014,5.05,5.023,5.0196,5.0196,5.0043,4.9774,4.9192,4.8923,4.8904,4.8323,4.8073,4.8073,4.8073,4.8073,4.8073,4.8073,4.8044,4.802,4.7954,4.7552,4.7007,4.6851,4.6418,4.6032,4.6632,4.7007,4.7161,4.6858,4.6888,4.6954,4.6644,4.6306,4.594,4.5568,4.528,4.4874,4.3912,4.3707,4.3553,4.3074,4.2975,4.2966,4.3003,4.3013,4.3013,4.3013,4.3077,4.3151,4.3196,4.3314,4.342,4.3497,4.3506,4.3506,4.3506,4.3506,4.3506,4.3506,4.3506,4.3506,4.3506,4.3445,4.341,4.341,4.333,4.3375,4.354,4.3871,4.4147,4.4327,4.4687,4.487,4.4895,4.4895,4.4895,0.0,4.1422,4.2868,4.371,4.4902,4.5776,4.5478,4.6205,4.7123,4.7686,4.7966,4.8293,4.8913,4.9221,4.949,4.9803,5.0322,5.0707,5.0707,5.0707,5.0707,5.0707,5.0957,0.0,0.0,0.0,0.0,5.1144,5.1601,5.2038,5.2351,5.289,5.3197,5.3197,5.2659,5.237,5.237,5.1856,5.1438,5.1125,5.1125,5.0976,5.0668,5.0111,4.9861,4.9822,4.926,4.9029,4.9029,4.9029,4.9029,4.9029,4.9029,4.9029,4.9019,4.8956,4.8744,4.8432,4.7903,4.7367,4.6985,4.7544,4.7905,4.8043,4.7696,4.7805,4.7971,4.7623,4.7397,4.7169,4.6776,4.6546,4.6122,4.5068,4.4811,4.4637,4.3966,4.3837,4.3736,4.339,4.3326,4.3236,4.2946,4.2975,4.3068,4.3142,4.3269,4.3367,4.3445,4.3489,4.3506,4.3506,4.3506,4.3506,4.3506,4.3506,4.3506,4.3506,4.3506,4.3506,4.3506,4.36,4.3691,4.3822,4.4177,4.4391,4.4527,4.4783,4.4895,4.4895,4.4895,4.4943,4.0645,4.2276,4.3749,4.4557,4.5271,4.6002,4.6803,4.6952,4.737,4.9048,4.874,4.8682,0.0,0.0,4.9784,5.0572,5.0726,5.0745,5.0707,5.0745,5.0765,0.0,0.0,0.0,0.0,0.0,0.0,5.2096,0.0,5.239,5.3217,5.3313,5.3332,5.3332,5.3294,5.3274,5.3274,5.3217,5.2774,5.1962,5.1962,5.1563,5.0822,5.0822,5.0803,5.0765,5.0765,5.0745,5.0707,5.0707,5.0707,5.0707,5.0707,5.0707,5.0683,5.0623,5.012,4.9313,4.8309,4.7922,4.7879,4.7922,4.8451,4.8909,4.8017,4.8281,4.8682,4.7802,4.7593,4.7562,4.7214,4.7174,4.7038,4.6349,4.619,4.6051,4.5613,4.5534,4.5258,4.4361,4.4133,4.387,4.3145,4.2946,4.2956,4.3131,4.3178,4.3242,4.3385,4.3464,4.3506,4.3506,4.3506,4.3506,4.3506,4.3506,4.3506,4.3506,4.3506,4.3506,4.3497,4.3742,4.3841,4.372,4.428,4.452,4.4436,4.4732,4.4895,4.4895,4.4895,4.5032,4.1624,4.3044,4.4446,4.5238,4.5557,4.587,4.6729,4.6901,4.737,4.9048,4.9221,4.9394,0.0,0.0,0.0,5.0765,5.1202,0.0,5.0784,5.1221,0.0,0.0,0.0,5.287,5.287,5.3063,0.0,0.0,5.3837,5.3933,5.4164,5.4741,5.5049,5.5049,5.4472,5.4164,5.4164,5.353,5.3082,5.287,5.287,5.2755,5.2568,5.2568,5.2202,5.1582,5.1582,5.1241,5.0707,5.0707,5.0707,5.0707,5.0707,5.0707,5.0707,5.0673,5.0543,5.0337,5.0052,4.9502,4.902,4.9677,4.9986,5.0071,4.983,4.9828,4.9862,4.9641,4.9498,4.9359,4.8968,4.8888,4.8619,4.7548,4.7293,4.7043,4.6144,4.5954,4.58,4.5302,4.4686,4.4337,4.464,4.3689,4.3118,4.3754,4.344,4.3178,4.3376,4.3464,4.3506,4.3506,4.3506,4.3506,4.3506,4.3506,4.3506,4.3506,4.3506,4.348,4.342,4.349,4.3684,4.3983,4.4155,4.4398,4.4777,4.4858,4.4895,4.4895,4.4895,4.5352,4.2944,4.4144,4.5153,4.5553,4.5915,4.6201,4.6317,4.7182,4.8067,4.8259,4.8894,0.0,0.0,0.0,0.0,0.0,0.0,0.0,5.1241,5.162,5.2038,0.0,5.3236,0.0,5.378,5.4087,5.4491,0.0,5.4703,5.4645,5.5011,5.5458,5.5708,5.5708,5.5266,5.503,5.503,5.453,5.4126,5.378,5.378,5.3568,5.3197,5.3197,5.2928,5.2467,0.0,5.2005,5.1221,5.1221,5.1015,5.0707,5.0707,5.0707,5.0707,5.0707,5.0707,5.0707,5.0707,5.0361,5.0004,5.0485,5.0588,5.0505,5.0505,5.0672,5.0785,5.0417,5.054,5.064,4.997,4.9828,4.9633,4.8735,4.8531,4.8314,4.7541,4.7372,4.7159,4.6443,4.5532,4.4997,4.5366,4.4676,4.4121,4.4182,4.3895,4.3579,4.3296,4.334,4.3393,4.3455,4.3464,4.3463,4.3506,4.3506,4.3506,4.3506,4.3506,4.3463,4.3403,4.3634,4.3868,4.4109,4.4327,4.4608,4.4895,4.4895,4.4895,4.4914,4.5373,4.5976,4.4184,4.516,4.5742,4.5633,4.6163,4.6528,4.5763,4.7225,4.8336,4.7005,0.0,0.0,4.8197,0.0,4.9433,4.9548,0.0,5.0976,5.1793,5.2,5.2409,5.3274,5.4126,5.4664,5.4664,5.5285,5.5708,5.5708,5.5049,5.4953,5.567,5.5708,5.5708,5.5708,5.5708,5.5708,5.5708,5.5708,5.5343,5.4664,5.4664,5.426,5.353,5.353,5.3472,5.3371,0.0,0.0,5.2058,5.1942,5.1486,5.0842,5.0745,5.0707,5.0707,5.0707,5.0707,5.0707,5.0707,5.0707,5.0707,5.0707,5.0623,5.0527,5.0527,5.0963,5.1292,5.0541,5.0889,5.1316,5.0446,5.0261,5.02,4.9788,4.9684,4.9576,4.9193,4.9063,4.8707,4.7609,4.6544,4.5834,4.5903,4.572,4.5345,4.4714,4.4471,4.4089,4.335,4.3224,4.3251,4.3394,4.3403,4.342,4.3479,4.3506,4.3506,4.3506,4.3539,4.3506,4.3376,4.3905,4.4155,4.4075,4.4569,4.4858,4.4895,4.4895,4.4895,4.492,4.6001,4.6671,4.4336,4.5111,4.5633,4.5599,4.5706,4.5782,4.5629,4.5379,0.0,0.0,0.0,4.6648,4.7875,0.0,0.0,5.0361,0.0,0.0,0.0,0.0,0.0,0.0,0.0,0.0,0.0,0.0,0.0,0.0,0.0,0.0,5.5689,5.5708,5.5708,5.5708,5.5708,5.5708,5.5708,5.5708,5.5631,5.5497,5.5497,5.542,5.5261,5.5261,5.4895,5.426,0.0,0.0,5.2928,5.2197,5.1813,5.162,5.0957,5.0707,5.0707,5.0707,5.0707,5.0707,5.0707,5.0707,5.0707,5.0707,5.0678,5.0663,5.0663,5.0678,5.0665,5.0511,5.0503,5.0505,5.0328,5.0296,5.0296,5.0278,5.0182,5.0025,4.9728,4.9397,4.9007,4.8456,4.7637,4.7114,4.744,4.6307,4.557,4.6184,4.5073,4.4146,4.4104,4.3579,4.3251,4.3394,4.3403,4.342,4.3479,4.3506,4.3506,4.3506,4.3765,4.3716,4.326,4.3855,4.4125,4.3946,4.4311,4.4617,4.4895,4.4895,4.4895,4.492,4.6001,4.6983,4.4932,4.5435,4.5594,4.5594,4.5936,4.6047,4.5128,0.0,0.0,0.0,0.0,0.0,4.5509,0.0,0.0,0.0,0.0,0.0,0.0,0.0,0.0,0.0,0.0,0.0,0.0,0.0,0.0,0.0,0.0,0.0,5.5708,5.5708,5.5708,5.5708,5.5708,5.5708,5.5708,5.5708,5.5708,5.5708,5.5708,5.5708,5.5708,5.5708,5.5497,5.5112,5.4684,0.0,5.3121,5.2255,5.1659,5.1241,5.0842,5.0707,5.0707,5.0707,5.0707,5.0707,5.0707,5.0707,5.0707,5.0707,5.0707,5.0707,5.0707,5.0956,5.1141,5.0723,5.0855,5.1026,5.053,5.0399,5.0388,5.0354,5.0302,5.0206,5.0038,4.9611,4.9169,4.8952,4.8316,4.7867,4.8034,4.736,4.6782,4.6713,4.6012,4.5367,4.4968,4.4242,4.3652,4.3332,4.3305,4.3349,4.3497,4.3506,4.3565,4.3757,4.387,4.3886,4.3736,4.4166,4.4334,4.4169,4.4484,4.4732,4.4895,4.5369,4.5637,4.5772,4.726,4.8309,4.5437,4.574,4.5594,4.5594,4.6105,4.622,4.4643,4.524,0.0,0.0,0.0,0.0,0.0,0.0,0.0,0.0,0.0,0.0,0.0,0.0,0.0,0.0,0.0,0.0,0.0,0.0,0.0,0.0,0.0,0.0,5.5708,5.5708,5.5708,5.5708,5.5708,5.5708,5.5708,5.5708,5.5708,5.5708,5.5708,5.5708,5.5689,5.5516,5.5439,5.5401,5.4587,0.0,0.0,5.2255,5.1524,5.0938,5.0765,5.0707,5.0707,5.0707,5.0707,5.0707,5.0707,5.0707,5.0707,5.0707,5.0707,5.0707,5.0707,5.1144,5.1505,5.088,5.1164,5.1466,5.0736,5.0542,5.0511,5.0371,5.0342,5.0319,5.0249,4.9857,4.949,4.9329,4.8885,4.8458,4.8267,4.8187,4.7868,4.7086,4.6833,4.649,4.584,4.5021,4.425,4.3515,4.3287,4.3286,4.3522,4.3539,4.3699,4.4017,4.4059,4.4094,4.4181,4.45,4.4595,4.4397,4.4726,4.4895,4.4895,4.5767,4.6208,4.6275,4.835,4.9351,4.5437,4.574,4.5594,4.5594,4.5667,4.5475,4.4513,0.0,0.0,0.0,4.2043,4.2562,4.3932,0.0,0.0,0.0,0.0,0.0,0.0,0.0,0.0,0.0,0.0,0.0,0.0,0.0,0.0,0.0,0.0,0.0,0.0,5.5708,5.5708,5.5708,5.5708,5.5708,5.5708,5.5708,5.5708,5.5708,5.5708,5.5708,5.5689,5.4934,5.4607,5.4549,0.0,0.0,0.0,5.2255,5.1865,5.1717,5.0996,5.0707,5.0707,5.0707,5.0707,5.0707,5.0707,5.0707,5.0707,5.0707,5.0707,5.0707,5.0707,5.0745,5.0784,5.0726,5.0745,5.0784,5.0697,5.0673,5.0648,5.0516,5.0489,5.0457,5.0319,5.0302,5.0169,4.974,4.942,4.9021,4.8477,4.8139,4.7894,4.7801,4.7075,4.6547,4.6583,4.5787,4.4951,4.4268,4.3559,4.326,4.3656,4.3679,4.3825,4.4155,4.4458,4.4465,4.4113,4.4667,4.4796,4.4416,4.4726,4.4895,4.4895,4.5767,4.5906,4.5394,4.8115,4.9083,4.5439,4.5758,4.5594,4.5594,4.5594,4.5359,4.4494,0.0,0.0,4.1985,4.1373,4.1373,4.2585,4.322,0.0,0.0,0.0,0.0,0.0,0.0,0.0,0.0,0.0,0.0,0.0,0.0,0.0,0.0,0.0,0.0,0.0,5.5708,5.5708,5.5708,5.5708,5.5708,5.5708,5.5708,5.5708,5.5708,5.5708,5.5458,5.4972,5.4645,5.4203,5.3664,0.0,0.0,0.0,5.1529,5.1183,5.1144,5.0822,5.0707,5.0707,5.0707,5.0707,5.0707,5.0707,5.0707,5.0707,5.0707,5.0707,5.0707,5.0707,5.0707,5.0707,5.0707,5.0707,5.0707,5.0707,5.0707,5.0697,5.0633,5.0623,5.0584,5.05,5.0352,5.0149,4.991,4.9622,4.9306,4.8932,4.8806,4.8684,4.8532,4.8042,4.7717,4.7774,4.7039,4.6397,4.6131,4.493,4.402,4.3716,4.3871,4.4132,4.4486,4.4587,4.464,4.4635,4.4827,4.5098,4.5481,4.5105,4.5407,4.6411,4.6862,4.7316,4.7778,4.9505,5.0255,4.5375,4.5752,4.5594,4.5594,4.5594,4.5359,0.0,0.0,4.2854,4.1985,4.1104,4.0762,4.1639,4.2504,4.3451,0.0,4.5629,4.6725,0.0,0.0,0.0,0.0,0.0,0.0,0.0,0.0,0.0,0.0,0.0,0.0,0.0,5.5708,5.5708,5.5708,5.5708,5.5708,5.5708,5.5708,5.5574,5.5343,5.5343,5.4914,5.4107,5.3857,5.3395,5.2774,0.0,0.0,0.0,5.0938,5.0707,5.0707,5.0707,5.0707,5.0707,5.0707,5.0707,5.0707,5.0707,5.0707,5.0707,5.0707,5.0707,5.0707,5.0707,5.0707,5.0707,5.0707,5.0707,5.0707,5.0707,5.0707,5.0707,5.0707,5.0707,5.0697,5.0633,5.0446,5.0249,5.0153,4.9891,4.9615,4.9394,4.9329,4.9234,4.9016,4.8836,4.8698,4.8672,4.8188,4.7735,4.7468,4.6263,4.5148,4.4384,4.4278,4.4393,4.4732,4.4706,4.4764,4.4955,4.4938,4.5312,4.619,4.5596,4.6018,4.7526,4.7894,4.8447,4.9131,5.0352,5.1072,4.5203,4.5752,4.5594,4.5594,4.5594,4.5359,0.0,4.3682,4.2854,4.1985,4.1104,4.0762,4.1639,4.2504,4.3643,4.5321,4.699,0.0,0.0,0.0,0.0,0.0,0.0,0.0,0.0,0.0,0.0,0.0,0.0,0.0,0.0,5.5708,5.5708,5.5708,5.5708,5.5708,5.5708,5.5708,5.5304,5.4511,5.4511,5.4068,5.3178,5.2313,5.1923,0.0,0.0,0.0,0.0,5.0707,5.0707,5.0707,5.0707,5.0707,5.0707,5.0707,5.0707,5.0707,5.0707,5.0707,5.0707,5.0707,5.0707,5.0707,5.0707,5.0707,5.0707,5.0707,5.0707,5.0707,5.0707,5.0707,5.0707,5.0707,5.0707,5.0707,5.0707,5.0707,5.0653,5.0521,5.0279,5.0006,4.9742,4.9476,4.9273,4.9216,4.9182,4.9177,4.9099,4.9091,4.8741,4.7884,4.7301,4.6643,4.5843,4.4927,4.455,4.4877,4.4889,4.4889,4.4895,4.4895,4.5312,4.619,4.619,4.6726,4.7807,4.8593,4.8782,4.8448,5.0192,5.1148,4.3841,4.4501,4.4681,4.4042,4.3893,4.3662,4.2797,4.2389,4.1966,4.1089,4.0685,4.0762,4.1639,4.1546,4.2455,4.5932,4.6432,0.0,0.0,0.0,0.0,0.0,0.0,0.0,0.0,0.0,0.0,0.0,0.0,0.0,0.0,5.5708,5.5708,5.5708,5.517,5.4876,5.4876,5.4299,5.3857,5.3606,5.3606,5.3159,5.2294,5.2019,0.0,0.0,0.0,0.0,0.0,5.0707,5.0707,5.0707,5.0707,5.0731,5.0767,5.0717,5.0736,5.0763,5.0717,5.0707,5.0707,5.0707,5.0707,5.0707,5.0707,5.0707,5.0707,5.0707,5.0707,5.0707,5.0707,5.0707,5.0707,5.0707,5.0707,5.0707,5.0707,5.0707,5.0697,5.0643,5.0579,5.0442,5.0285,5.0201,5.0153,5.0038,4.9781,4.9589,4.9568,4.9587,4.9471,4.92,4.8148,4.7011,4.5896,4.5146,4.4789,4.4889,4.4895,4.4895,4.4895,4.4895,4.5336,4.6256,4.6356,4.718,4.8764,4.9236,4.9789,5.0371,5.0341,5.069,0.0,4.3692,4.3867,4.3246,4.3104,4.2874,4.2004,4.1793,4.1542,4.0685,4.0496,4.0666,4.12,4.1123,4.2066,4.5374,4.5451,0.0,0.0,0.0,0.0,0.0,0.0,0.0,0.0,0.0,0.0,0.0,0.0,0.0,0.0,0.0,5.4761,5.4761,5.4587,5.4337,5.401,5.3472,5.3024,5.2717,5.2717,5.2274,5.1447,5.1447,0.0,0.0,0.0,0.0,0.0,5.0553,5.0515,5.025,5.0596,5.0767,5.0793,5.0749,5.079,5.0831,5.0763,5.075,5.075,5.075,5.0721,5.0707,5.0707,5.0707,5.0707,5.0707,5.0707,5.0707,5.0707,5.0707,5.0707,5.0707,5.0707,5.0707,5.0707,5.0707,5.0707,5.0707,5.0707,5.0668,5.0598,5.0613,5.0608,5.054,5.0308,5.0121,5.0116,5.0091,5.0086,5.0069,4.8686,4.7455,4.667,4.5595,4.4986,4.4986,4.5014,4.5057,4.5057,4.5057,4.5479,4.6434,4.6536,4.7336,4.8905,4.9202,4.9702,5.034,4.9795,4.9838,0.0,4.3136,4.3097,4.2957,4.2912,4.2701,4.1889,4.1716,0.0,4.0666,4.0496,4.0535,4.0669,4.1258,4.2312,4.4182,4.4432,0.0,0.0,0.0,0.0,0.0,0.0,0.0,0.0,0.0,0.0,0.0,0.0,0.0,0.0,0.0,5.3159,5.3101,5.3895,5.3933,5.3121,5.3044,5.262,5.1813,5.1813,5.1414,5.0707,5.0707,0.0,0.0,0.0,0.0,0.0,5.0212,5.0043,4.9418,5.0346,5.0718,5.0741,5.0791,5.0841,5.0898,5.0836,5.081,5.081,5.081,5.0763,5.0702,5.0702,5.0697,5.0707,5.0707,5.0707,5.0707,5.0707,5.0707,5.0707,5.0707,5.0707,5.0707,5.0707,5.0707,5.0707,5.0707,5.0707,5.0707,5.0707,5.0707,5.0707,5.0707,5.0707,5.0687,5.0613,5.0608,5.0588,5.0516,4.8949,4.7921,4.7897,4.6192,4.512,4.512,4.5224,4.5302,4.5302,4.5298,4.5725,4.6601,4.6707,4.7295,4.8428,4.862,4.8737,4.8802,4.8735,4.8737,4.0207,0.0,4.2153,4.1323,4.1108,4.105,0.0,0.0,0.0,0.0,0.0,4.092,4.2243,4.157,4.2012,4.5697,0.0,0.0,0.0,0.0,0.0,0.0,0.0,0.0,0.0,0.0,0.0,0.0,0.0,0.0,0.0,0.0,5.289,5.2236,5.2409,5.2409,5.2217,5.1606,5.1188,5.0976,5.0976,5.088,5.0707,5.0707,0.0,0.0,0.0,0.0,4.9365,4.8967,4.8671,4.8583,4.9524,4.9946,5.0091,5.0666,5.0925,5.0961,5.0902,5.0874,5.0874,5.0874,5.0836,5.0785,5.0785,5.073,5.0707,5.0707,5.0707,5.0707,5.0707,5.0707,5.0707,5.0707,5.0707,5.0707,5.0707,5.0707,5.0707,5.0707,5.0707,5.0707,5.0707,5.0707,5.0707,5.0707,5.0707,5.0683,5.0673,5.0687,5.0648,5.0588,4.902,4.7958,4.7897,4.6268,4.524,4.524,4.5286,4.5302,4.5302,4.5343,4.5538,4.5841,4.671,4.767,4.8707,4.8091,4.8158,4.8784,4.8112,4.8159,3.882,4.0514,4.1937,4.1253,4.1104,4.1104,0.0,0.0,0.0,0.0,0.0,0.0,4.1724,0.0,0.0,0.0,0.0,0.0,0.0,0.0,0.0,0.0,0.0,0.0,0.0,0.0,0.0,0.0,0.0,0.0,0.0,0.0,5.1837,5.1356,5.1356,5.1356,5.1356,5.0919,5.0707,5.0707,5.0707,5.0495,5.0091,5.0091,0.0,0.0,0.0,0.0,4.8308,4.8297,4.8063,4.7782,4.8739,4.9144,4.9291,5.0102,5.0447,5.0536,5.0849,5.0955,5.0932,5.0914,5.087,5.0857,5.0857,5.0793,5.073,5.0702,5.0707,5.0707,5.0707,5.0707,5.0707,5.0707,5.0707,5.0707,5.0707,5.0707,5.0707,5.0707,5.0707,5.0707,5.0707,5.0707,5.0707,5.0707,5.0707,5.0553,5.0149,5.0091,4.9942,4.9505,4.8289,4.7473,4.7448,4.6215,4.5409,4.5341,4.5404,4.5477,4.5525,4.5566,4.5653,4.5831,4.6464,4.7067,4.7614,4.713,4.7154,4.7607,4.7124,4.7166,3.8261,4.025,4.2003,4.1685,4.16,4.16,0.0,0.0,0.0,0.0,0.0,0.0,0.0,0.0,0.0,0.0,0.0,0.0,0.0,0.0,0.0,0.0,0.0,0.0,0.0,0.0,0.0,0.0,0.0,0.0,0.0,0.0,0.0,5.0707,5.0572,5.0495,5.0495,5.063,5.0707,5.0707,5.0572,5.0111,4.9394,4.926,4.8807,0.0,0.0,0.0,4.7066,4.7747,4.7586,4.7017,4.7944,4.8319,4.8419,4.9317,4.9755,4.9995,5.0613,5.0823,5.0813,5.0765,5.0735,5.0743,5.0879,5.0866,5.0801,5.0759,5.0712,5.0707,5.0707,5.0707,5.0707,5.0707,5.0707,5.0707,5.0707,5.0707,5.0707,5.0707,5.0707,5.0707,5.0707,5.0707,5.0707,5.0707,5.0601,5.0255,4.9495,4.9288,4.8923,4.8182,4.7389,4.6898,4.691,4.6129,4.5593,4.5482,4.5569,4.5704,4.5838,4.5841,4.5927,4.6108,4.6162,4.6201,4.6195,4.6205,4.6208,4.6199,4.6184,4.6175,3.8921,4.0643,4.1805,4.0915,4.0704,4.0704,0.0,0.0,0.0,0.0,0.0,0.0,0.0,0.0,0.0,0.0,0.0,0.0,0.0,0.0,0.0,0.0,0.0,0.0,0.0,0.0,0.0,0.0,0.0,0.0,0.0,0.0,0.0,5.0707,4.9976,4.961,4.961,5.0322,5.0707,5.0688,4.9957,4.9529,4.9375,4.8644,4.8262,0.0,0.0,4.7159,4.7035,4.6519,4.6203,4.619,4.7123,4.7476,4.7603,4.8528,4.9311,4.9923,5.0028,5.0064,5.0064,5.0052,5.0009,5.0095,5.0789,5.0948,5.0878,5.0866,5.0794,5.0707,5.0707,5.0707,5.0707,5.0707,5.0707,5.0707,5.0707,5.0707,5.0707,5.0707,5.0707,5.0707,5.0707,5.0707,5.0707,5.0707,5.0125,4.9614,4.9418,4.8811,4.8301,4.8125,4.7389,4.6913,4.6978,4.6247,4.5782,4.5826,4.5796,4.5858,4.6048,4.6054,4.6101,4.6172,4.6182,4.6202,4.6194,4.6199,4.6206,4.6197,4.6132,4.6128,3.7851,3.9005,3.9997,4.0407,4.1531,0.0,0.0,0.0,0.0,0.0,0.0,0.0,0.0,0.0,0.0,0.0,0.0,0.0,0.0,0.0,0.0,0.0,0.0,0.0,0.0,0.0,0.0,0.0,0.0,0.0,0.0,0.0,0.0,0.0,4.961,4.9163,4.8702,4.9086,4.9298,4.9298,4.9375,4.8941,4.8086,4.77,4.7295,4.6897,0.0,4.6477,4.6474,4.618,4.6062,4.6103,4.6548,4.6684,4.6764,4.7658,4.853,4.9251,4.9244,4.9248,4.9326,4.9761,4.9881,5.001,5.0848,5.1046,5.0947,5.0947,5.085,5.0753,5.0753,5.0731,5.0707,5.0707,5.0707,5.0707,5.0707,5.0663,5.0643,5.0643,5.0643,5.0643,5.0643,5.0687,5.0534,5.0072,4.9682,4.911,4.8163,4.7739,4.7336,4.6896,4.6537,4.6333,4.64,4.6069,4.5863,4.5899,4.5949,4.6005,4.6107,4.6121,4.6178,4.6204,4.6209,4.6208,4.6203,4.6152,4.616,4.6145,4.6082,4.6042,3.7006,3.7802,3.8769,0.0,0.0,0.0,0.0,0.0,0.0,0.0,0.0,0.0,0.0,0.0,0.0,0.0,0.0,0.0,0.0,0.0,0.0,0.0,0.0,0.0,0.0,0.0,0.0,0.0,0.0,0.0,0.0,0.0,0.0,0.0,4.8913,4.8503,4.7853,4.7847,4.7944,4.8157,4.8623,4.8209,4.7033,4.6835,4.6404,4.5857,4.5969,4.6019,4.6023,4.6158,4.6203,4.6203,4.6203,4.617,4.6221,4.7081,4.7833,4.8429,4.8401,4.8399,4.8496,4.9106,4.93,4.9527,5.0587,5.0847,5.0764,5.0764,5.082,5.0875,5.0812,5.0749,5.0707,5.0707,5.0697,5.0687,5.0687,5.0623,5.0582,5.0598,5.0598,5.0556,5.0375,5.038,5.0129,4.9294,4.9007,4.8418,4.7137,4.6806,4.6461,4.5883,4.5815,4.5853,4.593,4.598,4.5992,4.5985,4.6087,4.613,4.6112,4.6165,4.6202,4.6201,4.6176,4.6177,4.6187,4.6107,4.6072,4.6075,4.6005,4.598,3.7608,3.8601,3.9603,0.0,0.0,0.0,0.0,0.0,0.0,0.0,0.0,0.0,0.0,0.0,0.0,0.0,0.0,0.0,0.0,0.0,0.0,0.0,0.0,0.0,0.0,0.0,0.0,0.0,0.0,0.0,0.0,0.0,0.0,0.0,0.0,4.7087,4.7078,4.7075,4.7496,4.8285,4.752,4.7176,4.7161,4.6355,4.5987,4.5989,4.6001,4.6033,4.6102,4.6165,4.6203,4.6203,4.6203,4.6199,4.6288,4.7107,4.7486,4.7576,4.7517,4.7484,4.7503,4.7563,4.758,4.7889,4.9572,5.0076,5.0072,5.0072,5.0597,5.1105,5.0867,5.0749,5.0707,5.0707,5.0648,5.0608,5.0608,5.0548,5.0521,5.0588,5.0598,5.0389,4.9697,4.9577,4.9327,4.8581,4.7837,4.7305,4.72,4.6538,4.6026,4.5911,4.5889,4.5954,4.6066,4.6207,4.6268,4.6276,4.6279,4.6256,4.6203,4.6192,4.6206,4.6199,4.6138,4.6113,4.6104,4.6047,4.6008,4.6017,4.593,4.5917,3.6399,3.789,0.0,0.0,0.0,0.0,0.0,0.0,0.0,0.0,0.0,0.0,0.0,0.0,0.0,0.0,0.0,0.0,0.0,0.0,0.0,0.0,0.0,0.0,0.0,0.0,0.0,0.0,0.0,0.0,0.0,0.0,0.0,0.0,0.0,4.6727,4.6254,4.6299,4.6515,4.6927,4.7011,4.6848,4.6432,4.6151,4.605,4.6128,4.6167,4.619,4.6177,4.623,4.6268,4.6268,4.6229,4.623,4.6281,4.6562,4.6699,4.6731,4.6679,4.6656,4.6734,4.7281,4.7428,4.763,4.8878,4.9218,4.9192,4.9192,4.9772,5.0379,5.0262,5.0565,5.0888,5.0887,5.0874,5.0851,5.0859,5.0363,4.995,4.9972,4.9531,4.9087,4.8802,4.8793,4.8555,4.7763,4.7385,4.6993,4.6463,4.6141,4.5955,4.6026,4.6093,4.6174,4.6215,4.6266,4.6309,4.6305,4.6305,4.6276,4.6195,4.6157,4.6136,4.6139,4.6068,4.6046,4.6042,4.597,4.593,4.5944,4.588,4.5848,3.5966,3.7601,0.0,0.0,0.0,0.0,0.0,0.0,0.0,0.0,0.0,0.0,0.0,0.0,0.0,0.0,0.0,0.0,0.0,0.0,0.0,0.0,0.0,0.0,0.0,0.0,0.0,0.0,0.0,0.0,0.0,0.0,0.0,0.0,0.0,4.6402,4.5892,4.5914,4.6005,4.6149,4.6593,4.6563,4.61,4.6147,4.6189,4.62,4.6262,4.6259,4.6211,4.6274,4.6301,4.6303,4.6243,4.6259,4.6284,4.6243,4.6259,4.6285,4.6245,4.6229,4.6327,4.6933,4.7089,4.722,4.8144,4.8396,4.8342,4.8342,4.8954,4.9517,4.9216,5.0086,5.1031,5.1023,5.0807,5.0597,5.0584,4.984,4.9183,4.9183,4.8701,4.8233,4.8025,4.8012,4.7787,4.7007,4.6885,4.666,4.6065,4.5998,4.6036,4.6111,4.6234,4.6301,4.6301,4.63,4.6284,4.6272,4.6272,4.6245,4.6167,4.611,4.6073,4.6072,4.599,4.5971,4.5962,4.5894,4.5877,4.5877,4.5827,4.5803,3.6725,0.0,0.0,0.0,0.0,0.0,0.0,0.0,0.0,0.0,0.0,0.0,0.0,0.0,0.0,0.0,0.0,0.0,0.0,0.0,0.0,0.0,0.0,0.0,0.0,0.0,0.0,0.0,0.0,0.0,0.0,0.0,0.0,0.0,0.0,0.0,4.6106,4.6038,4.6067,4.6191,4.6191,4.6247,4.6301,4.6301,4.6258,4.6191,4.6275,4.6258,4.6211,4.6274,4.6301,4.6301,4.6301,4.6301,4.6301,4.6301,4.6301,4.6302,4.6291,4.6293,4.6294,4.63,4.6301,4.6458,4.7336,4.7589,4.7589,4.7589,4.8214,4.8667,4.7734,4.9274,5.1074,5.1074,5.037,4.9698,4.9698,4.8947,4.8287,4.8292,4.828,4.8076,4.7406,4.7291,4.7048,4.6305,4.6195,4.6204,4.6204,4.6199,4.6207,4.6207,4.627,4.6302,4.6302,4.6296,4.6267,4.6209,4.6209,4.6171,4.6092,4.6026,4.6005,4.6003,4.5922,4.5908,4.5908,4.5822,4.5803,4.5803,4.5803,4.5803,3.6051,0.0,0.0,0.0,0.0,0.0,0.0,0.0,0.0,0.0,0.0,0.0,0.0,0.0,0.0,0.0,0.0,0.0,0.0,0.0,0.0,0.0,0.0,0.0,0.0,0.0,0.0,0.0,0.0,0.0,0.0,0.0,0.0,0.0,0.0,0.0,4.6106,4.6172,4.6226,4.6275,4.6275,4.6261,4.6228,4.6272,4.6287,4.6275,4.6285,4.6287,4.6274,4.6285,4.6301,4.6301,4.6307,4.6309,4.6291,4.6295,4.6297,4.6297,4.6299,4.63,4.63,4.6301,4.6301,4.634,4.6614,4.6694,4.6696,4.6696,4.7303,4.7929,4.7637,4.8568,4.9546,4.9492,4.9277,4.9075,4.9069,4.8367,4.7746,4.7744,4.7231,4.6763,4.6568,4.6534,4.6441,4.6221,4.6206,4.6208,4.6208,4.6238,4.6262,4.6262,4.6246,4.623,4.623,4.6146,4.6076,4.6069,4.6011,4.5994,4.6023,4.5968,4.5926,4.592,4.5859,4.5838,4.5838,4.5817,4.5803,4.5803,4.565,4.5594,0.0,0.0,0.0,0.0,0.0,0.0,0.0,0.0,0.0,0.0,0.0,0.0,0.0,0.0,0.0,0.0,0.0,0.0,0.0,0.0,0.0,0.0,0.0,0.0,0.0,0.0,0.0,0.0,0.0,0.0,0.0,0.0,0.0,0.0,0.0,0.0,4.6172,4.6256,4.6301,4.6301,4.6301,4.6272,4.6245,4.627,4.6301,4.6301,4.6301,4.6301,4.6301,4.6301,4.6302,4.6306,4.6291,4.6295,4.6297,4.6301,4.6301,4.6302,4.6303,4.6304,4.6304,4.6306,4.6306,4.6306,4.6306,4.6307,4.6308,4.6308,4.6679,4.707,4.707,4.7461,4.8027,4.8683,4.8578,4.8321,4.8326,4.7616,4.6984,4.6989,4.6557,4.6203,4.6203,4.6203,4.6203,4.6203,4.6203,4.6203,4.6203,4.6218,4.6225,4.6225,4.6168,4.611,4.611,4.6066,4.6036,4.599,4.5951,4.5933,4.5918,4.5879,4.5867,4.5867,4.5845,4.5847,4.5847,4.5782,4.576,4.5757,4.5543,4.5446,0.0,0.0,0.0,0.0,0.0,0.0,0.0,0.0,0.0,0.0,0.0,0.0,0.0,0.0,0.0,0.0,0.0,0.0,0.0,0.0,0.0,0.0,0.0,0.0,0.0,0.0,0.0,0.0,0.0,0.0,0.0,0.0,0.0,0.0,0.0,0.0,4.6301,4.6301,4.6301,0.0,4.6301,4.6301,4.6302,4.6301,4.6301,4.6301,4.6302,4.6302,4.6302,4.6302,4.6307,4.6294,4.6295,4.6298,4.6302,4.6303,4.6303,4.6303,4.6306,4.6307,4.6307,4.6308,4.6308,4.6308,4.6308,4.6308,4.6308,4.6308,4.6308,4.6308,4.6289,4.6289,4.6699,4.8281,4.8046,4.7475,4.7475,4.6803,4.6207,4.6207,4.6207,4.6207,4.6207,4.6207,4.6209,4.6192,4.6192,4.6193,4.6196,4.6132,4.6093,4.6093,4.6043,4.6,4.6,4.6045,4.6046,4.5991,4.5986,4.5935,4.581,4.5803,4.5803,4.5803,4.586,4.5893,4.588,4.5757,4.5696,4.568,4.5471,4.5332,0.0,0.0,0.0,0.0,0.0,0.0,0.0,0.0,0.0,0.0,0.0,0.0,0.0,0.0,0.0,0.0,0.0,0.0,0.0,0.0,0.0,0.0,0.0,0.0,0.0,0.0,0.0,0.0,0.0,0.0,0.0,0.0,0.0,0.0,0.0,4.6304,4.6301,4.6301,4.6301,0.0,4.6301,4.6304,4.6291,4.6303,4.6301,4.6301,4.6307,4.6291,4.6291,4.6296,4.6299,4.6301,4.6304,4.6305,4.6306,4.6308,4.6308,4.6308,4.6308,4.6308,4.6308,4.6308,4.6308,4.6308,4.6308,4.6308,4.6308,4.6308,4.6308,4.6289,4.6238,4.6213,4.6311,4.6682,4.6677,4.6582,4.6582,4.6425,4.6288,4.6288,4.6288,4.6288,4.6288,4.6288,4.6269,4.6204,4.6202,4.6175,4.6126,4.6111,4.6103,4.6103,4.6033,4.5993,4.5993,4.5922,4.5864,4.5835,4.5832,4.5838,4.5807,4.5803,4.5803,4.5803,4.586,4.5823,4.5657,4.5684,4.5616,4.5466,4.525,4.5156,0.0,0.0,0.0,0.0,0.0,0.0,0.0,0.0,0.0,0.0,0.0,0.0,0.0,0.0,0.0,0.0,0.0,0.0,0.0,0.0,0.0,0.0,0.0,0.0,0.0,0.0,0.0,0.0,0.0,0.0,0.0,0.0,0.0,0.0,4.6305,4.6301,4.6301,4.624,4.6209,4.6209,4.6168,4.6165,4.6202,4.6261,4.6293,4.6293,4.6296,4.6294,4.6307,4.6292,4.6272,4.6249,4.6254,4.6209,4.6162,4.6264,4.6219,4.6117,4.6219,4.6237,4.6205,4.6205,4.6205,4.6205,4.6205,4.6205,4.6205,4.6205,4.6205,4.62,4.6158,4.615,4.615,4.615,4.617,4.621,4.6241,4.6235,4.6205,4.6205,4.6205,4.6205,4.6205,4.6205,4.6199,4.6154,4.615,4.6139,4.6105,4.6066,4.6039,4.6039,4.5966,4.5895,4.5895,4.5848,4.5803,4.5803,4.5803,4.5803,4.5803,4.5803,4.5814,4.585,4.5819,4.5749,4.5642,4.5518,4.5371,4.5206,4.5001,4.4852,0.0,0.0,0.0,0.0,0.0,0.0,0.0,0.0,0.0,0.0,0.0,0.0,0.0,0.0,0.0,0.0,0.0,0.0,0.0,0.0,0.0,0.0,0.0,0.0,0.0,0.0,0.0,0.0,0.0,0.0,0.0,0.0,4.6292,4.6271,4.6271,4.6247,4.6239,4.6112,4.6061,4.6061,4.6013,4.6041,4.6106,4.6181,4.623,4.6269,4.6248,4.6239,4.6222,4.622,4.6173,4.6124,4.6124,4.6061,4.5994,4.6148,4.6078,4.5905,4.6078,4.6095,4.607,4.607,4.6075,4.61,4.61,4.61,4.61,4.61,4.61,4.6096,4.6084,4.608,4.608,4.608,4.6068,4.6066,4.6161,4.6139,4.61,4.61,4.61,4.61,4.61,4.61,4.6095,4.6082,4.608,4.6074,4.6041,4.6008,4.5969,4.5969,4.5877,4.5803,4.5803,4.5803,4.5803,4.5803,4.5803,4.5803,4.5803,4.5786,4.5793,4.585,4.5757,4.5649,4.5559,4.5304,4.5074,4.4903,4.4739,4.4578,0.0,0.0,0.0,0.0,0.0,0.0,0.0,0.0,0.0,0.0,0.0,0.0,0.0,0.0,0.0,0.0,0.0,0.0,0.0,0.0,0.0,0.0,0.0,0.0,0.0,0.0,0.0,0.0,0.0,0.0,0.0,4.6293,4.6248,4.6136,4.6133,4.6064,4.5945,4.593,4.5925,4.5925,4.5978,4.6046,4.6105,4.5992,4.6014,4.6111,4.5994,4.5942,4.5955,4.5896,4.5864,4.5843,4.5843,4.5835,4.5828,4.5869,4.584,4.5818,4.584,4.5885,4.5929,4.5929,4.6014,4.61,4.61,4.61,4.61,4.61,4.61,4.6084,4.6025,4.6003,4.6003,4.6003,4.5925,4.5891,4.6064,4.6107,4.61,4.61,4.61,4.61,4.61,4.61,4.6076,4.6015,4.6003,4.5966,4.5858,4.5825,4.5834,4.5834,4.5817,4.5803,4.5803,4.5803,4.5803,4.5803,4.5803,4.5803,4.5803,4.5688,4.5669,4.5731,4.5715,4.5473,4.5017,4.5011,4.4868,4.4572,4.453,4.4515,0.0,0.0,0.0,0.0,0.0,0.0,0.0,0.0,0.0,0.0,0.0,0.0,0.0,0.0,0.0,0.0,0.0,0.0,0.0,0.0,0.0,0.0,0.0,0.0,0.0,0.0,0.0,0.0,0.0,0.0,4.6301,4.6232,4.615,4.6102,4.6068,4.6002,4.5902,4.5853,4.5819,4.574,4.5712,4.5756,4.5812,4.5757,4.5832,4.5977,4.5898,4.5844,4.5834,4.582,4.5774,4.5741,4.5741,4.5693,4.5654,4.5753,4.5699,4.5592,4.5699,4.5748,4.5727,4.5727,4.577,4.5816,4.5816,4.5816,4.5816,4.5816,4.5816,4.5799,4.5777,4.5773,4.5791,4.5791,4.5756,4.5778,4.5863,4.5917,4.5919,4.5919,4.5919,4.5919,4.5919,4.5919,4.5922,4.5886,4.5899,4.5877,4.5814,4.5803,4.5803,4.5803,4.5803,4.5803,4.5803,4.5803,4.5803,4.5803,4.5684,4.5622,4.5574,4.5413,4.525,4.5133,4.5209,4.5147,4.4962,4.4795,4.4601,4.4387,4.4387,4.4325,0.0,0.0,0.0,0.0,0.0,0.0,0.0,0.0,0.0,0.0,0.0,0.0,0.0,0.0,0.0,0.0,0.0,0.0,0.0,0.0,0.0,0.0,0.0,0.0,0.0,0.0,0.0,0.0,0.0,0.0,4.6271,4.6189,4.6096,4.6054,4.6,4.5928,4.5855,4.5783,4.5576,4.5246,4.5421,4.5546,4.559,4.5568,4.5623,4.5775,4.5728,4.5696,4.5703,4.5682,4.5642,4.5603,4.5603,4.5545,4.5464,4.5631,4.5558,4.54,4.5558,4.5573,4.5555,4.5555,4.5573,4.5594,4.5594,4.5594,4.5594,4.5594,4.5599,4.5593,4.5593,4.5603,4.5636,4.5636,4.5665,4.5704,4.5673,4.5719,4.5757,4.5749,4.5746,4.5746,4.5746,4.5746,4.5746,4.5746,4.5746,4.5746,4.5746,4.5746,4.5746,4.5746,4.5746,4.5711,4.5627,4.5623,4.5591,4.5559,4.5407,4.5309,4.5266,4.5104,4.4896,4.4695,4.4726,4.4764,4.4813,4.458,4.438,4.4214,4.4214,4.4147,0.0,0.0,0.0,0.0,0.0,0.0,0.0,0.0,0.0,0.0,0.0,0.0,0.0,0.0,0.0,0.0,0.0,0.0,0.0,0.0,0.0,0.0,0.0,0.0,0.0,0.0,0.0,0.0,0.0,0.0,4.6213,4.6201,4.6107,4.5913,4.5901,4.5835,4.5708,4.5639,4.5158,4.4289,4.5115,4.5546,4.5609,4.5476,4.5429,4.5433,4.5428,4.5424,4.5429,4.5351,4.5324,4.5319,4.5319,4.5309,4.5304,4.5319,4.5314,4.5312,4.5314,4.5361,4.5415,4.5415,4.5499,4.5594,4.5594,4.5594,4.5594,4.5594,4.5605,4.5596,4.5596,4.5648,4.5684,4.5684,4.5704,4.5677,4.5613,4.5609,4.562,4.5616,4.5607,4.5607,4.5607,4.5607,4.5607,4.5607,4.5607,4.5607,4.5607,4.5607,4.5607,4.5607,4.5607,4.5475,4.5157,4.5137,4.5069,4.4859,4.4836,4.4853,4.4924,4.4781,4.4707,4.4688,4.4458,4.4325,4.4344,4.4322,4.4207,4.402,4.402,4.4013,0.0,0.0,0.0,0.0,0.0,0.0,0.0,0.0,0.0,0.0,0.0,0.0,0.0,0.0,0.0,0.0,0.0,0.0,0.0,0.0,0.0,0.0,0.0,0.0,0.0,0.0,0.0,0.0,0.0,0.0,4.6201,4.6078,4.596,4.5892,4.5867,4.5528,4.4873,4.4702,4.4475,4.415,4.4983,4.538,4.5419,4.536,4.5345,4.5345,4.5345,4.5345,4.5339,4.5317,4.5302,4.5302,4.5302,4.5302,4.5302,4.5302,4.5302,4.5302,4.5302,4.5328,4.535,4.5385,4.5419,4.5472,4.5472,4.5472,4.5472,4.5472,4.5462,4.5467,4.5475,4.5521,4.558,4.558,4.5534,4.5498,4.5491,4.5535,4.5593,4.5594,4.5594,4.5594,4.5594,4.5594,4.5594,4.5594,4.5594,4.5527,4.5318,4.528,4.5211,4.5031,4.5061,4.5045,4.4918,4.4946,4.494,4.4872,4.4737,4.4651,4.4644,4.4469,4.4338,4.425,4.4166,4.4169,4.43,4.4169,4.4067,4.4005,4.4005,4.4005,0.0,0.0,0.0,0.0,0.0,0.0,0.0,0.0,0.0,0.0,0.0,0.0,0.0,0.0,0.0,0.0,0.0,0.0,0.0,0.0,0.0,0.0,0.0,0.0,0.0,0.0,0.0,0.0,0.0,0.0,4.613,4.6,4.5904,4.5877,4.5531,4.492,4.3966,4.3788,4.368,4.3665,4.4471,4.5015,4.5302,4.5302,4.5302,4.5302,4.5302,4.5302,4.5302,4.5302,4.5302,4.5302,4.5302,4.5302,4.5302,4.5302,4.5312,4.5333,4.5333,4.5324,4.5345,4.538,4.5395,4.5395,4.5395,4.5395,4.5395,4.5395,4.5424,4.5424,4.54,4.5429,4.5476,4.5476,4.5438,4.5409,4.5394,4.5467,4.5533,4.55,4.5495,4.5495,4.5495,4.5419,4.5332,4.5332,4.5253,4.5115,4.4891,4.4886,4.482,4.4657,4.47,4.4719,4.4606,4.4644,4.4638,4.4568,4.4445,4.4365,4.4332,4.4203,4.4085,4.4005,4.4005,4.4067,4.4192,4.4078,4.4005,4.4005,4.4005,4.4005,0.0,0.0,0.0,0.0,0.0,0.0,0.0,0.0,0.0,0.0,0.0,0.0,0.0,0.0,0.0,0.0,0.0,0.0,0.0,0.0,0.0,0.0,0.0,0.0,0.0,0.0,0.0,0.0,0.0,4.6067,4.6003,4.6003,4.5922,4.5768,4.4916,4.401,4.3059,4.2942,4.2862,4.2813,4.3648,4.447,4.5302,4.5302,4.5302,4.5302,4.5302,4.5302,4.5302,4.5302,4.5302,4.5302,4.5302,4.5302,4.5302,4.5302,4.5338,4.5403,4.5408,4.54,4.5405,4.5405,4.5405,4.5405,4.5405,4.5405,4.5405,4.5405,4.5443,4.549,4.5419,4.5405,4.5405,4.5405,4.5404,4.5403,4.5403,4.5403,4.5388,4.5312,4.5302,4.5302,4.5291,4.5023,4.4788,4.4782,4.4566,4.4409,4.4383,4.4445,4.4486,4.4479,4.4589,4.4534,4.4214,4.4184,4.4106,4.3913,4.3897,4.3937,4.3997,4.4005,4.4005,4.4005,4.4005,4.4005,4.4005,4.4005,4.4005,4.4005,4.4005,4.4005,3.4734,0.0,0.0,0.0,0.0,0.0,0.0,0.0,0.0,0.0,0.0,0.0,0.0,0.0,0.0,0.0,0.0,0.0,0.0,0.0,0.0,0.0,0.0,0.0,0.0,0.0,0.0,0.0,4.6075,4.6019,4.6008,4.5911,4.5553,4.4877,4.3967,4.304,4.2106,4.257,4.2823,4.2813,4.4246,4.5073,4.5302,4.5302,4.5302,4.5302,4.5302,4.5302,4.5302,4.5302,4.5302,4.5302,4.5302,4.5302,4.5307,4.5348,4.5374,4.5394,4.539,4.5395,4.541,4.5467,4.5462,4.5462,4.5462,4.5462,4.5462,4.5462,4.549,4.5499,4.5485,4.5443,4.5409,4.5409,4.5364,4.5328,4.5328,4.5328,4.5323,4.5307,4.5302,4.523,4.4975,4.4862,4.4732,4.4539,4.4445,4.4353,4.4199,4.4199,4.4158,4.4013,4.4067,4.4082,4.3989,4.4036,4.4025,4.3974,4.3966,4.3981,4.4005,4.4005,4.4005,4.4005,4.4005,4.4005,4.4005,4.4005,4.4005,4.4005,4.4005,4.4005,0.0,0.0,0.0,0.0,0.0,0.0,0.0,0.0,0.0,0.0,0.0,0.0,0.0,0.0,0.0,0.0,0.0,0.0,0.0,0.0,0.0,0.0,0.0,0.0,0.0,0.0,0.0,0.0,4.5961,4.5925,4.5923,4.5824,4.5526,4.5013,4.3706,4.294,4.2744,4.2083,4.2273,4.3305,4.394,4.4614,4.5302,4.5302,4.5317,4.5338,4.5338,4.5329,4.533,4.533,4.5339,4.5338,4.5338,4.5334,4.5355,4.539,4.5414,4.5438,4.5448,4.5452,4.5495,4.5522,4.5531,4.5531,4.5531,4.5531,4.5546,4.5508,4.5471,4.5458,4.5458,4.5414,4.5353,4.5353,4.5328,4.5302,4.5302,4.5302,4.5302,4.5302,4.5184,4.5028,4.4818,4.4605,4.4416,4.4265,4.4147,4.4026,4.3916,4.3963,4.3966,4.3851,4.3897,4.3945,4.3945,4.3974,4.4005,4.4005,4.4005,4.4005,4.4005,4.4005,4.4005,4.4005,4.4005,4.4005,4.4005,4.4005,4.4005,4.4005,4.4005,4.4005,0.0,0.0,0.0,0.0,0.0,0.0,0.0,4.0829,0.0,0.0,0.0,0.0,0.0,0.0,0.0,0.0,0.0,0.0,0.0,0.0,0.0,0.0,0.0,0.0,0.0,0.0,4.6058,4.5989,4.588,4.58,4.5793,4.5727,4.5599,4.541,4.3773,4.3176,4.3752,4.1652,4.1681,4.3864,4.3334,4.3864,4.5286,4.5286,4.5297,4.5293,4.5293,4.53,4.5297,4.5307,4.5331,4.5394,4.5394,4.5404,4.5405,4.541,4.5443,4.5499,4.5508,4.5555,4.5594,4.5594,4.5594,4.559,4.5586,4.5586,4.5573,4.5508,4.5443,4.5403,4.5403,4.5343,4.5302,4.5302,4.5302,4.5297,4.5251,4.5246,4.5235,4.5213,4.4975,4.4776,4.472,4.4322,4.3989,4.3958,4.3749,4.3599,4.3615,4.3783,4.3897,4.3905,4.3958,4.4005,4.4005,4.4005,4.4005,4.4005,4.4005,4.4005,4.4005,4.4005,4.4005,4.4005,4.4005,4.4005,4.4005,4.4005,4.4005,4.4005,4.4005,4.4005,0.0,0.0,3.6385,0.0,0.0,0.0,0.0,3.8332,0.0,0.0,0.0,0.0,0.0,0.0,0.0,0.0,0.0,0.0,0.0,0.0,0.0,0.0,0.0,0.0,0.0,0.0,4.5972,4.5844,4.5817,4.5778,4.5715,4.5715,4.5007,4.3497,4.3088,4.232,4.1065,4.1887,4.2565,4.3049,4.4297,4.4972,4.5142,4.5142,4.4978,4.4682,4.4682,4.4644,4.4605,4.4644,4.4954,4.541,4.541,4.5395,4.541,4.5452,4.549,4.5508,4.5564,4.5586,4.5594,4.5594,4.5594,4.5586,4.5546,4.5513,4.5504,4.5434,4.5414,4.5403,4.5403,4.5343,4.5302,4.5302,4.5302,4.523,4.4957,4.491,4.4831,4.4624,4.4707,4.4657,4.4221,4.4071,4.3918,4.3632,4.3599,4.3642,4.3763,4.3843,4.3921,4.3974,4.3997,4.4005,4.4005,4.4005,4.4005,4.4005,4.4005,4.4005,4.4005,4.4005,4.4005,4.4005,4.4005,4.4005,4.4005,4.4005,4.4005,4.4005,4.4005,4.4005,0.0,0.0,3.6204,3.6231,0.0,0.0,0.0,0.0,0.0,0.0,0.0,0.0,0.0,0.0,0.0,0.0,0.0,0.0,0.0,0.0,0.0,0.0,0.0,0.0,0.0,0.0,4.5935,4.5814,4.5803,4.5771,4.5692,4.5664,4.4992,4.3586,4.3512,4.2829,4.1454,4.2205,4.2756,4.3054,4.3946,4.4507,4.4795,4.4795,4.4701,4.4539,4.4513,4.4506,4.4506,4.4539,4.4757,4.5052,4.5052,4.5069,4.5102,4.5148,4.514,4.5164,4.5196,4.5185,4.518,4.5312,4.5237,4.5123,4.5222,4.5164,4.5041,4.4966,4.495,4.4934,4.4904,4.4868,4.4844,4.4844,4.4844,4.4808,4.4631,4.4599,4.4513,4.4257,4.4315,4.4322,4.4041,4.3862,4.3691,4.354,4.3617,4.3728,4.3788,4.3899,4.3958,4.3997,4.4005,4.4005,4.4005,4.4005,4.4005,4.4005,4.4005,4.4005,4.4005,4.4005,4.4005,4.4005,4.4005,4.4005,4.4005,4.4005,4.4005,4.4005,4.4005,4.4005,0.0,0.0,0.0,0.0,0.0,3.6701,0.0,0.0,0.0,0.0,0.0,0.0,0.0,0.0,0.0,0.0,0.0,0.0,0.0,0.0,0.0,0.0,0.0,0.0,0.0,0.0,4.5746,4.5773,4.5627,4.5568,4.564,4.5597,4.5129,4.4125,4.3919,4.3398,4.2506,4.2418,4.2695,4.3346,4.3502,4.3885,4.4479,4.4479,4.4478,4.4436,4.4388,4.4369,4.4385,4.4399,4.4459,4.4545,4.4644,4.4732,4.4788,4.4795,4.4776,4.4776,4.4763,4.472,4.4714,4.4925,4.4818,4.4612,4.4843,4.4739,4.4558,4.4493,4.4479,4.4465,4.4411,4.439,4.439,4.439,4.4404,4.4397,4.4339,4.4346,4.4268,4.3978,4.3942,4.395,4.3934,4.3699,4.354,4.3558,4.3711,4.3829,4.3829,4.3929,4.4005,4.4005,4.4005,4.4005,4.4005,4.4005,4.4005,4.4005,4.4005,4.4005,4.4005,4.4005,4.4005,4.4005,4.4005,4.4005,4.4005,4.4005,4.4005,4.4005,4.4005,4.4005,0.0,0.0,0.0,0.0,3.8705,0.0,0.0,0.0,0.0,0.0,0.0,0.0,0.0,0.0,0.0,0.0,0.0,0.0,0.0,0.0,0.0,0.0,0.0,0.0,0.0,0.0,0.0,4.5669,4.4998,4.4826,4.539,4.5471,4.4959,4.3786,4.3112,4.2563,4.217,4.2195,4.2642,4.3498,4.4197,4.4503,4.4404,4.4404,4.4221,4.3899,4.3891,4.3773,4.3631,4.3697,4.379,4.3961,4.4491,4.4732,4.4788,4.4726,4.4701,4.4695,4.465,4.4624,4.4624,4.4657,4.458,4.4519,4.4553,4.4493,4.4411,4.4404,4.4404,4.4404,4.4397,4.439,4.439,4.439,4.4445,4.4416,4.4106,4.4143,4.4102,4.3714,4.3734,4.3786,4.3657,4.3607,4.3634,4.3754,4.3835,4.3899,4.3899,4.3942,4.4005,4.4005,4.4005,4.4005,4.4005,4.4005,4.4005,4.4005,4.4005,4.4005,4.4005,4.4005,4.4005,4.4005,4.4005,4.4005,4.4005,4.4005,4.4005,4.4005,4.4005,4.4005,0.0,0.0,0.0,0.0,0.0,0.0,0.0,0.0,3.6588,0.0,0.0,0.0,0.0,0.0,0.0,0.0,0.0,0.0,0.0,0.0,0.0,0.0,0.0,0.0,0.0,0.0,0.0,0.0,0.0,4.4702,4.5419,4.549,4.4983,4.3844,4.352,4.291,4.1989,4.2477,4.2829,4.3051,4.3854,4.4196,4.4106,4.4106,4.4028,4.3851,4.382,4.3763,4.3678,4.3711,4.3744,4.3829,4.4071,4.4236,4.4336,4.4257,4.4247,4.424,4.4166,4.408,4.4023,4.4023,4.4129,4.425,4.4128,4.4098,4.4098,4.4064,4.4086,4.4091,4.4064,4.4048,4.4048,4.4048,4.4079,4.4056,4.3913,4.3929,4.3929,4.3753,4.3753,4.3786,4.3775,4.3734,4.3736,4.3788,4.3859,4.3897,4.3897,4.3968,4.4005,4.4005,4.4005,4.4005,4.4005,4.4005,4.4005,4.4005,4.4005,4.4005,4.4005,4.4005,4.4005,4.4005,4.4005,4.4005,4.4005,4.4005,4.4005,4.4005,4.4005,4.4005,0.0,0.0,0.0,0.0,0.0,0.0,0.0,0.0,0.0,0.0,0.0,0.0,0.0,0.0,0.0,0.0,0.0,0.0,0.0,0.0,0.0,0.0,0.0,0.0,0.0,0.0,0.0,0.0,0.0,0.0,4.5428,4.5415,4.5009,4.4153,4.384,4.3307,4.2482,4.284,4.3021,4.3058,4.3651,4.3929,4.3929,4.3929,4.3913,4.3907,4.3843,4.382,4.3796,4.3796,4.3812,4.3837,4.3837,4.3907,4.3989,4.3897,4.3873,4.3899,4.3829,4.3736,4.3659,4.3659,4.3822,4.3989,4.3843,4.3826,4.3859,4.3812,4.3845,4.3859,4.3812,4.3796,4.3796,4.3796,4.382,4.3829,4.3804,4.3837,4.3843,4.3837,4.3835,4.3875,4.3921,4.3875,4.3826,4.3851,4.3907,4.3929,4.3929,4.3966,4.4005,4.4005,4.4005,4.4005,4.4005,4.4005,4.4005,4.4005,4.4005,4.4005,4.4005,4.4005,4.4005,4.4005,4.4005,4.4005,4.4005,4.4005,4.4005,4.4005,4.4005,4.4005,0.0,0.0,0.0,0.0,0.0,0.0,0.0,0.0,3.7277,0.0,0.0,0.0,0.0,0.0,0.0,0.0,0.0,0.0,0.0,0.0,0.0,0.0,0.0,0.0,0.0,0.0,0.0,0.0,0.0,0.0,4.5317,4.5229,4.4977,4.4676,4.3723,4.3446,4.3927,4.3184,4.3195,4.396,4.3978,4.3997,4.3997,4.3997,4.3958,4.3897,4.3907,4.3859,4.3796,4.3796,4.3845,4.3907,4.3907,4.3945,4.3981,4.3851,4.3843,4.3899,4.3829,4.3796,4.3796,4.3796,4.3804,4.3812,4.3804,4.3804,4.3804,4.3796,4.3804,4.3804,4.3796,4.3796,4.3796,4.3796,4.3843,4.3883,4.382,4.3897,4.3974,4.3905,4.3961,4.3997,4.3997,4.3945,4.3921,4.3981,4.3997,4.3997,4.3997,4.3997,4.4005,4.4005,4.4005,4.4005,4.4005,4.4005,4.4005,4.4005,4.4005,4.4005,4.4005,4.4005,4.4005,4.4005,4.4005,4.4005,4.4005,4.4005,4.4005,4.4005,4.4005,4.4005,0.0,0.0,4.5249,4.2947,0.0,0.0,0.0,0.0,0.0,0.0,0.0,0.0,0.0,0.0,0.0,0.0,0.0,0.0,0.0,0.0,0.0,0.0,0.0,0.0,0.0,0.0,0.0,0.0,0.0,0.0,0.0,4.5137,4.4908,4.4506,4.3668,4.3463,4.3986,4.3206,4.3206,4.4005,4.4005,4.4005,4.4005,4.4005,4.3989,4.3976,4.3976,4.3942,4.3937,4.3937,4.3921,4.3897,4.3961,4.3981,4.3989,4.3897,4.3905,4.3968,4.3899,4.3845,4.3812,4.3851,4.3867,4.3875,4.3921,4.3937,4.3937,4.3937,4.3937,4.3937,4.3937,4.3937,4.3937,4.3937,4.3961,4.395,4.3945,4.3966,4.3997,4.3966,4.3981,4.4005,4.4005,4.3981,4.3974,4.3997,4.4005,4.4005,4.4005,4.4005,4.4005,4.4005,4.4005,4.4005,4.4005,4.4005,4.4005,4.4005,4.4005,4.4005,4.4005,4.4005,4.4005,4.4005,4.4005,4.4005,4.4005,4.4005,4.4005,4.4005,4.4005,4.4005,4.5393,4.5759,0.0,4.3748,4.2635,0.0,0.0,0.0,0.0,0.0,0.0,0.0,0.0,0.0,0.0,0.0,0.0,0.0,0.0,0.0,0.0,0.0,0.0,0.0,0.0,0.0,4.028,4.1629,0.0,0.0,0.0,0.0,4.4399,4.4404,4.3805,4.3647,4.4005,4.3485,4.3485,4.4005,4.4005,4.4005,4.4005,4.4005,4.4005,4.4005,4.4005,4.4005,4.4005,4.4005,4.3974,4.3945,4.3981,4.4005,4.3997,4.3974,4.4005,4.4055,4.3968,4.3905,4.3883,4.3921,4.3937,4.3945,4.3989,4.4005,4.4005,4.4005,4.4005,4.4005,4.4005,4.4005,4.4005,4.4005,4.4005,4.4005,4.4005,4.4005,4.4005,4.4005,4.4005,4.4005,4.4005,4.4005,4.4005,4.4005,4.4005,4.4005,4.4005,4.4005,4.4005,4.4005,4.4005,4.4005,4.4005,4.4005,4.4005,4.4005,4.4005,4.4005,4.4005,4.4005,4.4005,4.4005,4.4005,4.4005,4.4005,4.4005,4.4005,4.4005,4.4005,4.4005]}]]